<?xml version="1.0" encoding="UTF-8" standalone="no" ?>
<gpx xmlns="http://www.topografix.com/GPX/1/1" xmlns:xsi="http://www.w3.org/2001/XMLSchema-instance" xsi:schemaLocation="http://www.topografix.com/GPX/1/1 http://www.topografix.com/GPX/1/1/gpx.xsd" version="1.1" creator="VisuGPX - https://www.visugpx.com">
  <metadata>
    <name>Blonville-Benerville 29/08/2022</name>
  </metadata>
  <trk>
    <name><![CDATA[29/08/2022 15:13:40]]></name>
    <trkseg>
      <trkpt lat="49.34844" lon="0.0504">
        <ele>-365.20001220703</ele>
        <time>2022-08-29T13:14:45Z</time>
      </trkpt>
      <trkpt lat="49.34844" lon="0.05042">
        <ele>-365.20001220703</ele>
        <time>2022-08-29T13:14:47Z</time>
      </trkpt>
      <trkpt lat="49.34842" lon="0.0505">
        <ele>-365</ele>
        <time>2022-08-29T13:14:57Z</time>
      </trkpt>
      <trkpt lat="49.3484" lon="0.0505">
        <ele>-365</ele>
        <time>2022-08-29T13:14:59Z</time>
      </trkpt>
      <trkpt lat="49.34835" lon="0.05051">
        <ele>-365</ele>
        <time>2022-08-29T13:15:04Z</time>
      </trkpt>
      <trkpt lat="49.34829" lon="0.05053">
        <ele>-365.20001220703</ele>
        <time>2022-08-29T13:15:11Z</time>
      </trkpt>
      <trkpt lat="49.34818" lon="0.05056">
        <ele>-365.20001220703</ele>
        <time>2022-08-29T13:15:23Z</time>
      </trkpt>
      <trkpt lat="49.34804" lon="0.05058">
        <ele>-365.39999389648</ele>
        <time>2022-08-29T13:15:33Z</time>
      </trkpt>
      <trkpt lat="49.348" lon="0.05058">
        <ele>-365.39999389648</ele>
        <time>2022-08-29T13:15:37Z</time>
      </trkpt>
      <trkpt lat="49.34786" lon="0.0506">
        <ele>-365.60000610352</ele>
        <time>2022-08-29T13:15:46Z</time>
      </trkpt>
      <trkpt lat="49.34784" lon="0.0506">
        <ele>-365.60000610352</ele>
        <time>2022-08-29T13:15:47Z</time>
      </trkpt>
      <trkpt lat="49.34783" lon="0.05061">
        <ele>-365.60000610352</ele>
        <time>2022-08-29T13:15:48Z</time>
      </trkpt>
      <trkpt lat="49.34782" lon="0.05061">
        <ele>-365.79998779297</ele>
        <time>2022-08-29T13:15:49Z</time>
      </trkpt>
      <trkpt lat="49.34779" lon="0.05062">
        <ele>-365.79998779297</ele>
        <time>2022-08-29T13:15:52Z</time>
      </trkpt>
      <trkpt lat="49.34778" lon="0.05061">
        <ele>-366</ele>
        <time>2022-08-29T13:15:53Z</time>
      </trkpt>
      <trkpt lat="49.34775" lon="0.05062">
        <ele>-366</ele>
        <time>2022-08-29T13:15:56Z</time>
      </trkpt>
      <trkpt lat="49.34773" lon="0.05062">
        <ele>-366</ele>
        <time>2022-08-29T13:15:57Z</time>
      </trkpt>
      <trkpt lat="49.34771" lon="0.05064">
        <ele>-366</ele>
        <time>2022-08-29T13:15:58Z</time>
      </trkpt>
      <trkpt lat="49.34769" lon="0.05065">
        <ele>-366</ele>
        <time>2022-08-29T13:15:59Z</time>
      </trkpt>
      <trkpt lat="49.34767" lon="0.05066">
        <ele>-366</ele>
        <time>2022-08-29T13:16:00Z</time>
      </trkpt>
      <trkpt lat="49.34766" lon="0.05066">
        <ele>-366</ele>
        <time>2022-08-29T13:16:01Z</time>
      </trkpt>
      <trkpt lat="49.3476" lon="0.05067">
        <ele>-366</ele>
        <time>2022-08-29T13:16:07Z</time>
      </trkpt>
      <trkpt lat="49.34759" lon="0.05066">
        <ele>-366</ele>
        <time>2022-08-29T13:16:08Z</time>
      </trkpt>
      <trkpt lat="49.34757" lon="0.05066">
        <ele>-366</ele>
        <time>2022-08-29T13:16:09Z</time>
      </trkpt>
      <trkpt lat="49.34756" lon="0.05067">
        <ele>-366</ele>
        <time>2022-08-29T13:16:10Z</time>
      </trkpt>
      <trkpt lat="49.34754" lon="0.05068">
        <ele>-366</ele>
        <time>2022-08-29T13:16:11Z</time>
      </trkpt>
      <trkpt lat="49.34753" lon="0.05067">
        <ele>-366</ele>
        <time>2022-08-29T13:16:12Z</time>
      </trkpt>
      <trkpt lat="49.34752" lon="0.05067">
        <ele>-366</ele>
        <time>2022-08-29T13:16:13Z</time>
      </trkpt>
      <trkpt lat="49.34749" lon="0.05068">
        <ele>-366</ele>
        <time>2022-08-29T13:16:17Z</time>
      </trkpt>
      <trkpt lat="49.34748" lon="0.05069">
        <ele>-366.20001220703</ele>
        <time>2022-08-29T13:16:18Z</time>
      </trkpt>
      <trkpt lat="49.34747" lon="0.05069">
        <ele>-366.20001220703</ele>
        <time>2022-08-29T13:16:19Z</time>
      </trkpt>
      <trkpt lat="49.34746" lon="0.05069">
        <ele>-366.20001220703</ele>
        <time>2022-08-29T13:16:20Z</time>
      </trkpt>
      <trkpt lat="49.34745" lon="0.05069">
        <ele>-366.20001220703</ele>
        <time>2022-08-29T13:16:21Z</time>
      </trkpt>
      <trkpt lat="49.34743" lon="0.05068">
        <ele>-366.39999389648</ele>
        <time>2022-08-29T13:16:22Z</time>
      </trkpt>
      <trkpt lat="49.34742" lon="0.05067">
        <ele>-366.39999389648</ele>
        <time>2022-08-29T13:16:23Z</time>
      </trkpt>
      <trkpt lat="49.34731" lon="0.0507">
        <ele>-366.39999389648</ele>
        <time>2022-08-29T13:16:35Z</time>
      </trkpt>
      <trkpt lat="49.34728" lon="0.0507">
        <ele>-366.39999389648</ele>
        <time>2022-08-29T13:16:37Z</time>
      </trkpt>
      <trkpt lat="49.34727" lon="0.0507">
        <ele>-366.39999389648</ele>
        <time>2022-08-29T13:16:38Z</time>
      </trkpt>
      <trkpt lat="49.34726" lon="0.0507">
        <ele>-366.39999389648</ele>
        <time>2022-08-29T13:16:39Z</time>
      </trkpt>
      <trkpt lat="49.34725" lon="0.05071">
        <ele>-366.39999389648</ele>
        <time>2022-08-29T13:16:40Z</time>
      </trkpt>
      <trkpt lat="49.34723" lon="0.05071">
        <ele>-366.39999389648</ele>
        <time>2022-08-29T13:16:41Z</time>
      </trkpt>
      <trkpt lat="49.34722" lon="0.05072">
        <ele>-366.39999389648</ele>
        <time>2022-08-29T13:16:42Z</time>
      </trkpt>
      <trkpt lat="49.34704" lon="0.05077">
        <ele>-366.79998779297</ele>
        <time>2022-08-29T13:16:56Z</time>
      </trkpt>
      <trkpt lat="49.34689" lon="0.05078">
        <ele>-366.79998779297</ele>
        <time>2022-08-29T13:17:10Z</time>
      </trkpt>
      <trkpt lat="49.34667" lon="0.0508">
        <ele>-367</ele>
        <time>2022-08-29T13:17:27Z</time>
      </trkpt>
      <trkpt lat="49.34643" lon="0.0508">
        <ele>-367</ele>
        <time>2022-08-29T13:17:44Z</time>
      </trkpt>
      <trkpt lat="49.34638" lon="0.05081">
        <ele>-367</ele>
        <time>2022-08-29T13:17:50Z</time>
      </trkpt>
      <trkpt lat="49.34636" lon="0.05081">
        <ele>-367</ele>
        <time>2022-08-29T13:17:51Z</time>
      </trkpt>
      <trkpt lat="49.34634" lon="0.05082">
        <ele>-367</ele>
        <time>2022-08-29T13:17:53Z</time>
      </trkpt>
      <trkpt lat="49.34629" lon="0.05083">
        <ele>-367.20001220703</ele>
        <time>2022-08-29T13:17:58Z</time>
      </trkpt>
      <trkpt lat="49.34626" lon="0.05084">
        <ele>-367.20001220703</ele>
        <time>2022-08-29T13:18:00Z</time>
      </trkpt>
      <trkpt lat="49.34615" lon="0.05086">
        <ele>-367</ele>
        <time>2022-08-29T13:18:10Z</time>
      </trkpt>
      <trkpt lat="49.34614" lon="0.05087">
        <ele>-367</ele>
        <time>2022-08-29T13:18:11Z</time>
      </trkpt>
      <trkpt lat="49.34612" lon="0.05087">
        <ele>-367</ele>
        <time>2022-08-29T13:18:12Z</time>
      </trkpt>
      <trkpt lat="49.346" lon="0.05089">
        <ele>-366.79998779297</ele>
        <time>2022-08-29T13:18:22Z</time>
      </trkpt>
      <trkpt lat="49.34598" lon="0.0509">
        <ele>-366.79998779297</ele>
        <time>2022-08-29T13:18:24Z</time>
      </trkpt>
      <trkpt lat="49.34597" lon="0.0509">
        <ele>-366.79998779297</ele>
        <time>2022-08-29T13:18:25Z</time>
      </trkpt>
      <trkpt lat="49.34595" lon="0.0509">
        <ele>-366.79998779297</ele>
        <time>2022-08-29T13:18:26Z</time>
      </trkpt>
      <trkpt lat="49.34594" lon="0.0509">
        <ele>-367</ele>
        <time>2022-08-29T13:18:27Z</time>
      </trkpt>
      <trkpt lat="49.34593" lon="0.0509">
        <ele>-367</ele>
        <time>2022-08-29T13:18:28Z</time>
      </trkpt>
      <trkpt lat="49.34591" lon="0.05091">
        <ele>-367</ele>
        <time>2022-08-29T13:18:29Z</time>
      </trkpt>
      <trkpt lat="49.34589" lon="0.05092">
        <ele>-367</ele>
        <time>2022-08-29T13:18:30Z</time>
      </trkpt>
      <trkpt lat="49.34587" lon="0.05093">
        <ele>-367</ele>
        <time>2022-08-29T13:18:31Z</time>
      </trkpt>
      <trkpt lat="49.34586" lon="0.05094">
        <ele>-367</ele>
        <time>2022-08-29T13:18:32Z</time>
      </trkpt>
      <trkpt lat="49.34582" lon="0.05097">
        <ele>-367</ele>
        <time>2022-08-29T13:18:38Z</time>
      </trkpt>
      <trkpt lat="49.3458" lon="0.05098">
        <ele>-367</ele>
        <time>2022-08-29T13:18:39Z</time>
      </trkpt>
      <trkpt lat="49.34579" lon="0.05098">
        <ele>-367</ele>
        <time>2022-08-29T13:18:40Z</time>
      </trkpt>
      <trkpt lat="49.34578" lon="0.05099">
        <ele>-367</ele>
        <time>2022-08-29T13:18:41Z</time>
      </trkpt>
      <trkpt lat="49.34576" lon="0.05099">
        <ele>-367</ele>
        <time>2022-08-29T13:18:42Z</time>
      </trkpt>
      <trkpt lat="49.34574" lon="0.05101">
        <ele>-367</ele>
        <time>2022-08-29T13:18:43Z</time>
      </trkpt>
      <trkpt lat="49.34573" lon="0.05102">
        <ele>-367</ele>
        <time>2022-08-29T13:18:44Z</time>
      </trkpt>
      <trkpt lat="49.34571" lon="0.05103">
        <ele>-367</ele>
        <time>2022-08-29T13:18:45Z</time>
      </trkpt>
      <trkpt lat="49.34569" lon="0.05104">
        <ele>-366.79998779297</ele>
        <time>2022-08-29T13:18:46Z</time>
      </trkpt>
      <trkpt lat="49.34566" lon="0.05108">
        <ele>-366.79998779297</ele>
        <time>2022-08-29T13:18:52Z</time>
      </trkpt>
      <trkpt lat="49.34565" lon="0.05109">
        <ele>-366.79998779297</ele>
        <time>2022-08-29T13:18:53Z</time>
      </trkpt>
      <trkpt lat="49.34563" lon="0.0511">
        <ele>-366.79998779297</ele>
        <time>2022-08-29T13:18:54Z</time>
      </trkpt>
      <trkpt lat="49.34561" lon="0.05111">
        <ele>-366.79998779297</ele>
        <time>2022-08-29T13:18:56Z</time>
      </trkpt>
      <trkpt lat="49.3456" lon="0.05112">
        <ele>-366.79998779297</ele>
        <time>2022-08-29T13:18:57Z</time>
      </trkpt>
      <trkpt lat="49.34547" lon="0.05126">
        <ele>-366.79998779297</ele>
        <time>2022-08-29T13:19:09Z</time>
      </trkpt>
      <trkpt lat="49.34545" lon="0.05128">
        <ele>-366.60000610352</ele>
        <time>2022-08-29T13:19:11Z</time>
      </trkpt>
      <trkpt lat="49.34542" lon="0.05129">
        <ele>-366.60000610352</ele>
        <time>2022-08-29T13:19:13Z</time>
      </trkpt>
      <trkpt lat="49.34541" lon="0.0513">
        <ele>-366.60000610352</ele>
        <time>2022-08-29T13:19:14Z</time>
      </trkpt>
      <trkpt lat="49.34533" lon="0.0514">
        <ele>-366.60000610352</ele>
        <time>2022-08-29T13:19:24Z</time>
      </trkpt>
      <trkpt lat="49.34532" lon="0.05141">
        <ele>-366.60000610352</ele>
        <time>2022-08-29T13:19:25Z</time>
      </trkpt>
      <trkpt lat="49.34531" lon="0.05143">
        <ele>-366.60000610352</ele>
        <time>2022-08-29T13:19:26Z</time>
      </trkpt>
      <trkpt lat="49.3453" lon="0.05144">
        <ele>-366.60000610352</ele>
        <time>2022-08-29T13:19:27Z</time>
      </trkpt>
      <trkpt lat="49.34524" lon="0.05147">
        <ele>-366.39999389648</ele>
        <time>2022-08-29T13:19:33Z</time>
      </trkpt>
      <trkpt lat="49.34524" lon="0.05148">
        <ele>-366.39999389648</ele>
        <time>2022-08-29T13:19:34Z</time>
      </trkpt>
      <trkpt lat="49.34516" lon="0.05154">
        <ele>-366.20001220703</ele>
        <time>2022-08-29T13:19:44Z</time>
      </trkpt>
      <trkpt lat="49.345" lon="0.05171">
        <ele>-366</ele>
        <time>2022-08-29T13:20:01Z</time>
      </trkpt>
      <trkpt lat="49.34485" lon="0.05178">
        <ele>-365</ele>
        <time>2022-08-29T13:20:15Z</time>
      </trkpt>
      <trkpt lat="49.34457" lon="0.05182">
        <ele>-363.60000610352</ele>
        <time>2022-08-29T13:20:42Z</time>
      </trkpt>
      <trkpt lat="49.34437" lon="0.0519">
        <ele>-362</ele>
        <time>2022-08-29T13:21:05Z</time>
      </trkpt>
      <trkpt lat="49.34418" lon="0.05197">
        <ele>-361.39999389648</ele>
        <time>2022-08-29T13:21:24Z</time>
      </trkpt>
      <trkpt lat="49.34404" lon="0.0522">
        <ele>-361</ele>
        <time>2022-08-29T13:21:39Z</time>
      </trkpt>
      <trkpt lat="49.34403" lon="0.05222">
        <ele>-361</ele>
        <time>2022-08-29T13:21:40Z</time>
      </trkpt>
      <trkpt lat="49.34403" lon="0.05223">
        <ele>-361</ele>
        <time>2022-08-29T13:21:41Z</time>
      </trkpt>
      <trkpt lat="49.34399" lon="0.05242">
        <ele>-360.79998779297</ele>
        <time>2022-08-29T13:21:52Z</time>
      </trkpt>
      <trkpt lat="49.34398" lon="0.05244">
        <ele>-360.79998779297</ele>
        <time>2022-08-29T13:21:53Z</time>
      </trkpt>
      <trkpt lat="49.34397" lon="0.05246">
        <ele>-360.79998779297</ele>
        <time>2022-08-29T13:21:54Z</time>
      </trkpt>
      <trkpt lat="49.34391" lon="0.05272">
        <ele>-361</ele>
        <time>2022-08-29T13:22:09Z</time>
      </trkpt>
      <trkpt lat="49.34385" lon="0.0531">
        <ele>-361.20001220703</ele>
        <time>2022-08-29T13:22:29Z</time>
      </trkpt>
      <trkpt lat="49.34378" lon="0.05332">
        <ele>-361.60000610352</ele>
        <time>2022-08-29T13:22:42Z</time>
      </trkpt>
      <trkpt lat="49.34382" lon="0.05361">
        <ele>-362.79998779297</ele>
        <time>2022-08-29T13:23:01Z</time>
      </trkpt>
      <trkpt lat="49.34389" lon="0.05395">
        <ele>-363.60000610352</ele>
        <time>2022-08-29T13:23:19Z</time>
      </trkpt>
      <trkpt lat="49.34392" lon="0.05411">
        <ele>-364</ele>
        <time>2022-08-29T13:23:31Z</time>
      </trkpt>
      <trkpt lat="49.34389" lon="0.05403">
        <ele>-364.39999389648</ele>
        <time>2022-08-29T13:23:52Z</time>
      </trkpt>
      <trkpt lat="49.34383" lon="0.05399">
        <ele>-364.20001220703</ele>
        <time>2022-08-29T13:24:00Z</time>
      </trkpt>
      <trkpt lat="49.3438" lon="0.05391">
        <ele>-363.79998779297</ele>
        <time>2022-08-29T13:24:07Z</time>
      </trkpt>
      <trkpt lat="49.34379" lon="0.0539">
        <ele>-363.60000610352</ele>
        <time>2022-08-29T13:24:08Z</time>
      </trkpt>
      <trkpt lat="49.34378" lon="0.05388">
        <ele>-363.60000610352</ele>
        <time>2022-08-29T13:24:09Z</time>
      </trkpt>
      <trkpt lat="49.34377" lon="0.05383">
        <ele>-363.60000610352</ele>
        <time>2022-08-29T13:24:14Z</time>
      </trkpt>
      <trkpt lat="49.34376" lon="0.05381">
        <ele>-363.60000610352</ele>
        <time>2022-08-29T13:24:15Z</time>
      </trkpt>
      <trkpt lat="49.34375" lon="0.0538">
        <ele>-363.60000610352</ele>
        <time>2022-08-29T13:24:16Z</time>
      </trkpt>
      <trkpt lat="49.34375" lon="0.05378">
        <ele>-363.60000610352</ele>
        <time>2022-08-29T13:24:17Z</time>
      </trkpt>
      <trkpt lat="49.34374" lon="0.05376">
        <ele>-363.60000610352</ele>
        <time>2022-08-29T13:24:18Z</time>
      </trkpt>
      <trkpt lat="49.34366" lon="0.05343">
        <ele>-362.60000610352</ele>
        <time>2022-08-29T13:24:42Z</time>
      </trkpt>
      <trkpt lat="49.34369" lon="0.05305">
        <ele>-361.60000610352</ele>
        <time>2022-08-29T13:25:02Z</time>
      </trkpt>
      <trkpt lat="49.34369" lon="0.05294">
        <ele>-361.39999389648</ele>
        <time>2022-08-29T13:25:09Z</time>
      </trkpt>
      <trkpt lat="49.34369" lon="0.05292">
        <ele>-361.39999389648</ele>
        <time>2022-08-29T13:25:10Z</time>
      </trkpt>
      <trkpt lat="49.3437" lon="0.05289">
        <ele>-361.39999389648</ele>
        <time>2022-08-29T13:25:12Z</time>
      </trkpt>
      <trkpt lat="49.3437" lon="0.05287">
        <ele>-361.39999389648</ele>
        <time>2022-08-29T13:25:13Z</time>
      </trkpt>
      <trkpt lat="49.34371" lon="0.05286">
        <ele>-361.39999389648</ele>
        <time>2022-08-29T13:25:14Z</time>
      </trkpt>
      <trkpt lat="49.34371" lon="0.05284">
        <ele>-361.20001220703</ele>
        <time>2022-08-29T13:25:15Z</time>
      </trkpt>
      <trkpt lat="49.34372" lon="0.05282">
        <ele>-361.20001220703</ele>
        <time>2022-08-29T13:25:16Z</time>
      </trkpt>
      <trkpt lat="49.34373" lon="0.05281">
        <ele>-361.20001220703</ele>
        <time>2022-08-29T13:25:17Z</time>
      </trkpt>
      <trkpt lat="49.34373" lon="0.05279">
        <ele>-361</ele>
        <time>2022-08-29T13:25:18Z</time>
      </trkpt>
      <trkpt lat="49.34375" lon="0.05257">
        <ele>-360.60000610352</ele>
        <time>2022-08-29T13:25:30Z</time>
      </trkpt>
      <trkpt lat="49.34375" lon="0.05255">
        <ele>-360.60000610352</ele>
        <time>2022-08-29T13:25:31Z</time>
      </trkpt>
      <trkpt lat="49.34375" lon="0.05254">
        <ele>-360.60000610352</ele>
        <time>2022-08-29T13:25:32Z</time>
      </trkpt>
      <trkpt lat="49.34375" lon="0.05252">
        <ele>-360.60000610352</ele>
        <time>2022-08-29T13:25:33Z</time>
      </trkpt>
      <trkpt lat="49.34375" lon="0.0525">
        <ele>-360.60000610352</ele>
        <time>2022-08-29T13:25:34Z</time>
      </trkpt>
      <trkpt lat="49.34379" lon="0.0523">
        <ele>-360.39999389648</ele>
        <time>2022-08-29T13:25:45Z</time>
      </trkpt>
      <trkpt lat="49.3438" lon="0.05228">
        <ele>-360.39999389648</ele>
        <time>2022-08-29T13:25:46Z</time>
      </trkpt>
      <trkpt lat="49.34381" lon="0.05226">
        <ele>-360.39999389648</ele>
        <time>2022-08-29T13:25:47Z</time>
      </trkpt>
      <trkpt lat="49.34382" lon="0.05224">
        <ele>-360.39999389648</ele>
        <time>2022-08-29T13:25:48Z</time>
      </trkpt>
      <trkpt lat="49.34382" lon="0.05222">
        <ele>-360.39999389648</ele>
        <time>2022-08-29T13:25:49Z</time>
      </trkpt>
      <trkpt lat="49.34383" lon="0.0522">
        <ele>-360.39999389648</ele>
        <time>2022-08-29T13:25:50Z</time>
      </trkpt>
      <trkpt lat="49.34383" lon="0.05218">
        <ele>-360.39999389648</ele>
        <time>2022-08-29T13:25:51Z</time>
      </trkpt>
      <trkpt lat="49.34391" lon="0.05199">
        <ele>-360.60000610352</ele>
        <time>2022-08-29T13:26:08Z</time>
      </trkpt>
      <trkpt lat="49.34386" lon="0.05188">
        <ele>-359.79998779297</ele>
        <time>2022-08-29T13:26:27Z</time>
      </trkpt>
      <trkpt lat="49.34383" lon="0.05203">
        <ele>-357.39999389648</ele>
        <time>2022-08-29T13:26:39Z</time>
      </trkpt>
      <trkpt lat="49.34379" lon="0.05233">
        <ele>-355.79998779297</ele>
        <time>2022-08-29T13:26:58Z</time>
      </trkpt>
      <trkpt lat="49.34375" lon="0.05259">
        <ele>-355.79998779297</ele>
        <time>2022-08-29T13:27:12Z</time>
      </trkpt>
      <trkpt lat="49.34366" lon="0.05296">
        <ele>-356.20001220703</ele>
        <time>2022-08-29T13:27:30Z</time>
      </trkpt>
      <trkpt lat="49.34366" lon="0.05297">
        <ele>-356.20001220703</ele>
        <time>2022-08-29T13:27:31Z</time>
      </trkpt>
      <trkpt lat="49.34364" lon="0.05304">
        <ele>-356.79998779297</ele>
        <time>2022-08-29T13:27:38Z</time>
      </trkpt>
      <trkpt lat="49.34363" lon="0.05306">
        <ele>-356.79998779297</ele>
        <time>2022-08-29T13:27:39Z</time>
      </trkpt>
      <trkpt lat="49.34362" lon="0.05308">
        <ele>-356.79998779297</ele>
        <time>2022-08-29T13:27:40Z</time>
      </trkpt>
      <trkpt lat="49.34362" lon="0.0531">
        <ele>-357</ele>
        <time>2022-08-29T13:27:41Z</time>
      </trkpt>
      <trkpt lat="49.34357" lon="0.05334">
        <ele>-357</ele>
        <time>2022-08-29T13:27:55Z</time>
      </trkpt>
      <trkpt lat="49.34357" lon="0.05351">
        <ele>-357.20001220703</ele>
        <time>2022-08-29T13:28:05Z</time>
      </trkpt>
      <trkpt lat="49.34353" lon="0.05369">
        <ele>-357.20001220703</ele>
        <time>2022-08-29T13:28:17Z</time>
      </trkpt>
      <trkpt lat="49.34349" lon="0.05365">
        <ele>-357.20001220703</ele>
        <time>2022-08-29T13:28:21Z</time>
      </trkpt>
      <trkpt lat="49.34341" lon="0.05348">
        <ele>-355.20001220703</ele>
        <time>2022-08-29T13:28:33Z</time>
      </trkpt>
      <trkpt lat="49.34334" lon="0.05336">
        <ele>-353.79998779297</ele>
        <time>2022-08-29T13:28:42Z</time>
      </trkpt>
      <trkpt lat="49.34321" lon="0.05315">
        <ele>-350.60000610352</ele>
        <time>2022-08-29T13:29:01Z</time>
      </trkpt>
      <trkpt lat="49.34303" lon="0.053">
        <ele>-348</ele>
        <time>2022-08-29T13:29:24Z</time>
      </trkpt>
      <trkpt lat="49.34286" lon="0.05289">
        <ele>-346.79998779297</ele>
        <time>2022-08-29T13:29:40Z</time>
      </trkpt>
      <trkpt lat="49.34277" lon="0.05282">
        <ele>-345.60000610352</ele>
        <time>2022-08-29T13:29:54Z</time>
      </trkpt>
      <trkpt lat="49.34266" lon="0.05278">
        <ele>-345</ele>
        <time>2022-08-29T13:30:04Z</time>
      </trkpt>
      <trkpt lat="49.34241" lon="0.05253">
        <ele>-343</ele>
        <time>2022-08-29T13:30:26Z</time>
      </trkpt>
      <trkpt lat="49.3422" lon="0.05246">
        <ele>-341</ele>
        <time>2022-08-29T13:30:46Z</time>
      </trkpt>
      <trkpt lat="49.3419" lon="0.05236">
        <ele>-338.39999389648</ele>
        <time>2022-08-29T13:31:13Z</time>
      </trkpt>
      <trkpt lat="49.34172" lon="0.05232">
        <ele>-337.60000610352</ele>
        <time>2022-08-29T13:31:27Z</time>
      </trkpt>
      <trkpt lat="49.34159" lon="0.05235">
        <ele>-336</ele>
        <time>2022-08-29T13:31:39Z</time>
      </trkpt>
      <trkpt lat="49.34138" lon="0.05233">
        <ele>-333.39999389648</ele>
        <time>2022-08-29T13:31:56Z</time>
      </trkpt>
      <trkpt lat="49.34121" lon="0.05227">
        <ele>-331.39999389648</ele>
        <time>2022-08-29T13:32:11Z</time>
      </trkpt>
      <trkpt lat="49.341" lon="0.05218">
        <ele>-328.39999389648</ele>
        <time>2022-08-29T13:32:31Z</time>
      </trkpt>
      <trkpt lat="49.34086" lon="0.05207">
        <ele>-325.39999389648</ele>
        <time>2022-08-29T13:32:48Z</time>
      </trkpt>
      <trkpt lat="49.34085" lon="0.05206">
        <ele>-325</ele>
        <time>2022-08-29T13:32:49Z</time>
      </trkpt>
      <trkpt lat="49.34072" lon="0.05202">
        <ele>-323.20001220703</ele>
        <time>2022-08-29T13:33:05Z</time>
      </trkpt>
      <trkpt lat="49.34055" lon="0.052">
        <ele>-320.20001220703</ele>
        <time>2022-08-29T13:33:21Z</time>
      </trkpt>
      <trkpt lat="49.34042" lon="0.05201">
        <ele>-317.20001220703</ele>
        <time>2022-08-29T13:33:37Z</time>
      </trkpt>
      <trkpt lat="49.34019" lon="0.05206">
        <ele>-314</ele>
        <time>2022-08-29T13:33:58Z</time>
      </trkpt>
      <trkpt lat="49.33994" lon="0.05209">
        <ele>-311</ele>
        <time>2022-08-29T13:34:21Z</time>
      </trkpt>
      <trkpt lat="49.33971" lon="0.05213">
        <ele>-308</ele>
        <time>2022-08-29T13:34:47Z</time>
      </trkpt>
      <trkpt lat="49.33964" lon="0.05215">
        <ele>-306.60000610352</ele>
        <time>2022-08-29T13:34:57Z</time>
      </trkpt>
      <trkpt lat="49.33951" lon="0.05218">
        <ele>-304.60000610352</ele>
        <time>2022-08-29T13:35:14Z</time>
      </trkpt>
      <trkpt lat="49.33935" lon="0.05234">
        <ele>-303.39999389648</ele>
        <time>2022-08-29T13:35:33Z</time>
      </trkpt>
      <trkpt lat="49.33924" lon="0.05236">
        <ele>-302.79998779297</ele>
        <time>2022-08-29T13:35:43Z</time>
      </trkpt>
      <trkpt lat="49.33912" lon="0.05235">
        <ele>-302</ele>
        <time>2022-08-29T13:36:11Z</time>
      </trkpt>
      <trkpt lat="49.33903" lon="0.05236">
        <ele>-301</ele>
        <time>2022-08-29T13:36:19Z</time>
      </trkpt>
      <trkpt lat="49.33893" lon="0.05233">
        <ele>-300</ele>
        <time>2022-08-29T13:36:29Z</time>
      </trkpt>
      <trkpt lat="49.33882" lon="0.05231">
        <ele>-299.20001220703</ele>
        <time>2022-08-29T13:36:37Z</time>
      </trkpt>
      <trkpt lat="49.33874" lon="0.0523">
        <ele>-298.39999389648</ele>
        <time>2022-08-29T13:36:44Z</time>
      </trkpt>
      <trkpt lat="49.33864" lon="0.05234">
        <ele>-297</ele>
        <time>2022-08-29T13:36:55Z</time>
      </trkpt>
      <trkpt lat="49.33863" lon="0.05234">
        <ele>-297</ele>
        <time>2022-08-29T13:36:56Z</time>
      </trkpt>
      <trkpt lat="49.33841" lon="0.05259">
        <ele>-294.60000610352</ele>
        <time>2022-08-29T13:37:20Z</time>
      </trkpt>
      <trkpt lat="49.33814" lon="0.05276">
        <ele>-293.20001220703</ele>
        <time>2022-08-29T13:37:43Z</time>
      </trkpt>
      <trkpt lat="49.33803" lon="0.05275">
        <ele>-292.39999389648</ele>
        <time>2022-08-29T13:37:54Z</time>
      </trkpt>
      <trkpt lat="49.33772" lon="0.05268">
        <ele>-289.39999389648</ele>
        <time>2022-08-29T13:38:19Z</time>
      </trkpt>
      <trkpt lat="49.33752" lon="0.05271">
        <ele>-287.20001220703</ele>
        <time>2022-08-29T13:38:40Z</time>
      </trkpt>
      <trkpt lat="49.33748" lon="0.05275">
        <ele>-286.60000610352</ele>
        <time>2022-08-29T13:38:48Z</time>
      </trkpt>
      <trkpt lat="49.33734" lon="0.05281">
        <ele>-285.39999389648</ele>
        <time>2022-08-29T13:39:05Z</time>
      </trkpt>
      <trkpt lat="49.33724" lon="0.05277">
        <ele>-284.39999389648</ele>
        <time>2022-08-29T13:39:13Z</time>
      </trkpt>
      <trkpt lat="49.337" lon="0.05273">
        <ele>-282</ele>
        <time>2022-08-29T13:39:31Z</time>
      </trkpt>
      <trkpt lat="49.33685" lon="0.05269">
        <ele>-281.20001220703</ele>
        <time>2022-08-29T13:39:45Z</time>
      </trkpt>
      <trkpt lat="49.33658" lon="0.05264">
        <ele>-280.20001220703</ele>
        <time>2022-08-29T13:40:08Z</time>
      </trkpt>
      <trkpt lat="49.33633" lon="0.05267">
        <ele>-280.20001220703</ele>
        <time>2022-08-29T13:40:31Z</time>
      </trkpt>
      <trkpt lat="49.33624" lon="0.05266">
        <ele>-280.20001220703</ele>
        <time>2022-08-29T13:40:39Z</time>
      </trkpt>
      <trkpt lat="49.33618" lon="0.05267">
        <ele>-280.20001220703</ele>
        <time>2022-08-29T13:40:45Z</time>
      </trkpt>
      <trkpt lat="49.3361" lon="0.05268">
        <ele>-280</ele>
        <time>2022-08-29T13:40:54Z</time>
      </trkpt>
      <trkpt lat="49.33594" lon="0.05273">
        <ele>-280.20001220703</ele>
        <time>2022-08-29T13:41:14Z</time>
      </trkpt>
      <trkpt lat="49.33582" lon="0.0528">
        <ele>-280.20001220703</ele>
        <time>2022-08-29T13:41:28Z</time>
      </trkpt>
      <trkpt lat="49.33566" lon="0.05297">
        <ele>-280.60000610352</ele>
        <time>2022-08-29T13:41:50Z</time>
      </trkpt>
      <trkpt lat="49.33555" lon="0.05303">
        <ele>-282</ele>
        <time>2022-08-29T13:42:05Z</time>
      </trkpt>
      <trkpt lat="49.33547" lon="0.05311">
        <ele>-283</ele>
        <time>2022-08-29T13:42:14Z</time>
      </trkpt>
      <trkpt lat="49.33533" lon="0.05327">
        <ele>-284.39999389648</ele>
        <time>2022-08-29T13:42:28Z</time>
      </trkpt>
      <trkpt lat="49.3353" lon="0.05328">
        <ele>-284.60000610352</ele>
        <time>2022-08-29T13:42:30Z</time>
      </trkpt>
      <trkpt lat="49.33518" lon="0.05344">
        <ele>-286.20001220703</ele>
        <time>2022-08-29T13:42:47Z</time>
      </trkpt>
      <trkpt lat="49.33508" lon="0.05358">
        <ele>-287</ele>
        <time>2022-08-29T13:42:57Z</time>
      </trkpt>
      <trkpt lat="49.33506" lon="0.05366">
        <ele>-287.20001220703</ele>
        <time>2022-08-29T13:43:01Z</time>
      </trkpt>
      <trkpt lat="49.33498" lon="0.05385">
        <ele>-288.39999389648</ele>
        <time>2022-08-29T13:43:12Z</time>
      </trkpt>
      <trkpt lat="49.33492" lon="0.05404">
        <ele>-289</ele>
        <time>2022-08-29T13:43:23Z</time>
      </trkpt>
      <trkpt lat="49.3349" lon="0.05409">
        <ele>-289.39999389648</ele>
        <time>2022-08-29T13:43:26Z</time>
      </trkpt>
      <trkpt lat="49.33487" lon="0.05414">
        <ele>-289.79998779297</ele>
        <time>2022-08-29T13:43:30Z</time>
      </trkpt>
      <trkpt lat="49.33485" lon="0.05416">
        <ele>-290</ele>
        <time>2022-08-29T13:43:32Z</time>
      </trkpt>
      <trkpt lat="49.33482" lon="0.05421">
        <ele>-290.60000610352</ele>
        <time>2022-08-29T13:43:36Z</time>
      </trkpt>
      <trkpt lat="49.33475" lon="0.05435">
        <ele>-291.20001220703</ele>
        <time>2022-08-29T13:43:45Z</time>
      </trkpt>
      <trkpt lat="49.33471" lon="0.0544">
        <ele>-291.79998779297</ele>
        <time>2022-08-29T13:43:49Z</time>
      </trkpt>
      <trkpt lat="49.33467" lon="0.05451">
        <ele>-292.20001220703</ele>
        <time>2022-08-29T13:43:56Z</time>
      </trkpt>
      <trkpt lat="49.33466" lon="0.05456">
        <ele>-292.60000610352</ele>
        <time>2022-08-29T13:43:59Z</time>
      </trkpt>
      <trkpt lat="49.33462" lon="0.05465">
        <ele>-293.60000610352</ele>
        <time>2022-08-29T13:44:06Z</time>
      </trkpt>
      <trkpt lat="49.3346" lon="0.05476">
        <ele>-294.20001220703</ele>
        <time>2022-08-29T13:44:12Z</time>
      </trkpt>
      <trkpt lat="49.33454" lon="0.05483">
        <ele>-294.60000610352</ele>
        <time>2022-08-29T13:44:18Z</time>
      </trkpt>
      <trkpt lat="49.33446" lon="0.05504">
        <ele>-295.60000610352</ele>
        <time>2022-08-29T13:44:31Z</time>
      </trkpt>
      <trkpt lat="49.33426" lon="0.05534">
        <ele>-297.39999389648</ele>
        <time>2022-08-29T13:44:54Z</time>
      </trkpt>
      <trkpt lat="49.33418" lon="0.05552">
        <ele>-298.20001220703</ele>
        <time>2022-08-29T13:45:04Z</time>
      </trkpt>
      <trkpt lat="49.33416" lon="0.05559">
        <ele>-298.39999389648</ele>
        <time>2022-08-29T13:45:08Z</time>
      </trkpt>
      <trkpt lat="49.33398" lon="0.05592">
        <ele>-299.60000610352</ele>
        <time>2022-08-29T13:45:30Z</time>
      </trkpt>
      <trkpt lat="49.33397" lon="0.05596">
        <ele>-299.60000610352</ele>
        <time>2022-08-29T13:45:32Z</time>
      </trkpt>
      <trkpt lat="49.33395" lon="0.05601">
        <ele>-299.79998779297</ele>
        <time>2022-08-29T13:45:35Z</time>
      </trkpt>
      <trkpt lat="49.33385" lon="0.0562">
        <ele>-300.39999389648</ele>
        <time>2022-08-29T13:45:48Z</time>
      </trkpt>
      <trkpt lat="49.33381" lon="0.05649">
        <ele>-301</ele>
        <time>2022-08-29T13:46:04Z</time>
      </trkpt>
      <trkpt lat="49.33377" lon="0.05662">
        <ele>-301.20001220703</ele>
        <time>2022-08-29T13:46:09Z</time>
      </trkpt>
      <trkpt lat="49.33377" lon="0.05668">
        <ele>-301.60000610352</ele>
        <time>2022-08-29T13:46:13Z</time>
      </trkpt>
      <trkpt lat="49.33376" lon="0.05684">
        <ele>-302</ele>
        <time>2022-08-29T13:46:22Z</time>
      </trkpt>
      <trkpt lat="49.33369" lon="0.05696">
        <ele>-302.20001220703</ele>
        <time>2022-08-29T13:46:35Z</time>
      </trkpt>
      <trkpt lat="49.33367" lon="0.05707">
        <ele>-302.20001220703</ele>
        <time>2022-08-29T13:46:42Z</time>
      </trkpt>
      <trkpt lat="49.33366" lon="0.05718">
        <ele>-302.20001220703</ele>
        <time>2022-08-29T13:46:47Z</time>
      </trkpt>
      <trkpt lat="49.33365" lon="0.05731">
        <ele>-301.79998779297</ele>
        <time>2022-08-29T13:46:54Z</time>
      </trkpt>
      <trkpt lat="49.33361" lon="0.05751">
        <ele>-299.79998779297</ele>
        <time>2022-08-29T13:47:09Z</time>
      </trkpt>
      <trkpt lat="49.3336" lon="0.05762">
        <ele>-298.20001220703</ele>
        <time>2022-08-29T13:47:22Z</time>
      </trkpt>
      <trkpt lat="49.33358" lon="0.05757">
        <ele>-297.20001220703</ele>
        <time>2022-08-29T13:48:08Z</time>
      </trkpt>
      <trkpt lat="49.33358" lon="0.05736">
        <ele>-297.60000610352</ele>
        <time>2022-08-29T13:48:22Z</time>
      </trkpt>
      <trkpt lat="49.33362" lon="0.05711">
        <ele>-299.60000610352</ele>
        <time>2022-08-29T13:48:37Z</time>
      </trkpt>
      <trkpt lat="49.33361" lon="0.05691">
        <ele>-301.39999389648</ele>
        <time>2022-08-29T13:48:52Z</time>
      </trkpt>
      <trkpt lat="49.33353" lon="0.05684">
        <ele>-301.79998779297</ele>
        <time>2022-08-29T13:49:10Z</time>
      </trkpt>
      <trkpt lat="49.33351" lon="0.05675">
        <ele>-303</ele>
        <time>2022-08-29T13:49:31Z</time>
      </trkpt>
      <trkpt lat="49.33343" lon="0.05668">
        <ele>-305</ele>
        <time>2022-08-29T13:49:47Z</time>
      </trkpt>
      <trkpt lat="49.33324" lon="0.0565">
        <ele>-308.20001220703</ele>
        <time>2022-08-29T13:50:06Z</time>
      </trkpt>
      <trkpt lat="49.33322" lon="0.0564">
        <ele>-310.20001220703</ele>
        <time>2022-08-29T13:50:20Z</time>
      </trkpt>
      <trkpt lat="49.33317" lon="0.05639">
        <ele>-310.20001220703</ele>
        <time>2022-08-29T13:50:29Z</time>
      </trkpt>
      <trkpt lat="49.33315" lon="0.05632">
        <ele>-310.20001220703</ele>
        <time>2022-08-29T13:50:35Z</time>
      </trkpt>
      <trkpt lat="49.33311" lon="0.05606">
        <ele>-312</ele>
        <time>2022-08-29T13:50:52Z</time>
      </trkpt>
      <trkpt lat="49.33303" lon="0.05575">
        <ele>-315.20001220703</ele>
        <time>2022-08-29T13:51:13Z</time>
      </trkpt>
      <trkpt lat="49.333" lon="0.05547">
        <ele>-316.79998779297</ele>
        <time>2022-08-29T13:51:26Z</time>
      </trkpt>
      <trkpt lat="49.333" lon="0.05533">
        <ele>-317.79998779297</ele>
        <time>2022-08-29T13:51:34Z</time>
      </trkpt>
      <trkpt lat="49.33299" lon="0.05518">
        <ele>-318.60000610352</ele>
        <time>2022-08-29T13:51:44Z</time>
      </trkpt>
      <trkpt lat="49.33298" lon="0.05514">
        <ele>-319</ele>
        <time>2022-08-29T13:51:46Z</time>
      </trkpt>
      <trkpt lat="49.33293" lon="0.0549">
        <ele>-321.60000610352</ele>
        <time>2022-08-29T13:51:59Z</time>
      </trkpt>
      <trkpt lat="49.33287" lon="0.05471">
        <ele>-322.39999389648</ele>
        <time>2022-08-29T13:52:10Z</time>
      </trkpt>
      <trkpt lat="49.33281" lon="0.05453">
        <ele>-324</ele>
        <time>2022-08-29T13:52:23Z</time>
      </trkpt>
      <trkpt lat="49.3328" lon="0.05446">
        <ele>-324.79998779297</ele>
        <time>2022-08-29T13:52:29Z</time>
      </trkpt>
      <trkpt lat="49.33278" lon="0.0544">
        <ele>-325.20001220703</ele>
        <time>2022-08-29T13:52:33Z</time>
      </trkpt>
      <trkpt lat="49.33274" lon="0.05427">
        <ele>-326.20001220703</ele>
        <time>2022-08-29T13:52:43Z</time>
      </trkpt>
      <trkpt lat="49.33268" lon="0.05414">
        <ele>-327.39999389648</ele>
        <time>2022-08-29T13:52:52Z</time>
      </trkpt>
      <trkpt lat="49.33267" lon="0.05409">
        <ele>-329.79998779297</ele>
        <time>2022-08-29T13:53:13Z</time>
      </trkpt>
      <trkpt lat="49.33268" lon="0.05401">
        <ele>-329.79998779297</ele>
        <time>2022-08-29T13:53:32Z</time>
      </trkpt>
      <trkpt lat="49.33264" lon="0.05394">
        <ele>-329.79998779297</ele>
        <time>2022-08-29T13:53:36Z</time>
      </trkpt>
      <trkpt lat="49.3325" lon="0.05368">
        <ele>-331.60000610352</ele>
        <time>2022-08-29T13:53:53Z</time>
      </trkpt>
      <trkpt lat="49.33239" lon="0.05341">
        <ele>-332.60000610352</ele>
        <time>2022-08-29T13:54:10Z</time>
      </trkpt>
      <trkpt lat="49.33233" lon="0.05324">
        <ele>-333.60000610352</ele>
        <time>2022-08-29T13:54:20Z</time>
      </trkpt>
      <trkpt lat="49.33231" lon="0.05318">
        <ele>-334</ele>
        <time>2022-08-29T13:54:25Z</time>
      </trkpt>
      <trkpt lat="49.33229" lon="0.05299">
        <ele>-335.39999389648</ele>
        <time>2022-08-29T13:54:40Z</time>
      </trkpt>
      <trkpt lat="49.33222" lon="0.05283">
        <ele>-335.39999389648</ele>
        <time>2022-08-29T13:54:55Z</time>
      </trkpt>
      <trkpt lat="49.33221" lon="0.0528">
        <ele>-335.60000610352</ele>
        <time>2022-08-29T13:54:57Z</time>
      </trkpt>
      <trkpt lat="49.3321" lon="0.05237">
        <ele>-337.39999389648</ele>
        <time>2022-08-29T13:55:21Z</time>
      </trkpt>
      <trkpt lat="49.33205" lon="0.05209">
        <ele>-338.39999389648</ele>
        <time>2022-08-29T13:55:36Z</time>
      </trkpt>
      <trkpt lat="49.33188" lon="0.05171">
        <ele>-340.20001220703</ele>
        <time>2022-08-29T13:55:57Z</time>
      </trkpt>
      <trkpt lat="49.33186" lon="0.05154">
        <ele>-340.79998779297</ele>
        <time>2022-08-29T13:56:09Z</time>
      </trkpt>
      <trkpt lat="49.3318" lon="0.05118">
        <ele>-341.60000610352</ele>
        <time>2022-08-29T13:56:27Z</time>
      </trkpt>
      <trkpt lat="49.33175" lon="0.05096">
        <ele>-342.79998779297</ele>
        <time>2022-08-29T13:56:39Z</time>
      </trkpt>
      <trkpt lat="49.33172" lon="0.0509">
        <ele>-343.39999389648</ele>
        <time>2022-08-29T13:56:43Z</time>
      </trkpt>
      <trkpt lat="49.33166" lon="0.05074">
        <ele>-343.79998779297</ele>
        <time>2022-08-29T13:56:52Z</time>
      </trkpt>
      <trkpt lat="49.33163" lon="0.05069">
        <ele>-344</ele>
        <time>2022-08-29T13:56:54Z</time>
      </trkpt>
      <trkpt lat="49.33162" lon="0.05066">
        <ele>-344</ele>
        <time>2022-08-29T13:56:55Z</time>
      </trkpt>
      <trkpt lat="49.3316" lon="0.05063">
        <ele>-344</ele>
        <time>2022-08-29T13:56:56Z</time>
      </trkpt>
      <trkpt lat="49.3316" lon="0.0506">
        <ele>-344</ele>
        <time>2022-08-29T13:56:57Z</time>
      </trkpt>
      <trkpt lat="49.33157" lon="0.05053">
        <ele>-344.60000610352</ele>
        <time>2022-08-29T13:57:03Z</time>
      </trkpt>
      <trkpt lat="49.33157" lon="0.05051">
        <ele>-344.60000610352</ele>
        <time>2022-08-29T13:57:04Z</time>
      </trkpt>
      <trkpt lat="49.33157" lon="0.05049">
        <ele>-344.60000610352</ele>
        <time>2022-08-29T13:57:05Z</time>
      </trkpt>
      <trkpt lat="49.33156" lon="0.05048">
        <ele>-344.60000610352</ele>
        <time>2022-08-29T13:57:06Z</time>
      </trkpt>
      <trkpt lat="49.33155" lon="0.05046">
        <ele>-344.60000610352</ele>
        <time>2022-08-29T13:57:07Z</time>
      </trkpt>
      <trkpt lat="49.33147" lon="0.05023">
        <ele>-345.39999389648</ele>
        <time>2022-08-29T13:57:22Z</time>
      </trkpt>
      <trkpt lat="49.33137" lon="0.05005">
        <ele>-346.60000610352</ele>
        <time>2022-08-29T13:57:36Z</time>
      </trkpt>
      <trkpt lat="49.33129" lon="0.0499">
        <ele>-347</ele>
        <time>2022-08-29T13:57:45Z</time>
      </trkpt>
      <trkpt lat="49.33126" lon="0.04982">
        <ele>-348</ele>
        <time>2022-08-29T13:57:52Z</time>
      </trkpt>
      <trkpt lat="49.33126" lon="0.0498">
        <ele>-348</ele>
        <time>2022-08-29T13:57:53Z</time>
      </trkpt>
      <trkpt lat="49.33125" lon="0.04978">
        <ele>-348.20001220703</ele>
        <time>2022-08-29T13:57:54Z</time>
      </trkpt>
      <trkpt lat="49.33126" lon="0.04977">
        <ele>-348.39999389648</ele>
        <time>2022-08-29T13:57:55Z</time>
      </trkpt>
      <trkpt lat="49.33124" lon="0.0497">
        <ele>-349</ele>
        <time>2022-08-29T13:58:02Z</time>
      </trkpt>
      <trkpt lat="49.33123" lon="0.04969">
        <ele>-349</ele>
        <time>2022-08-29T13:58:03Z</time>
      </trkpt>
      <trkpt lat="49.33123" lon="0.04967">
        <ele>-349</ele>
        <time>2022-08-29T13:58:04Z</time>
      </trkpt>
      <trkpt lat="49.33122" lon="0.04966">
        <ele>-349</ele>
        <time>2022-08-29T13:58:05Z</time>
      </trkpt>
      <trkpt lat="49.33113" lon="0.04944">
        <ele>-350.20001220703</ele>
        <time>2022-08-29T13:58:22Z</time>
      </trkpt>
      <trkpt lat="49.33101" lon="0.04917">
        <ele>-351.79998779297</ele>
        <time>2022-08-29T13:58:39Z</time>
      </trkpt>
      <trkpt lat="49.33091" lon="0.04893">
        <ele>-353.20001220703</ele>
        <time>2022-08-29T13:58:55Z</time>
      </trkpt>
      <trkpt lat="49.33077" lon="0.04859">
        <ele>-354.39999389648</ele>
        <time>2022-08-29T13:59:13Z</time>
      </trkpt>
      <trkpt lat="49.33066" lon="0.04828">
        <ele>-356.20001220703</ele>
        <time>2022-08-29T13:59:33Z</time>
      </trkpt>
      <trkpt lat="49.33057" lon="0.04783">
        <ele>-356.79998779297</ele>
        <time>2022-08-29T13:59:53Z</time>
      </trkpt>
      <trkpt lat="49.33052" lon="0.0475">
        <ele>-357.39999389648</ele>
        <time>2022-08-29T14:00:10Z</time>
      </trkpt>
      <trkpt lat="49.33052" lon="0.04748">
        <ele>-357.39999389648</ele>
        <time>2022-08-29T14:00:11Z</time>
      </trkpt>
      <trkpt lat="49.33047" lon="0.04724">
        <ele>-357.60000610352</ele>
        <time>2022-08-29T14:00:24Z</time>
      </trkpt>
      <trkpt lat="49.33043" lon="0.04708">
        <ele>-357.60000610352</ele>
        <time>2022-08-29T14:00:33Z</time>
      </trkpt>
      <trkpt lat="49.33042" lon="0.04707">
        <ele>-357.60000610352</ele>
        <time>2022-08-29T14:00:34Z</time>
      </trkpt>
      <trkpt lat="49.33038" lon="0.04697">
        <ele>-358</ele>
        <time>2022-08-29T14:00:40Z</time>
      </trkpt>
      <trkpt lat="49.33037" lon="0.04695">
        <ele>-358</ele>
        <time>2022-08-29T14:00:41Z</time>
      </trkpt>
      <trkpt lat="49.33036" lon="0.04693">
        <ele>-358.20001220703</ele>
        <time>2022-08-29T14:00:42Z</time>
      </trkpt>
      <trkpt lat="49.33036" lon="0.04691">
        <ele>-358.20001220703</ele>
        <time>2022-08-29T14:00:43Z</time>
      </trkpt>
      <trkpt lat="49.33035" lon="0.04689">
        <ele>-358.20001220703</ele>
        <time>2022-08-29T14:00:44Z</time>
      </trkpt>
      <trkpt lat="49.33027" lon="0.04672">
        <ele>-359</ele>
        <time>2022-08-29T14:00:57Z</time>
      </trkpt>
      <trkpt lat="49.33018" lon="0.04652">
        <ele>-358.60000610352</ele>
        <time>2022-08-29T14:01:10Z</time>
      </trkpt>
      <trkpt lat="49.33017" lon="0.04651">
        <ele>-358.60000610352</ele>
        <time>2022-08-29T14:01:11Z</time>
      </trkpt>
      <trkpt lat="49.33016" lon="0.04649">
        <ele>-358.60000610352</ele>
        <time>2022-08-29T14:01:12Z</time>
      </trkpt>
      <trkpt lat="49.33016" lon="0.04648">
        <ele>-358.60000610352</ele>
        <time>2022-08-29T14:01:13Z</time>
      </trkpt>
      <trkpt lat="49.33015" lon="0.04646">
        <ele>-358.39999389648</ele>
        <time>2022-08-29T14:01:14Z</time>
      </trkpt>
      <trkpt lat="49.33015" lon="0.04644">
        <ele>-358.39999389648</ele>
        <time>2022-08-29T14:01:15Z</time>
      </trkpt>
      <trkpt lat="49.33014" lon="0.04642">
        <ele>-358.39999389648</ele>
        <time>2022-08-29T14:01:16Z</time>
      </trkpt>
      <trkpt lat="49.32998" lon="0.04615">
        <ele>-358.39999389648</ele>
        <time>2022-08-29T14:01:33Z</time>
      </trkpt>
      <trkpt lat="49.32983" lon="0.04592">
        <ele>-358.39999389648</ele>
        <time>2022-08-29T14:01:48Z</time>
      </trkpt>
      <trkpt lat="49.32972" lon="0.04574">
        <ele>-359.20001220703</ele>
        <time>2022-08-29T14:02:02Z</time>
      </trkpt>
      <trkpt lat="49.32972" lon="0.04572">
        <ele>-359.20001220703</ele>
        <time>2022-08-29T14:02:03Z</time>
      </trkpt>
      <trkpt lat="49.32971" lon="0.0457">
        <ele>-359.20001220703</ele>
        <time>2022-08-29T14:02:04Z</time>
      </trkpt>
      <trkpt lat="49.3297" lon="0.04569">
        <ele>-359.39999389648</ele>
        <time>2022-08-29T14:02:05Z</time>
      </trkpt>
      <trkpt lat="49.32969" lon="0.04568">
        <ele>-359.39999389648</ele>
        <time>2022-08-29T14:02:06Z</time>
      </trkpt>
      <trkpt lat="49.32954" lon="0.04553">
        <ele>-359.60000610352</ele>
        <time>2022-08-29T14:02:22Z</time>
      </trkpt>
      <trkpt lat="49.32939" lon="0.04527">
        <ele>-359.60000610352</ele>
        <time>2022-08-29T14:02:44Z</time>
      </trkpt>
      <trkpt lat="49.3292" lon="0.04488">
        <ele>-359.39999389648</ele>
        <time>2022-08-29T14:03:08Z</time>
      </trkpt>
      <trkpt lat="49.32912" lon="0.04473">
        <ele>-359.20001220703</ele>
        <time>2022-08-29T14:03:18Z</time>
      </trkpt>
      <trkpt lat="49.32889" lon="0.04433">
        <ele>-358</ele>
        <time>2022-08-29T14:03:42Z</time>
      </trkpt>
      <trkpt lat="49.32878" lon="0.04411">
        <ele>-357.39999389648</ele>
        <time>2022-08-29T14:03:55Z</time>
      </trkpt>
      <trkpt lat="49.32863" lon="0.04385">
        <ele>-356.39999389648</ele>
        <time>2022-08-29T14:04:13Z</time>
      </trkpt>
      <trkpt lat="49.32848" lon="0.04359">
        <ele>-356</ele>
        <time>2022-08-29T14:04:31Z</time>
      </trkpt>
      <trkpt lat="49.32836" lon="0.04338">
        <ele>-355.60000610352</ele>
        <time>2022-08-29T14:04:45Z</time>
      </trkpt>
      <trkpt lat="49.32825" lon="0.04321">
        <ele>-355</ele>
        <time>2022-08-29T14:04:58Z</time>
      </trkpt>
      <trkpt lat="49.32816" lon="0.04303">
        <ele>-354.39999389648</ele>
        <time>2022-08-29T14:05:09Z</time>
      </trkpt>
      <trkpt lat="49.32815" lon="0.04301">
        <ele>-354.39999389648</ele>
        <time>2022-08-29T14:05:10Z</time>
      </trkpt>
      <trkpt lat="49.32814" lon="0.04298">
        <ele>-354.39999389648</ele>
        <time>2022-08-29T14:05:11Z</time>
      </trkpt>
      <trkpt lat="49.32798" lon="0.04271">
        <ele>-354.39999389648</ele>
        <time>2022-08-29T14:05:27Z</time>
      </trkpt>
      <trkpt lat="49.32793" lon="0.04265">
        <ele>-354.39999389648</ele>
        <time>2022-08-29T14:05:34Z</time>
      </trkpt>
      <trkpt lat="49.32792" lon="0.04263">
        <ele>-354.39999389648</ele>
        <time>2022-08-29T14:05:35Z</time>
      </trkpt>
      <trkpt lat="49.32791" lon="0.04261">
        <ele>-354.39999389648</ele>
        <time>2022-08-29T14:05:36Z</time>
      </trkpt>
      <trkpt lat="49.32776" lon="0.04238">
        <ele>-354.39999389648</ele>
        <time>2022-08-29T14:05:52Z</time>
      </trkpt>
      <trkpt lat="49.32763" lon="0.04214">
        <ele>-354</ele>
        <time>2022-08-29T14:06:11Z</time>
      </trkpt>
      <trkpt lat="49.32758" lon="0.04208">
        <ele>-354.20001220703</ele>
        <time>2022-08-29T14:06:16Z</time>
      </trkpt>
      <trkpt lat="49.32757" lon="0.04206">
        <ele>-354.20001220703</ele>
        <time>2022-08-29T14:06:17Z</time>
      </trkpt>
      <trkpt lat="49.32742" lon="0.04177">
        <ele>-354.60000610352</ele>
        <time>2022-08-29T14:06:33Z</time>
      </trkpt>
      <trkpt lat="49.32742" lon="0.04166">
        <ele>-354.60000610352</ele>
        <time>2022-08-29T14:06:39Z</time>
      </trkpt>
      <trkpt lat="49.32743" lon="0.04165">
        <ele>-354.60000610352</ele>
        <time>2022-08-29T14:06:40Z</time>
      </trkpt>
      <trkpt lat="49.32745" lon="0.04164">
        <ele>-354.60000610352</ele>
        <time>2022-08-29T14:06:41Z</time>
      </trkpt>
      <trkpt lat="49.32747" lon="0.04163">
        <ele>-354.60000610352</ele>
        <time>2022-08-29T14:06:42Z</time>
      </trkpt>
      <trkpt lat="49.32748" lon="0.04162">
        <ele>-354.60000610352</ele>
        <time>2022-08-29T14:06:43Z</time>
      </trkpt>
      <trkpt lat="49.3275" lon="0.04161">
        <ele>-354.39999389648</ele>
        <time>2022-08-29T14:06:44Z</time>
      </trkpt>
      <trkpt lat="49.32751" lon="0.04159">
        <ele>-354.39999389648</ele>
        <time>2022-08-29T14:06:45Z</time>
      </trkpt>
      <trkpt lat="49.32752" lon="0.04157">
        <ele>-354.39999389648</ele>
        <time>2022-08-29T14:06:46Z</time>
      </trkpt>
      <trkpt lat="49.32753" lon="0.04156">
        <ele>-354.39999389648</ele>
        <time>2022-08-29T14:06:47Z</time>
      </trkpt>
      <trkpt lat="49.32754" lon="0.04155">
        <ele>-354.39999389648</ele>
        <time>2022-08-29T14:06:48Z</time>
      </trkpt>
      <trkpt lat="49.3276" lon="0.0415">
        <ele>-354.20001220703</ele>
        <time>2022-08-29T14:06:54Z</time>
      </trkpt>
      <trkpt lat="49.32761" lon="0.04149">
        <ele>-354.20001220703</ele>
        <time>2022-08-29T14:06:55Z</time>
      </trkpt>
      <trkpt lat="49.32762" lon="0.04149">
        <ele>-354.20001220703</ele>
        <time>2022-08-29T14:06:56Z</time>
      </trkpt>
      <trkpt lat="49.32765" lon="0.04147">
        <ele>-354.20001220703</ele>
        <time>2022-08-29T14:06:58Z</time>
      </trkpt>
      <trkpt lat="49.32766" lon="0.04145">
        <ele>-354.20001220703</ele>
        <time>2022-08-29T14:06:59Z</time>
      </trkpt>
      <trkpt lat="49.32767" lon="0.04144">
        <ele>-354.20001220703</ele>
        <time>2022-08-29T14:07:00Z</time>
      </trkpt>
      <trkpt lat="49.32768" lon="0.04143">
        <ele>-354.20001220703</ele>
        <time>2022-08-29T14:07:01Z</time>
      </trkpt>
      <trkpt lat="49.32769" lon="0.04142">
        <ele>-354.39999389648</ele>
        <time>2022-08-29T14:07:02Z</time>
      </trkpt>
      <trkpt lat="49.32787" lon="0.04135">
        <ele>-354.79998779297</ele>
        <time>2022-08-29T14:07:17Z</time>
      </trkpt>
      <trkpt lat="49.32805" lon="0.04131">
        <ele>-355</ele>
        <time>2022-08-29T14:07:27Z</time>
      </trkpt>
      <trkpt lat="49.32812" lon="0.04129">
        <ele>-355</ele>
        <time>2022-08-29T14:07:35Z</time>
      </trkpt>
      <trkpt lat="49.32814" lon="0.04129">
        <ele>-355.20001220703</ele>
        <time>2022-08-29T14:07:36Z</time>
      </trkpt>
      <trkpt lat="49.32815" lon="0.04129">
        <ele>-355.20001220703</ele>
        <time>2022-08-29T14:07:37Z</time>
      </trkpt>
      <trkpt lat="49.32835" lon="0.04122">
        <ele>-355.60000610352</ele>
        <time>2022-08-29T14:07:54Z</time>
      </trkpt>
      <trkpt lat="49.32853" lon="0.04113">
        <ele>-356.60000610352</ele>
        <time>2022-08-29T14:08:11Z</time>
      </trkpt>
      <trkpt lat="49.32872" lon="0.04099">
        <ele>-357</ele>
        <time>2022-08-29T14:08:28Z</time>
      </trkpt>
      <trkpt lat="49.32899" lon="0.04077">
        <ele>-357.60000610352</ele>
        <time>2022-08-29T14:08:52Z</time>
      </trkpt>
      <trkpt lat="49.32926" lon="0.04051">
        <ele>-358.79998779297</ele>
        <time>2022-08-29T14:09:15Z</time>
      </trkpt>
      <trkpt lat="49.32949" lon="0.04037">
        <ele>-360.60000610352</ele>
        <time>2022-08-29T14:09:36Z</time>
      </trkpt>
      <trkpt lat="49.32975" lon="0.04029">
        <ele>-362.79998779297</ele>
        <time>2022-08-29T14:09:56Z</time>
      </trkpt>
      <trkpt lat="49.32992" lon="0.04024">
        <ele>-363</ele>
        <time>2022-08-29T14:10:10Z</time>
      </trkpt>
      <trkpt lat="49.33012" lon="0.04013">
        <ele>-363.79998779297</ele>
        <time>2022-08-29T14:10:27Z</time>
      </trkpt>
      <trkpt lat="49.33027" lon="0.03997">
        <ele>-364.20001220703</ele>
        <time>2022-08-29T14:10:42Z</time>
      </trkpt>
      <trkpt lat="49.33038" lon="0.03982">
        <ele>-364.39999389648</ele>
        <time>2022-08-29T14:10:53Z</time>
      </trkpt>
      <trkpt lat="49.3305" lon="0.03965">
        <ele>-364.39999389648</ele>
        <time>2022-08-29T14:11:03Z</time>
      </trkpt>
      <trkpt lat="49.3305" lon="0.03959">
        <ele>-364.39999389648</ele>
        <time>2022-08-29T14:11:09Z</time>
      </trkpt>
      <trkpt lat="49.33051" lon="0.03957">
        <ele>-364.39999389648</ele>
        <time>2022-08-29T14:11:10Z</time>
      </trkpt>
      <trkpt lat="49.33051" lon="0.03955">
        <ele>-364.60000610352</ele>
        <time>2022-08-29T14:11:11Z</time>
      </trkpt>
      <trkpt lat="49.33053" lon="0.03951">
        <ele>-364.60000610352</ele>
        <time>2022-08-29T14:11:15Z</time>
      </trkpt>
      <trkpt lat="49.33055" lon="0.03948">
        <ele>-364.60000610352</ele>
        <time>2022-08-29T14:11:16Z</time>
      </trkpt>
      <trkpt lat="49.33057" lon="0.03945">
        <ele>-364.60000610352</ele>
        <time>2022-08-29T14:11:17Z</time>
      </trkpt>
      <trkpt lat="49.3306" lon="0.03942">
        <ele>-364.79998779297</ele>
        <time>2022-08-29T14:11:18Z</time>
      </trkpt>
      <trkpt lat="49.33061" lon="0.0394">
        <ele>-364.79998779297</ele>
        <time>2022-08-29T14:11:19Z</time>
      </trkpt>
      <trkpt lat="49.33062" lon="0.03938">
        <ele>-364.79998779297</ele>
        <time>2022-08-29T14:11:20Z</time>
      </trkpt>
      <trkpt lat="49.33064" lon="0.03922">
        <ele>-365.39999389648</ele>
        <time>2022-08-29T14:11:32Z</time>
      </trkpt>
      <trkpt lat="49.33064" lon="0.03919">
        <ele>-365.39999389648</ele>
        <time>2022-08-29T14:11:33Z</time>
      </trkpt>
      <trkpt lat="49.33064" lon="0.03915">
        <ele>-365.39999389648</ele>
        <time>2022-08-29T14:11:34Z</time>
      </trkpt>
      <trkpt lat="49.33065" lon="0.03912">
        <ele>-365.39999389648</ele>
        <time>2022-08-29T14:11:35Z</time>
      </trkpt>
      <trkpt lat="49.33066" lon="0.0391">
        <ele>-365.39999389648</ele>
        <time>2022-08-29T14:11:36Z</time>
      </trkpt>
      <trkpt lat="49.3307" lon="0.03896">
        <ele>-365.20001220703</ele>
        <time>2022-08-29T14:11:48Z</time>
      </trkpt>
      <trkpt lat="49.33071" lon="0.03894">
        <ele>-365.20001220703</ele>
        <time>2022-08-29T14:11:49Z</time>
      </trkpt>
      <trkpt lat="49.33072" lon="0.03891">
        <ele>-365.20001220703</ele>
        <time>2022-08-29T14:11:50Z</time>
      </trkpt>
      <trkpt lat="49.33072" lon="0.03887">
        <ele>-365.20001220703</ele>
        <time>2022-08-29T14:11:51Z</time>
      </trkpt>
      <trkpt lat="49.33072" lon="0.03883">
        <ele>-365.20001220703</ele>
        <time>2022-08-29T14:11:52Z</time>
      </trkpt>
      <trkpt lat="49.33072" lon="0.0388">
        <ele>-365.20001220703</ele>
        <time>2022-08-29T14:11:53Z</time>
      </trkpt>
      <trkpt lat="49.33073" lon="0.03877">
        <ele>-365.20001220703</ele>
        <time>2022-08-29T14:11:54Z</time>
      </trkpt>
      <trkpt lat="49.33076" lon="0.03871">
        <ele>-365.39999389648</ele>
        <time>2022-08-29T14:12:01Z</time>
      </trkpt>
      <trkpt lat="49.3308" lon="0.03858">
        <ele>-365.39999389648</ele>
        <time>2022-08-29T14:12:09Z</time>
      </trkpt>
      <trkpt lat="49.33082" lon="0.03853">
        <ele>-365.39999389648</ele>
        <time>2022-08-29T14:12:11Z</time>
      </trkpt>
      <trkpt lat="49.33089" lon="0.03843">
        <ele>-365.39999389648</ele>
        <time>2022-08-29T14:12:19Z</time>
      </trkpt>
      <trkpt lat="49.33093" lon="0.03841">
        <ele>-365.39999389648</ele>
        <time>2022-08-29T14:12:22Z</time>
      </trkpt>
      <trkpt lat="49.33094" lon="0.03839">
        <ele>-365.39999389648</ele>
        <time>2022-08-29T14:12:23Z</time>
      </trkpt>
      <trkpt lat="49.33094" lon="0.03836">
        <ele>-365.39999389648</ele>
        <time>2022-08-29T14:12:24Z</time>
      </trkpt>
      <trkpt lat="49.33105" lon="0.03823">
        <ele>-365.39999389648</ele>
        <time>2022-08-29T14:12:34Z</time>
      </trkpt>
      <trkpt lat="49.33107" lon="0.03821">
        <ele>-365.39999389648</ele>
        <time>2022-08-29T14:12:37Z</time>
      </trkpt>
      <trkpt lat="49.33108" lon="0.0382">
        <ele>-365.39999389648</ele>
        <time>2022-08-29T14:12:38Z</time>
      </trkpt>
      <trkpt lat="49.33111" lon="0.03815">
        <ele>-365.39999389648</ele>
        <time>2022-08-29T14:12:42Z</time>
      </trkpt>
      <trkpt lat="49.33113" lon="0.03812">
        <ele>-365.39999389648</ele>
        <time>2022-08-29T14:12:43Z</time>
      </trkpt>
      <trkpt lat="49.33114" lon="0.0381">
        <ele>-365.39999389648</ele>
        <time>2022-08-29T14:12:44Z</time>
      </trkpt>
      <trkpt lat="49.33119" lon="0.038">
        <ele>-365.39999389648</ele>
        <time>2022-08-29T14:12:53Z</time>
      </trkpt>
      <trkpt lat="49.3312" lon="0.03799">
        <ele>-365.39999389648</ele>
        <time>2022-08-29T14:12:54Z</time>
      </trkpt>
      <trkpt lat="49.33122" lon="0.03798">
        <ele>-365.39999389648</ele>
        <time>2022-08-29T14:12:55Z</time>
      </trkpt>
      <trkpt lat="49.33123" lon="0.03798">
        <ele>-365.39999389648</ele>
        <time>2022-08-29T14:12:56Z</time>
      </trkpt>
      <trkpt lat="49.33124" lon="0.03797">
        <ele>-365.39999389648</ele>
        <time>2022-08-29T14:12:57Z</time>
      </trkpt>
      <trkpt lat="49.33125" lon="0.03796">
        <ele>-365.39999389648</ele>
        <time>2022-08-29T14:12:58Z</time>
      </trkpt>
      <trkpt lat="49.33139" lon="0.03776">
        <ele>-365.20001220703</ele>
        <time>2022-08-29T14:13:13Z</time>
      </trkpt>
      <trkpt lat="49.33154" lon="0.03756">
        <ele>-364.79998779297</ele>
        <time>2022-08-29T14:13:28Z</time>
      </trkpt>
      <trkpt lat="49.33171" lon="0.03743">
        <ele>-364.79998779297</ele>
        <time>2022-08-29T14:13:38Z</time>
      </trkpt>
      <trkpt lat="49.33172" lon="0.03741">
        <ele>-364.79998779297</ele>
        <time>2022-08-29T14:13:40Z</time>
      </trkpt>
      <trkpt lat="49.33175" lon="0.03734">
        <ele>-365</ele>
        <time>2022-08-29T14:13:46Z</time>
      </trkpt>
      <trkpt lat="49.33176" lon="0.03732">
        <ele>-365.20001220703</ele>
        <time>2022-08-29T14:13:48Z</time>
      </trkpt>
      <trkpt lat="49.33176" lon="0.0373">
        <ele>-365.20001220703</ele>
        <time>2022-08-29T14:13:49Z</time>
      </trkpt>
      <trkpt lat="49.33177" lon="0.03727">
        <ele>-365.20001220703</ele>
        <time>2022-08-29T14:13:50Z</time>
      </trkpt>
      <trkpt lat="49.33178" lon="0.03725">
        <ele>-365.39999389648</ele>
        <time>2022-08-29T14:13:51Z</time>
      </trkpt>
      <trkpt lat="49.33179" lon="0.03723">
        <ele>-365.39999389648</ele>
        <time>2022-08-29T14:13:52Z</time>
      </trkpt>
      <trkpt lat="49.3318" lon="0.03715">
        <ele>-365.79998779297</ele>
        <time>2022-08-29T14:14:00Z</time>
      </trkpt>
      <trkpt lat="49.33181" lon="0.03713">
        <ele>-365.79998779297</ele>
        <time>2022-08-29T14:14:01Z</time>
      </trkpt>
      <trkpt lat="49.33181" lon="0.0371">
        <ele>-365.79998779297</ele>
        <time>2022-08-29T14:14:02Z</time>
      </trkpt>
      <trkpt lat="49.33183" lon="0.03705">
        <ele>-365.79998779297</ele>
        <time>2022-08-29T14:14:05Z</time>
      </trkpt>
      <trkpt lat="49.33183" lon="0.03703">
        <ele>-365.79998779297</ele>
        <time>2022-08-29T14:14:06Z</time>
      </trkpt>
      <trkpt lat="49.33185" lon="0.03697">
        <ele>-365.60000610352</ele>
        <time>2022-08-29T14:14:08Z</time>
      </trkpt>
      <trkpt lat="49.33186" lon="0.03694">
        <ele>-365.60000610352</ele>
        <time>2022-08-29T14:14:09Z</time>
      </trkpt>
      <trkpt lat="49.33187" lon="0.0369">
        <ele>-365.60000610352</ele>
        <time>2022-08-29T14:14:10Z</time>
      </trkpt>
      <trkpt lat="49.33187" lon="0.03688">
        <ele>-365.60000610352</ele>
        <time>2022-08-29T14:14:11Z</time>
      </trkpt>
      <trkpt lat="49.33193" lon="0.03661">
        <ele>-365.39999389648</ele>
        <time>2022-08-29T14:14:25Z</time>
      </trkpt>
      <trkpt lat="49.33194" lon="0.03647">
        <ele>-365.60000610352</ele>
        <time>2022-08-29T14:14:35Z</time>
      </trkpt>
      <trkpt lat="49.33194" lon="0.03643">
        <ele>-365.60000610352</ele>
        <time>2022-08-29T14:14:37Z</time>
      </trkpt>
      <trkpt lat="49.33194" lon="0.03637">
        <ele>-365.60000610352</ele>
        <time>2022-08-29T14:14:41Z</time>
      </trkpt>
      <trkpt lat="49.33194" lon="0.03635">
        <ele>-365.60000610352</ele>
        <time>2022-08-29T14:14:42Z</time>
      </trkpt>
      <trkpt lat="49.33194" lon="0.03632">
        <ele>-365.60000610352</ele>
        <time>2022-08-29T14:14:43Z</time>
      </trkpt>
      <trkpt lat="49.33194" lon="0.03628">
        <ele>-365.60000610352</ele>
        <time>2022-08-29T14:14:44Z</time>
      </trkpt>
      <trkpt lat="49.33194" lon="0.03625">
        <ele>-365.60000610352</ele>
        <time>2022-08-29T14:14:45Z</time>
      </trkpt>
      <trkpt lat="49.33193" lon="0.03618">
        <ele>-365.39999389648</ele>
        <time>2022-08-29T14:14:51Z</time>
      </trkpt>
      <trkpt lat="49.33193" lon="0.03616">
        <ele>-365.39999389648</ele>
        <time>2022-08-29T14:14:52Z</time>
      </trkpt>
      <trkpt lat="49.33193" lon="0.0361">
        <ele>-365.39999389648</ele>
        <time>2022-08-29T14:14:55Z</time>
      </trkpt>
      <trkpt lat="49.33193" lon="0.03607">
        <ele>-365.39999389648</ele>
        <time>2022-08-29T14:14:56Z</time>
      </trkpt>
      <trkpt lat="49.33192" lon="0.03604">
        <ele>-365.39999389648</ele>
        <time>2022-08-29T14:14:57Z</time>
      </trkpt>
      <trkpt lat="49.33192" lon="0.03601">
        <ele>-365.39999389648</ele>
        <time>2022-08-29T14:14:58Z</time>
      </trkpt>
      <trkpt lat="49.33192" lon="0.03597">
        <ele>-365.39999389648</ele>
        <time>2022-08-29T14:14:59Z</time>
      </trkpt>
      <trkpt lat="49.33192" lon="0.03595">
        <ele>-365.39999389648</ele>
        <time>2022-08-29T14:15:00Z</time>
      </trkpt>
      <trkpt lat="49.33193" lon="0.03584">
        <ele>-365.39999389648</ele>
        <time>2022-08-29T14:15:08Z</time>
      </trkpt>
      <trkpt lat="49.33194" lon="0.03582">
        <ele>-365.39999389648</ele>
        <time>2022-08-29T14:15:09Z</time>
      </trkpt>
      <trkpt lat="49.33195" lon="0.03579">
        <ele>-365.39999389648</ele>
        <time>2022-08-29T14:15:11Z</time>
      </trkpt>
      <trkpt lat="49.33196" lon="0.03576">
        <ele>-365.39999389648</ele>
        <time>2022-08-29T14:15:12Z</time>
      </trkpt>
      <trkpt lat="49.33197" lon="0.03573">
        <ele>-365.39999389648</ele>
        <time>2022-08-29T14:15:13Z</time>
      </trkpt>
      <trkpt lat="49.33199" lon="0.03569">
        <ele>-365.39999389648</ele>
        <time>2022-08-29T14:15:14Z</time>
      </trkpt>
      <trkpt lat="49.332" lon="0.03567">
        <ele>-365.39999389648</ele>
        <time>2022-08-29T14:15:15Z</time>
      </trkpt>
      <trkpt lat="49.33202" lon="0.03562">
        <ele>-365.39999389648</ele>
        <time>2022-08-29T14:15:19Z</time>
      </trkpt>
      <trkpt lat="49.33203" lon="0.0356">
        <ele>-365.39999389648</ele>
        <time>2022-08-29T14:15:20Z</time>
      </trkpt>
      <trkpt lat="49.33204" lon="0.03558">
        <ele>-365.39999389648</ele>
        <time>2022-08-29T14:15:21Z</time>
      </trkpt>
      <trkpt lat="49.33205" lon="0.03555">
        <ele>-365.39999389648</ele>
        <time>2022-08-29T14:15:22Z</time>
      </trkpt>
      <trkpt lat="49.33206" lon="0.03552">
        <ele>-365.39999389648</ele>
        <time>2022-08-29T14:15:23Z</time>
      </trkpt>
      <trkpt lat="49.33207" lon="0.03547">
        <ele>-365.60000610352</ele>
        <time>2022-08-29T14:15:28Z</time>
      </trkpt>
      <trkpt lat="49.33206" lon="0.03544">
        <ele>-365.60000610352</ele>
        <time>2022-08-29T14:15:29Z</time>
      </trkpt>
      <trkpt lat="49.33206" lon="0.03541">
        <ele>-365.60000610352</ele>
        <time>2022-08-29T14:15:30Z</time>
      </trkpt>
      <trkpt lat="49.33205" lon="0.03538">
        <ele>-365.60000610352</ele>
        <time>2022-08-29T14:15:31Z</time>
      </trkpt>
      <trkpt lat="49.33205" lon="0.03531">
        <ele>-365.79998779297</ele>
        <time>2022-08-29T14:15:36Z</time>
      </trkpt>
      <trkpt lat="49.33205" lon="0.0353">
        <ele>-365.79998779297</ele>
        <time>2022-08-29T14:15:37Z</time>
      </trkpt>
      <trkpt lat="49.33202" lon="0.03525">
        <ele>-365.79998779297</ele>
        <time>2022-08-29T14:15:43Z</time>
      </trkpt>
      <trkpt lat="49.33201" lon="0.03524">
        <ele>-365.79998779297</ele>
        <time>2022-08-29T14:15:44Z</time>
      </trkpt>
      <trkpt lat="49.332" lon="0.03523">
        <ele>-365.79998779297</ele>
        <time>2022-08-29T14:15:46Z</time>
      </trkpt>
      <trkpt lat="49.33198" lon="0.03519">
        <ele>-365.79998779297</ele>
        <time>2022-08-29T14:15:47Z</time>
      </trkpt>
      <trkpt lat="49.33196" lon="0.03516">
        <ele>-366</ele>
        <time>2022-08-29T14:15:55Z</time>
      </trkpt>
      <trkpt lat="49.33195" lon="0.03514">
        <ele>-366</ele>
        <time>2022-08-29T14:15:56Z</time>
      </trkpt>
      <trkpt lat="49.33196" lon="0.03507">
        <ele>-366</ele>
        <time>2022-08-29T14:16:06Z</time>
      </trkpt>
      <trkpt lat="49.33193" lon="0.03504">
        <ele>-366.20001220703</ele>
        <time>2022-08-29T14:16:12Z</time>
      </trkpt>
      <trkpt lat="49.33182" lon="0.03498">
        <ele>-366.20001220703</ele>
        <time>2022-08-29T14:16:23Z</time>
      </trkpt>
      <trkpt lat="49.33179" lon="0.03498">
        <ele>-366</ele>
        <time>2022-08-29T14:16:25Z</time>
      </trkpt>
      <trkpt lat="49.33175" lon="0.03498">
        <ele>-366</ele>
        <time>2022-08-29T14:16:29Z</time>
      </trkpt>
      <trkpt lat="49.33169" lon="0.03498">
        <ele>-366</ele>
        <time>2022-08-29T14:16:33Z</time>
      </trkpt>
      <trkpt lat="49.33159" lon="0.03489">
        <ele>-365.79998779297</ele>
        <time>2022-08-29T14:16:48Z</time>
      </trkpt>
      <trkpt lat="49.33157" lon="0.03488">
        <ele>-365.79998779297</ele>
        <time>2022-08-29T14:16:51Z</time>
      </trkpt>
      <trkpt lat="49.33153" lon="0.03487">
        <ele>-365.79998779297</ele>
        <time>2022-08-29T14:16:53Z</time>
      </trkpt>
      <trkpt lat="49.3315" lon="0.03485">
        <ele>-365.79998779297</ele>
        <time>2022-08-29T14:16:56Z</time>
      </trkpt>
      <trkpt lat="49.3314" lon="0.03482">
        <ele>-365.39999389648</ele>
        <time>2022-08-29T14:17:12Z</time>
      </trkpt>
      <trkpt lat="49.33139" lon="0.03479">
        <ele>-365.60000610352</ele>
        <time>2022-08-29T14:17:34Z</time>
      </trkpt>
      <trkpt lat="49.33134" lon="0.03471">
        <ele>-365.79998779297</ele>
        <time>2022-08-29T14:17:39Z</time>
      </trkpt>
      <trkpt lat="49.33123" lon="0.03445">
        <ele>-366.20001220703</ele>
        <time>2022-08-29T14:17:59Z</time>
      </trkpt>
      <trkpt lat="49.33121" lon="0.03428">
        <ele>-366.20001220703</ele>
        <time>2022-08-29T14:18:06Z</time>
      </trkpt>
      <trkpt lat="49.33116" lon="0.03401">
        <ele>-366.20001220703</ele>
        <time>2022-08-29T14:18:18Z</time>
      </trkpt>
      <trkpt lat="49.33113" lon="0.03379">
        <ele>-366.20001220703</ele>
        <time>2022-08-29T14:18:29Z</time>
      </trkpt>
      <trkpt lat="49.33103" lon="0.03342">
        <ele>-366.20001220703</ele>
        <time>2022-08-29T14:18:50Z</time>
      </trkpt>
      <trkpt lat="49.33093" lon="0.03308">
        <ele>-366.20001220703</ele>
        <time>2022-08-29T14:19:03Z</time>
      </trkpt>
      <trkpt lat="49.33088" lon="0.03288">
        <ele>-366</ele>
        <time>2022-08-29T14:19:14Z</time>
      </trkpt>
      <trkpt lat="49.33081" lon="0.03263">
        <ele>-365.79998779297</ele>
        <time>2022-08-29T14:19:29Z</time>
      </trkpt>
      <trkpt lat="49.33074" lon="0.03236">
        <ele>-366</ele>
        <time>2022-08-29T14:19:41Z</time>
      </trkpt>
      <trkpt lat="49.33064" lon="0.03205">
        <ele>-366</ele>
        <time>2022-08-29T14:20:01Z</time>
      </trkpt>
      <trkpt lat="49.33054" lon="0.03167">
        <ele>-365.60000610352</ele>
        <time>2022-08-29T14:20:16Z</time>
      </trkpt>
      <trkpt lat="49.33047" lon="0.03143">
        <ele>-365.60000610352</ele>
        <time>2022-08-29T14:20:31Z</time>
      </trkpt>
      <trkpt lat="49.33036" lon="0.03109">
        <ele>-365.60000610352</ele>
        <time>2022-08-29T14:20:52Z</time>
      </trkpt>
      <trkpt lat="49.33035" lon="0.03104">
        <ele>-365.60000610352</ele>
        <time>2022-08-29T14:20:55Z</time>
      </trkpt>
      <trkpt lat="49.33026" lon="0.03077">
        <ele>-365.79998779297</ele>
        <time>2022-08-29T14:21:05Z</time>
      </trkpt>
      <trkpt lat="49.33023" lon="0.03057">
        <ele>-365.79998779297</ele>
        <time>2022-08-29T14:21:19Z</time>
      </trkpt>
      <trkpt lat="49.33021" lon="0.03051">
        <ele>-365.79998779297</ele>
        <time>2022-08-29T14:21:23Z</time>
      </trkpt>
      <trkpt lat="49.33014" lon="0.03025">
        <ele>-366</ele>
        <time>2022-08-29T14:21:34Z</time>
      </trkpt>
      <trkpt lat="49.33009" lon="0.03005">
        <ele>-365.79998779297</ele>
        <time>2022-08-29T14:21:47Z</time>
      </trkpt>
      <trkpt lat="49.33008" lon="0.03002">
        <ele>-365.79998779297</ele>
        <time>2022-08-29T14:21:48Z</time>
      </trkpt>
      <trkpt lat="49.33007" lon="0.03">
        <ele>-365.79998779297</ele>
        <time>2022-08-29T14:21:49Z</time>
      </trkpt>
      <trkpt lat="49.33006" lon="0.02998">
        <ele>-365.79998779297</ele>
        <time>2022-08-29T14:21:50Z</time>
      </trkpt>
      <trkpt lat="49.33005" lon="0.02996">
        <ele>-365.79998779297</ele>
        <time>2022-08-29T14:21:51Z</time>
      </trkpt>
      <trkpt lat="49.32996" lon="0.02969">
        <ele>-365.79998779297</ele>
        <time>2022-08-29T14:22:01Z</time>
      </trkpt>
      <trkpt lat="49.32995" lon="0.02967">
        <ele>-365.79998779297</ele>
        <time>2022-08-29T14:22:02Z</time>
      </trkpt>
      <trkpt lat="49.32994" lon="0.02964">
        <ele>-365.79998779297</ele>
        <time>2022-08-29T14:22:03Z</time>
      </trkpt>
      <trkpt lat="49.32994" lon="0.02962">
        <ele>-365.79998779297</ele>
        <time>2022-08-29T14:22:04Z</time>
      </trkpt>
      <trkpt lat="49.32993" lon="0.0296">
        <ele>-365.79998779297</ele>
        <time>2022-08-29T14:22:05Z</time>
      </trkpt>
      <trkpt lat="49.32988" lon="0.02943">
        <ele>-365.79998779297</ele>
        <time>2022-08-29T14:22:19Z</time>
      </trkpt>
      <trkpt lat="49.32975" lon="0.0291">
        <ele>-365.39999389648</ele>
        <time>2022-08-29T14:22:36Z</time>
      </trkpt>
      <trkpt lat="49.3297" lon="0.02895">
        <ele>-365.60000610352</ele>
        <time>2022-08-29T14:22:48Z</time>
      </trkpt>
      <trkpt lat="49.3297" lon="0.02892">
        <ele>-365.60000610352</ele>
        <time>2022-08-29T14:22:49Z</time>
      </trkpt>
      <trkpt lat="49.32968" lon="0.02886">
        <ele>-365.60000610352</ele>
        <time>2022-08-29T14:22:51Z</time>
      </trkpt>
      <trkpt lat="49.32967" lon="0.02883">
        <ele>-365.60000610352</ele>
        <time>2022-08-29T14:22:52Z</time>
      </trkpt>
      <trkpt lat="49.32961" lon="0.02862">
        <ele>-365.60000610352</ele>
        <time>2022-08-29T14:23:04Z</time>
      </trkpt>
      <trkpt lat="49.32945" lon="0.0283">
        <ele>-365.20001220703</ele>
        <time>2022-08-29T14:23:21Z</time>
      </trkpt>
      <trkpt lat="49.32937" lon="0.02814">
        <ele>-365.60000610352</ele>
        <time>2022-08-29T14:23:34Z</time>
      </trkpt>
      <trkpt lat="49.32921" lon="0.02789">
        <ele>-365.60000610352</ele>
        <time>2022-08-29T14:23:51Z</time>
      </trkpt>
      <trkpt lat="49.3291" lon="0.02756">
        <ele>-365.60000610352</ele>
        <time>2022-08-29T14:24:05Z</time>
      </trkpt>
      <trkpt lat="49.32911" lon="0.02741">
        <ele>-365.79998779297</ele>
        <time>2022-08-29T14:24:16Z</time>
      </trkpt>
      <trkpt lat="49.32909" lon="0.02738">
        <ele>-365.79998779297</ele>
        <time>2022-08-29T14:24:19Z</time>
      </trkpt>
      <trkpt lat="49.32908" lon="0.02737">
        <ele>-365.79998779297</ele>
        <time>2022-08-29T14:24:20Z</time>
      </trkpt>
      <trkpt lat="49.32907" lon="0.02736">
        <ele>-365.79998779297</ele>
        <time>2022-08-29T14:24:21Z</time>
      </trkpt>
      <trkpt lat="49.32902" lon="0.02734">
        <ele>-365.79998779297</ele>
        <time>2022-08-29T14:24:28Z</time>
      </trkpt>
      <trkpt lat="49.32893" lon="0.02725">
        <ele>-365.60000610352</ele>
        <time>2022-08-29T14:24:39Z</time>
      </trkpt>
      <trkpt lat="49.32891" lon="0.02716">
        <ele>-365.39999389648</ele>
        <time>2022-08-29T14:24:44Z</time>
      </trkpt>
      <trkpt lat="49.3289" lon="0.02707">
        <ele>-365.39999389648</ele>
        <time>2022-08-29T14:24:47Z</time>
      </trkpt>
      <trkpt lat="49.3289" lon="0.02703">
        <ele>-365.39999389648</ele>
        <time>2022-08-29T14:24:48Z</time>
      </trkpt>
      <trkpt lat="49.32885" lon="0.02682">
        <ele>-365.79998779297</ele>
        <time>2022-08-29T14:25:02Z</time>
      </trkpt>
      <trkpt lat="49.32883" lon="0.02676">
        <ele>-365.79998779297</ele>
        <time>2022-08-29T14:25:05Z</time>
      </trkpt>
      <trkpt lat="49.32877" lon="0.02636">
        <ele>-365.79998779297</ele>
        <time>2022-08-29T14:25:25Z</time>
      </trkpt>
      <trkpt lat="49.32866" lon="0.02597">
        <ele>-365.60000610352</ele>
        <time>2022-08-29T14:25:43Z</time>
      </trkpt>
      <trkpt lat="49.32861" lon="0.02577">
        <ele>-365.20001220703</ele>
        <time>2022-08-29T14:25:55Z</time>
      </trkpt>
      <trkpt lat="49.32861" lon="0.02575">
        <ele>-365.20001220703</ele>
        <time>2022-08-29T14:25:56Z</time>
      </trkpt>
      <trkpt lat="49.32857" lon="0.0256">
        <ele>-365.20001220703</ele>
        <time>2022-08-29T14:26:03Z</time>
      </trkpt>
      <trkpt lat="49.32855" lon="0.02535">
        <ele>-365</ele>
        <time>2022-08-29T14:26:17Z</time>
      </trkpt>
      <trkpt lat="49.32854" lon="0.02532">
        <ele>-365</ele>
        <time>2022-08-29T14:26:18Z</time>
      </trkpt>
      <trkpt lat="49.32841" lon="0.02494">
        <ele>-365</ele>
        <time>2022-08-29T14:26:36Z</time>
      </trkpt>
      <trkpt lat="49.32821" lon="0.02464">
        <ele>-365</ele>
        <time>2022-08-29T14:26:54Z</time>
      </trkpt>
      <trkpt lat="49.32805" lon="0.02441">
        <ele>-364.60000610352</ele>
        <time>2022-08-29T14:27:06Z</time>
      </trkpt>
      <trkpt lat="49.32796" lon="0.02421">
        <ele>-364.39999389648</ele>
        <time>2022-08-29T14:27:24Z</time>
      </trkpt>
      <trkpt lat="49.32786" lon="0.02399">
        <ele>-365</ele>
        <time>2022-08-29T14:27:37Z</time>
      </trkpt>
      <trkpt lat="49.32785" lon="0.02397">
        <ele>-365</ele>
        <time>2022-08-29T14:27:38Z</time>
      </trkpt>
      <trkpt lat="49.3277" lon="0.0236">
        <ele>-364.79998779297</ele>
        <time>2022-08-29T14:27:56Z</time>
      </trkpt>
      <trkpt lat="49.32756" lon="0.02318">
        <ele>-364.79998779297</ele>
        <time>2022-08-29T14:28:18Z</time>
      </trkpt>
      <trkpt lat="49.32741" lon="0.02289">
        <ele>-364.60000610352</ele>
        <time>2022-08-29T14:28:33Z</time>
      </trkpt>
      <trkpt lat="49.32721" lon="0.02254">
        <ele>-364.39999389648</ele>
        <time>2022-08-29T14:28:47Z</time>
      </trkpt>
      <trkpt lat="49.32711" lon="0.02234">
        <ele>-364.39999389648</ele>
        <time>2022-08-29T14:28:58Z</time>
      </trkpt>
      <trkpt lat="49.32703" lon="0.02217">
        <ele>-364.39999389648</ele>
        <time>2022-08-29T14:29:11Z</time>
      </trkpt>
      <trkpt lat="49.32702" lon="0.02214">
        <ele>-364.20001220703</ele>
        <time>2022-08-29T14:29:13Z</time>
      </trkpt>
      <trkpt lat="49.32702" lon="0.02212">
        <ele>-364.20001220703</ele>
        <time>2022-08-29T14:29:14Z</time>
      </trkpt>
      <trkpt lat="49.32701" lon="0.02211">
        <ele>-364.20001220703</ele>
        <time>2022-08-29T14:29:15Z</time>
      </trkpt>
      <trkpt lat="49.32701" lon="0.02209">
        <ele>-364.20001220703</ele>
        <time>2022-08-29T14:29:16Z</time>
      </trkpt>
      <trkpt lat="49.327" lon="0.02208">
        <ele>-364.20001220703</ele>
        <time>2022-08-29T14:29:17Z</time>
      </trkpt>
      <trkpt lat="49.32699" lon="0.02207">
        <ele>-364.39999389648</ele>
        <time>2022-08-29T14:29:18Z</time>
      </trkpt>
      <trkpt lat="49.32698" lon="0.02206">
        <ele>-364.39999389648</ele>
        <time>2022-08-29T14:29:19Z</time>
      </trkpt>
      <trkpt lat="49.32697" lon="0.02205">
        <ele>-364.39999389648</ele>
        <time>2022-08-29T14:29:20Z</time>
      </trkpt>
      <trkpt lat="49.32696" lon="0.02203">
        <ele>-364.39999389648</ele>
        <time>2022-08-29T14:29:21Z</time>
      </trkpt>
      <trkpt lat="49.32687" lon="0.02187">
        <ele>-364.60000610352</ele>
        <time>2022-08-29T14:29:35Z</time>
      </trkpt>
      <trkpt lat="49.3267" lon="0.02165">
        <ele>-364.79998779297</ele>
        <time>2022-08-29T14:29:46Z</time>
      </trkpt>
      <trkpt lat="49.32652" lon="0.02142">
        <ele>-364.60000610352</ele>
        <time>2022-08-29T14:30:03Z</time>
      </trkpt>
      <trkpt lat="49.32636" lon="0.02119">
        <ele>-364.39999389648</ele>
        <time>2022-08-29T14:30:20Z</time>
      </trkpt>
      <trkpt lat="49.32623" lon="0.02099">
        <ele>-364.60000610352</ele>
        <time>2022-08-29T14:30:36Z</time>
      </trkpt>
      <trkpt lat="49.32605" lon="0.02065">
        <ele>-364.60000610352</ele>
        <time>2022-08-29T14:30:53Z</time>
      </trkpt>
      <trkpt lat="49.32603" lon="0.0204">
        <ele>-364.39999389648</ele>
        <time>2022-08-29T14:31:02Z</time>
      </trkpt>
      <trkpt lat="49.32603" lon="0.02037">
        <ele>-364.60000610352</ele>
        <time>2022-08-29T14:31:03Z</time>
      </trkpt>
      <trkpt lat="49.32603" lon="0.02034">
        <ele>-364.60000610352</ele>
        <time>2022-08-29T14:31:04Z</time>
      </trkpt>
      <trkpt lat="49.32602" lon="0.02031">
        <ele>-364.60000610352</ele>
        <time>2022-08-29T14:31:05Z</time>
      </trkpt>
      <trkpt lat="49.32601" lon="0.02029">
        <ele>-364.60000610352</ele>
        <time>2022-08-29T14:31:06Z</time>
      </trkpt>
      <trkpt lat="49.32601" lon="0.02027">
        <ele>-364.60000610352</ele>
        <time>2022-08-29T14:31:07Z</time>
      </trkpt>
      <trkpt lat="49.326" lon="0.02025">
        <ele>-364.60000610352</ele>
        <time>2022-08-29T14:31:08Z</time>
      </trkpt>
      <trkpt lat="49.326" lon="0.02023">
        <ele>-364.60000610352</ele>
        <time>2022-08-29T14:31:09Z</time>
      </trkpt>
      <trkpt lat="49.32598" lon="0.02019">
        <ele>-364.60000610352</ele>
        <time>2022-08-29T14:31:12Z</time>
      </trkpt>
      <trkpt lat="49.32597" lon="0.02018">
        <ele>-364.60000610352</ele>
        <time>2022-08-29T14:31:13Z</time>
      </trkpt>
      <trkpt lat="49.32597" lon="0.02016">
        <ele>-364.60000610352</ele>
        <time>2022-08-29T14:31:14Z</time>
      </trkpt>
      <trkpt lat="49.32584" lon="0.02001">
        <ele>-364.20001220703</ele>
        <time>2022-08-29T14:31:29Z</time>
      </trkpt>
      <trkpt lat="49.32569" lon="0.01972">
        <ele>-364.20001220703</ele>
        <time>2022-08-29T14:31:45Z</time>
      </trkpt>
      <trkpt lat="49.32557" lon="0.0194">
        <ele>-364.20001220703</ele>
        <time>2022-08-29T14:32:00Z</time>
      </trkpt>
      <trkpt lat="49.32558" lon="0.01937">
        <ele>-364.20001220703</ele>
        <time>2022-08-29T14:32:02Z</time>
      </trkpt>
      <trkpt lat="49.32559" lon="0.01936">
        <ele>-364.20001220703</ele>
        <time>2022-08-29T14:32:03Z</time>
      </trkpt>
      <trkpt lat="49.3256" lon="0.01935">
        <ele>-364</ele>
        <time>2022-08-29T14:32:04Z</time>
      </trkpt>
      <trkpt lat="49.32562" lon="0.01934">
        <ele>-364</ele>
        <time>2022-08-29T14:32:05Z</time>
      </trkpt>
      <trkpt lat="49.32564" lon="0.0193">
        <ele>-364</ele>
        <time>2022-08-29T14:32:08Z</time>
      </trkpt>
      <trkpt lat="49.32565" lon="0.01929">
        <ele>-364</ele>
        <time>2022-08-29T14:32:09Z</time>
      </trkpt>
      <trkpt lat="49.32583" lon="0.01912">
        <ele>-364.60000610352</ele>
        <time>2022-08-29T14:32:23Z</time>
      </trkpt>
      <trkpt lat="49.32595" lon="0.01902">
        <ele>-365.20001220703</ele>
        <time>2022-08-29T14:32:36Z</time>
      </trkpt>
      <trkpt lat="49.32601" lon="0.01897">
        <ele>-365.20001220703</ele>
        <time>2022-08-29T14:32:42Z</time>
      </trkpt>
      <trkpt lat="49.32618" lon="0.01886">
        <ele>-365.60000610352</ele>
        <time>2022-08-29T14:32:54Z</time>
      </trkpt>
      <trkpt lat="49.32623" lon="0.01881">
        <ele>-365.60000610352</ele>
        <time>2022-08-29T14:32:58Z</time>
      </trkpt>
      <trkpt lat="49.32639" lon="0.01869">
        <ele>-364.20001220703</ele>
        <time>2022-08-29T14:33:08Z</time>
      </trkpt>
      <trkpt lat="49.32659" lon="0.01853">
        <ele>-364.39999389648</ele>
        <time>2022-08-29T14:33:25Z</time>
      </trkpt>
      <trkpt lat="49.32664" lon="0.01848">
        <ele>-364.60000610352</ele>
        <time>2022-08-29T14:33:29Z</time>
      </trkpt>
      <trkpt lat="49.32687" lon="0.01824">
        <ele>-364.79998779297</ele>
        <time>2022-08-29T14:33:43Z</time>
      </trkpt>
      <trkpt lat="49.32703" lon="0.01838">
        <ele>-364.60000610352</ele>
        <time>2022-08-29T14:34:01Z</time>
      </trkpt>
      <trkpt lat="49.32709" lon="0.01847">
        <ele>-364.60000610352</ele>
        <time>2022-08-29T14:34:05Z</time>
      </trkpt>
      <trkpt lat="49.32716" lon="0.01888">
        <ele>-364.20001220703</ele>
        <time>2022-08-29T14:34:19Z</time>
      </trkpt>
      <trkpt lat="49.32724" lon="0.019">
        <ele>-364.79998779297</ele>
        <time>2022-08-29T14:34:33Z</time>
      </trkpt>
      <trkpt lat="49.32729" lon="0.01899">
        <ele>-364.79998779297</ele>
        <time>2022-08-29T14:34:37Z</time>
      </trkpt>
      <trkpt lat="49.32732" lon="0.01899">
        <ele>-364.79998779297</ele>
        <time>2022-08-29T14:34:39Z</time>
      </trkpt>
      <trkpt lat="49.32745" lon="0.01896">
        <ele>-365.20001220703</ele>
        <time>2022-08-29T14:34:49Z</time>
      </trkpt>
      <trkpt lat="49.32756" lon="0.01888">
        <ele>-365.20001220703</ele>
        <time>2022-08-29T14:34:55Z</time>
      </trkpt>
      <trkpt lat="49.32776" lon="0.01873">
        <ele>-365.20001220703</ele>
        <time>2022-08-29T14:35:09Z</time>
      </trkpt>
      <trkpt lat="49.32784" lon="0.01862">
        <ele>-365.20001220703</ele>
        <time>2022-08-29T14:35:25Z</time>
      </trkpt>
      <trkpt lat="49.3279" lon="0.01853">
        <ele>-365.20001220703</ele>
        <time>2022-08-29T14:35:31Z</time>
      </trkpt>
      <trkpt lat="49.32798" lon="0.01843">
        <ele>-365.39999389648</ele>
        <time>2022-08-29T14:35:38Z</time>
      </trkpt>
      <trkpt lat="49.3281" lon="0.01825">
        <ele>-365.60000610352</ele>
        <time>2022-08-29T14:35:49Z</time>
      </trkpt>
      <trkpt lat="49.3281" lon="0.01823">
        <ele>-365.60000610352</ele>
        <time>2022-08-29T14:35:50Z</time>
      </trkpt>
      <trkpt lat="49.32826" lon="0.01801">
        <ele>-365.39999389648</ele>
        <time>2022-08-29T14:36:02Z</time>
      </trkpt>
      <trkpt lat="49.32836" lon="0.01787">
        <ele>-365.20001220703</ele>
        <time>2022-08-29T14:36:14Z</time>
      </trkpt>
      <trkpt lat="49.32849" lon="0.01764">
        <ele>-365.39999389648</ele>
        <time>2022-08-29T14:36:26Z</time>
      </trkpt>
      <trkpt lat="49.32857" lon="0.01753">
        <ele>-365.39999389648</ele>
        <time>2022-08-29T14:36:35Z</time>
      </trkpt>
      <trkpt lat="49.32859" lon="0.01751">
        <ele>-365.39999389648</ele>
        <time>2022-08-29T14:36:37Z</time>
      </trkpt>
      <trkpt lat="49.32869" lon="0.01736">
        <ele>-366</ele>
        <time>2022-08-29T14:36:48Z</time>
      </trkpt>
      <trkpt lat="49.32876" lon="0.01726">
        <ele>-366.39999389648</ele>
        <time>2022-08-29T14:37:07Z</time>
      </trkpt>
      <trkpt lat="49.32877" lon="0.01724">
        <ele>-366.39999389648</ele>
        <time>2022-08-29T14:37:11Z</time>
      </trkpt>
      <trkpt lat="49.32895" lon="0.01706">
        <ele>-366</ele>
        <time>2022-08-29T14:37:27Z</time>
      </trkpt>
      <trkpt lat="49.32903" lon="0.017">
        <ele>-365.60000610352</ele>
        <time>2022-08-29T14:37:35Z</time>
      </trkpt>
      <trkpt lat="49.32906" lon="0.01685">
        <ele>-365.79998779297</ele>
        <time>2022-08-29T14:37:43Z</time>
      </trkpt>
      <trkpt lat="49.32907" lon="0.01686">
        <ele>-366</ele>
        <time>2022-08-29T14:37:58Z</time>
      </trkpt>
      <trkpt lat="49.32908" lon="0.01687">
        <ele>-366</ele>
        <time>2022-08-29T14:38:00Z</time>
      </trkpt>
      <trkpt lat="49.32908" lon="0.01692">
        <ele>-366</ele>
        <time>2022-08-29T14:38:02Z</time>
      </trkpt>
      <trkpt lat="49.32907" lon="0.01705">
        <ele>-366</ele>
        <time>2022-08-29T14:38:11Z</time>
      </trkpt>
      <trkpt lat="49.32898" lon="0.01713">
        <ele>-365.79998779297</ele>
        <time>2022-08-29T14:38:31Z</time>
      </trkpt>
      <trkpt lat="49.32896" lon="0.01714">
        <ele>-365.79998779297</ele>
        <time>2022-08-29T14:38:56Z</time>
      </trkpt>
      <trkpt lat="49.32905" lon="0.01705">
        <ele>-365.79998779297</ele>
        <time>2022-08-29T14:39:10Z</time>
      </trkpt>
      <trkpt lat="49.32907" lon="0.01698">
        <ele>-365.79998779297</ele>
        <time>2022-08-29T14:39:14Z</time>
      </trkpt>
      <trkpt lat="49.32906" lon="0.0168">
        <ele>-366.20001220703</ele>
        <time>2022-08-29T14:39:25Z</time>
      </trkpt>
      <trkpt lat="49.32901" lon="0.01663">
        <ele>-366.20001220703</ele>
        <time>2022-08-29T14:39:34Z</time>
      </trkpt>
      <trkpt lat="49.32902" lon="0.01658">
        <ele>-366.20001220703</ele>
        <time>2022-08-29T14:39:56Z</time>
      </trkpt>
      <trkpt lat="49.32902" lon="0.01643">
        <ele>-366.20001220703</ele>
        <time>2022-08-29T14:40:05Z</time>
      </trkpt>
      <trkpt lat="49.32909" lon="0.0163">
        <ele>-365.79998779297</ele>
        <time>2022-08-29T14:40:12Z</time>
      </trkpt>
      <trkpt lat="49.32919" lon="0.01621">
        <ele>-365.60000610352</ele>
        <time>2022-08-29T14:40:21Z</time>
      </trkpt>
      <trkpt lat="49.32926" lon="0.01617">
        <ele>-365.39999389648</ele>
        <time>2022-08-29T14:40:27Z</time>
      </trkpt>
      <trkpt lat="49.32935" lon="0.01611">
        <ele>-365.60000610352</ele>
        <time>2022-08-29T14:40:32Z</time>
      </trkpt>
      <trkpt lat="49.32947" lon="0.01604">
        <ele>-365.39999389648</ele>
        <time>2022-08-29T14:40:46Z</time>
      </trkpt>
      <trkpt lat="49.32951" lon="0.01601">
        <ele>-365.39999389648</ele>
        <time>2022-08-29T14:40:49Z</time>
      </trkpt>
      <trkpt lat="49.32961" lon="0.01593">
        <ele>-365.60000610352</ele>
        <time>2022-08-29T14:40:54Z</time>
      </trkpt>
      <trkpt lat="49.32967" lon="0.01592">
        <ele>-365.60000610352</ele>
        <time>2022-08-29T14:41:01Z</time>
      </trkpt>
      <trkpt lat="49.32971" lon="0.01588">
        <ele>-365.60000610352</ele>
        <time>2022-08-29T14:41:05Z</time>
      </trkpt>
      <trkpt lat="49.32979" lon="0.01581">
        <ele>-365.60000610352</ele>
        <time>2022-08-29T14:41:10Z</time>
      </trkpt>
      <trkpt lat="49.32998" lon="0.01572">
        <ele>-365.39999389648</ele>
        <time>2022-08-29T14:41:27Z</time>
      </trkpt>
      <trkpt lat="49.33011" lon="0.01566">
        <ele>-365.39999389648</ele>
        <time>2022-08-29T14:41:37Z</time>
      </trkpt>
      <trkpt lat="49.33013" lon="0.01564">
        <ele>-365.39999389648</ele>
        <time>2022-08-29T14:41:40Z</time>
      </trkpt>
      <trkpt lat="49.3302" lon="0.01564">
        <ele>-365</ele>
        <time>2022-08-29T14:41:48Z</time>
      </trkpt>
      <trkpt lat="49.33047" lon="0.01555">
        <ele>-364.20001220703</ele>
        <time>2022-08-29T14:42:10Z</time>
      </trkpt>
      <trkpt lat="49.33071" lon="0.01545">
        <ele>-364</ele>
        <time>2022-08-29T14:42:29Z</time>
      </trkpt>
      <trkpt lat="49.33093" lon="0.0153">
        <ele>-364.39999389648</ele>
        <time>2022-08-29T14:42:42Z</time>
      </trkpt>
      <trkpt lat="49.33097" lon="0.0153">
        <ele>-364.60000610352</ele>
        <time>2022-08-29T14:42:46Z</time>
      </trkpt>
      <trkpt lat="49.33108" lon="0.01529">
        <ele>-364.60000610352</ele>
        <time>2022-08-29T14:42:54Z</time>
      </trkpt>
      <trkpt lat="49.33132" lon="0.01549">
        <ele>-364.79998779297</ele>
        <time>2022-08-29T14:43:13Z</time>
      </trkpt>
      <trkpt lat="49.33141" lon="0.01555">
        <ele>-364.79998779297</ele>
        <time>2022-08-29T14:43:20Z</time>
      </trkpt>
      <trkpt lat="49.33151" lon="0.01559">
        <ele>-364.79998779297</ele>
        <time>2022-08-29T14:43:27Z</time>
      </trkpt>
      <trkpt lat="49.33155" lon="0.01564">
        <ele>-364.79998779297</ele>
        <time>2022-08-29T14:43:34Z</time>
      </trkpt>
      <trkpt lat="49.33158" lon="0.01565">
        <ele>-364.79998779297</ele>
        <time>2022-08-29T14:43:37Z</time>
      </trkpt>
      <trkpt lat="49.33175" lon="0.01571">
        <ele>-364.79998779297</ele>
        <time>2022-08-29T14:43:48Z</time>
      </trkpt>
      <trkpt lat="49.33187" lon="0.01578">
        <ele>-364.60000610352</ele>
        <time>2022-08-29T14:43:59Z</time>
      </trkpt>
      <trkpt lat="49.3319" lon="0.01584">
        <ele>-364.39999389648</ele>
        <time>2022-08-29T14:44:03Z</time>
      </trkpt>
      <trkpt lat="49.33191" lon="0.01587">
        <ele>-364.20001220703</ele>
        <time>2022-08-29T14:44:04Z</time>
      </trkpt>
      <trkpt lat="49.332" lon="0.01604">
        <ele>-364</ele>
        <time>2022-08-29T14:44:12Z</time>
      </trkpt>
      <trkpt lat="49.33208" lon="0.01621">
        <ele>-364.39999389648</ele>
        <time>2022-08-29T14:44:23Z</time>
      </trkpt>
      <trkpt lat="49.33223" lon="0.01649">
        <ele>-365</ele>
        <time>2022-08-29T14:44:40Z</time>
      </trkpt>
      <trkpt lat="49.33233" lon="0.01674">
        <ele>-364.79998779297</ele>
        <time>2022-08-29T14:44:53Z</time>
      </trkpt>
      <trkpt lat="49.33238" lon="0.01681">
        <ele>-364.79998779297</ele>
        <time>2022-08-29T14:44:59Z</time>
      </trkpt>
      <trkpt lat="49.33249" lon="0.01699">
        <ele>-364.60000610352</ele>
        <time>2022-08-29T14:45:11Z</time>
      </trkpt>
      <trkpt lat="49.33251" lon="0.01702">
        <ele>-364.60000610352</ele>
        <time>2022-08-29T14:45:25Z</time>
      </trkpt>
      <trkpt lat="49.33255" lon="0.01706">
        <ele>-364.60000610352</ele>
        <time>2022-08-29T14:45:29Z</time>
      </trkpt>
      <trkpt lat="49.33262" lon="0.01716">
        <ele>-364.60000610352</ele>
        <time>2022-08-29T14:45:34Z</time>
      </trkpt>
      <trkpt lat="49.33271" lon="0.01734">
        <ele>-364.60000610352</ele>
        <time>2022-08-29T14:45:47Z</time>
      </trkpt>
      <trkpt lat="49.33274" lon="0.0174">
        <ele>-364.79998779297</ele>
        <time>2022-08-29T14:45:52Z</time>
      </trkpt>
      <trkpt lat="49.33285" lon="0.0176">
        <ele>-364.79998779297</ele>
        <time>2022-08-29T14:46:04Z</time>
      </trkpt>
      <trkpt lat="49.33287" lon="0.01765">
        <ele>-364.79998779297</ele>
        <time>2022-08-29T14:46:07Z</time>
      </trkpt>
      <trkpt lat="49.33294" lon="0.01778">
        <ele>-365</ele>
        <time>2022-08-29T14:46:13Z</time>
      </trkpt>
      <trkpt lat="49.33297" lon="0.01787">
        <ele>-365</ele>
        <time>2022-08-29T14:46:20Z</time>
      </trkpt>
      <trkpt lat="49.33306" lon="0.01802">
        <ele>-365</ele>
        <time>2022-08-29T14:46:28Z</time>
      </trkpt>
      <trkpt lat="49.33313" lon="0.01816">
        <ele>-364.39999389648</ele>
        <time>2022-08-29T14:46:40Z</time>
      </trkpt>
      <trkpt lat="49.33316" lon="0.01821">
        <ele>-364.39999389648</ele>
        <time>2022-08-29T14:46:43Z</time>
      </trkpt>
      <trkpt lat="49.33323" lon="0.01836">
        <ele>-364.39999389648</ele>
        <time>2022-08-29T14:46:52Z</time>
      </trkpt>
      <trkpt lat="49.33325" lon="0.01841">
        <ele>-364.39999389648</ele>
        <time>2022-08-29T14:46:55Z</time>
      </trkpt>
      <trkpt lat="49.33338" lon="0.01864">
        <ele>-364</ele>
        <time>2022-08-29T14:47:13Z</time>
      </trkpt>
      <trkpt lat="49.33341" lon="0.01867">
        <ele>-364</ele>
        <time>2022-08-29T14:47:16Z</time>
      </trkpt>
      <trkpt lat="49.33346" lon="0.01877">
        <ele>-364</ele>
        <time>2022-08-29T14:47:21Z</time>
      </trkpt>
      <trkpt lat="49.33348" lon="0.0188">
        <ele>-364</ele>
        <time>2022-08-29T14:47:22Z</time>
      </trkpt>
      <trkpt lat="49.33349" lon="0.01882">
        <ele>-364</ele>
        <time>2022-08-29T14:47:23Z</time>
      </trkpt>
      <trkpt lat="49.33353" lon="0.0189">
        <ele>-364</ele>
        <time>2022-08-29T14:47:30Z</time>
      </trkpt>
      <trkpt lat="49.33356" lon="0.01897">
        <ele>-364</ele>
        <time>2022-08-29T14:47:33Z</time>
      </trkpt>
      <trkpt lat="49.33357" lon="0.01899">
        <ele>-364</ele>
        <time>2022-08-29T14:47:34Z</time>
      </trkpt>
      <trkpt lat="49.33359" lon="0.01902">
        <ele>-364</ele>
        <time>2022-08-29T14:47:35Z</time>
      </trkpt>
      <trkpt lat="49.33365" lon="0.01914">
        <ele>-364.20001220703</ele>
        <time>2022-08-29T14:47:44Z</time>
      </trkpt>
      <trkpt lat="49.33366" lon="0.01917">
        <ele>-364.20001220703</ele>
        <time>2022-08-29T14:47:46Z</time>
      </trkpt>
      <trkpt lat="49.33367" lon="0.01919">
        <ele>-364.20001220703</ele>
        <time>2022-08-29T14:47:47Z</time>
      </trkpt>
      <trkpt lat="49.33369" lon="0.0192">
        <ele>-364.20001220703</ele>
        <time>2022-08-29T14:47:48Z</time>
      </trkpt>
      <trkpt lat="49.33371" lon="0.01922">
        <ele>-364.20001220703</ele>
        <time>2022-08-29T14:47:49Z</time>
      </trkpt>
      <trkpt lat="49.33372" lon="0.01925">
        <ele>-364.20001220703</ele>
        <time>2022-08-29T14:47:50Z</time>
      </trkpt>
      <trkpt lat="49.33377" lon="0.01935">
        <ele>-364.39999389648</ele>
        <time>2022-08-29T14:47:58Z</time>
      </trkpt>
      <trkpt lat="49.33381" lon="0.01941">
        <ele>-364.39999389648</ele>
        <time>2022-08-29T14:48:03Z</time>
      </trkpt>
      <trkpt lat="49.33392" lon="0.01963">
        <ele>-364.39999389648</ele>
        <time>2022-08-29T14:48:16Z</time>
      </trkpt>
      <trkpt lat="49.33394" lon="0.01966">
        <ele>-364.39999389648</ele>
        <time>2022-08-29T14:48:19Z</time>
      </trkpt>
      <trkpt lat="49.33395" lon="0.0197">
        <ele>-364.39999389648</ele>
        <time>2022-08-29T14:48:21Z</time>
      </trkpt>
      <trkpt lat="49.33406" lon="0.01988">
        <ele>-364.39999389648</ele>
        <time>2022-08-29T14:48:35Z</time>
      </trkpt>
      <trkpt lat="49.3342" lon="0.02008">
        <ele>-364.60000610352</ele>
        <time>2022-08-29T14:48:45Z</time>
      </trkpt>
      <trkpt lat="49.33424" lon="0.02021">
        <ele>-364.60000610352</ele>
        <time>2022-08-29T14:48:55Z</time>
      </trkpt>
      <trkpt lat="49.33427" lon="0.02025">
        <ele>-364.60000610352</ele>
        <time>2022-08-29T14:48:58Z</time>
      </trkpt>
      <trkpt lat="49.3343" lon="0.02036">
        <ele>-364.60000610352</ele>
        <time>2022-08-29T14:49:03Z</time>
      </trkpt>
      <trkpt lat="49.33431" lon="0.02051">
        <ele>-364.60000610352</ele>
        <time>2022-08-29T14:49:07Z</time>
      </trkpt>
      <trkpt lat="49.33423" lon="0.02065">
        <ele>-365.20001220703</ele>
        <time>2022-08-29T14:49:16Z</time>
      </trkpt>
      <trkpt lat="49.33413" lon="0.02086">
        <ele>-365.39999389648</ele>
        <time>2022-08-29T14:49:28Z</time>
      </trkpt>
      <trkpt lat="49.33411" lon="0.02088">
        <ele>-365.39999389648</ele>
        <time>2022-08-29T14:49:29Z</time>
      </trkpt>
      <trkpt lat="49.33407" lon="0.02093">
        <ele>-365.39999389648</ele>
        <time>2022-08-29T14:49:35Z</time>
      </trkpt>
      <trkpt lat="49.33404" lon="0.02097">
        <ele>-365.39999389648</ele>
        <time>2022-08-29T14:49:38Z</time>
      </trkpt>
      <trkpt lat="49.33394" lon="0.02115">
        <ele>-365.20001220703</ele>
        <time>2022-08-29T14:49:50Z</time>
      </trkpt>
      <trkpt lat="49.33392" lon="0.02119">
        <ele>-365</ele>
        <time>2022-08-29T14:49:53Z</time>
      </trkpt>
      <trkpt lat="49.33383" lon="0.02138">
        <ele>-365.20001220703</ele>
        <time>2022-08-29T14:50:05Z</time>
      </trkpt>
      <trkpt lat="49.33382" lon="0.02139">
        <ele>-365.39999389648</ele>
        <time>2022-08-29T14:50:07Z</time>
      </trkpt>
      <trkpt lat="49.33377" lon="0.02146">
        <ele>-365.39999389648</ele>
        <time>2022-08-29T14:50:11Z</time>
      </trkpt>
      <trkpt lat="49.33371" lon="0.02159">
        <ele>-365.20001220703</ele>
        <time>2022-08-29T14:50:20Z</time>
      </trkpt>
      <trkpt lat="49.33367" lon="0.02169">
        <ele>-365.20001220703</ele>
        <time>2022-08-29T14:50:26Z</time>
      </trkpt>
      <trkpt lat="49.33359" lon="0.02186">
        <ele>-365.39999389648</ele>
        <time>2022-08-29T14:50:38Z</time>
      </trkpt>
      <trkpt lat="49.33356" lon="0.02191">
        <ele>-365.39999389648</ele>
        <time>2022-08-29T14:50:41Z</time>
      </trkpt>
      <trkpt lat="49.3335" lon="0.02202">
        <ele>-365.20001220703</ele>
        <time>2022-08-29T14:50:47Z</time>
      </trkpt>
      <trkpt lat="49.33344" lon="0.0221">
        <ele>-365</ele>
        <time>2022-08-29T14:50:55Z</time>
      </trkpt>
      <trkpt lat="49.33335" lon="0.02229">
        <ele>-365.20001220703</ele>
        <time>2022-08-29T14:51:05Z</time>
      </trkpt>
      <trkpt lat="49.33327" lon="0.02246">
        <ele>-365.20001220703</ele>
        <time>2022-08-29T14:51:19Z</time>
      </trkpt>
      <trkpt lat="49.33321" lon="0.02257">
        <ele>-365.20001220703</ele>
        <time>2022-08-29T14:51:24Z</time>
      </trkpt>
      <trkpt lat="49.33317" lon="0.02265">
        <ele>-365.20001220703</ele>
        <time>2022-08-29T14:51:32Z</time>
      </trkpt>
      <trkpt lat="49.33313" lon="0.02275">
        <ele>-365.20001220703</ele>
        <time>2022-08-29T14:51:39Z</time>
      </trkpt>
      <trkpt lat="49.33304" lon="0.02291">
        <ele>-365</ele>
        <time>2022-08-29T14:51:49Z</time>
      </trkpt>
      <trkpt lat="49.33302" lon="0.02295">
        <ele>-365</ele>
        <time>2022-08-29T14:51:52Z</time>
      </trkpt>
      <trkpt lat="49.33298" lon="0.02303">
        <ele>-365</ele>
        <time>2022-08-29T14:51:57Z</time>
      </trkpt>
      <trkpt lat="49.3329" lon="0.02316">
        <ele>-365.20001220703</ele>
        <time>2022-08-29T14:52:07Z</time>
      </trkpt>
      <trkpt lat="49.33287" lon="0.02322">
        <ele>-365.20001220703</ele>
        <time>2022-08-29T14:52:11Z</time>
      </trkpt>
      <trkpt lat="49.33277" lon="0.02347">
        <ele>-365</ele>
        <time>2022-08-29T14:52:24Z</time>
      </trkpt>
      <trkpt lat="49.33269" lon="0.02359">
        <ele>-364.79998779297</ele>
        <time>2022-08-29T14:52:36Z</time>
      </trkpt>
      <trkpt lat="49.33268" lon="0.02362">
        <ele>-364.79998779297</ele>
        <time>2022-08-29T14:52:38Z</time>
      </trkpt>
      <trkpt lat="49.33271" lon="0.02371">
        <ele>-364.79998779297</ele>
        <time>2022-08-29T14:52:47Z</time>
      </trkpt>
      <trkpt lat="49.33278" lon="0.02375">
        <ele>-364.60000610352</ele>
        <time>2022-08-29T14:52:55Z</time>
      </trkpt>
      <trkpt lat="49.33291" lon="0.02389">
        <ele>-364.79998779297</ele>
        <time>2022-08-29T14:53:06Z</time>
      </trkpt>
      <trkpt lat="49.33292" lon="0.0239">
        <ele>-364.79998779297</ele>
        <time>2022-08-29T14:53:09Z</time>
      </trkpt>
      <trkpt lat="49.33302" lon="0.02398">
        <ele>-364.60000610352</ele>
        <time>2022-08-29T14:53:16Z</time>
      </trkpt>
      <trkpt lat="49.33312" lon="0.0241">
        <ele>-364.79998779297</ele>
        <time>2022-08-29T14:53:28Z</time>
      </trkpt>
      <trkpt lat="49.33314" lon="0.02413">
        <ele>-364.79998779297</ele>
        <time>2022-08-29T14:53:30Z</time>
      </trkpt>
      <trkpt lat="49.33322" lon="0.02423">
        <ele>-364.79998779297</ele>
        <time>2022-08-29T14:53:39Z</time>
      </trkpt>
      <trkpt lat="49.33324" lon="0.02426">
        <ele>-364.79998779297</ele>
        <time>2022-08-29T14:53:41Z</time>
      </trkpt>
      <trkpt lat="49.33327" lon="0.02429">
        <ele>-364.79998779297</ele>
        <time>2022-08-29T14:53:43Z</time>
      </trkpt>
      <trkpt lat="49.33338" lon="0.02449">
        <ele>-364.79998779297</ele>
        <time>2022-08-29T14:53:55Z</time>
      </trkpt>
      <trkpt lat="49.33342" lon="0.02452">
        <ele>-364.79998779297</ele>
        <time>2022-08-29T14:54:00Z</time>
      </trkpt>
      <trkpt lat="49.33347" lon="0.02459">
        <ele>-364.60000610352</ele>
        <time>2022-08-29T14:54:04Z</time>
      </trkpt>
      <trkpt lat="49.33354" lon="0.02476">
        <ele>-364.60000610352</ele>
        <time>2022-08-29T14:54:16Z</time>
      </trkpt>
      <trkpt lat="49.33356" lon="0.02478">
        <ele>-364.60000610352</ele>
        <time>2022-08-29T14:54:18Z</time>
      </trkpt>
      <trkpt lat="49.33358" lon="0.02483">
        <ele>-364.60000610352</ele>
        <time>2022-08-29T14:54:22Z</time>
      </trkpt>
      <trkpt lat="49.3335" lon="0.02516">
        <ele>-364.20001220703</ele>
        <time>2022-08-29T14:54:33Z</time>
      </trkpt>
      <trkpt lat="49.33349" lon="0.0252">
        <ele>-364.20001220703</ele>
        <time>2022-08-29T14:54:36Z</time>
      </trkpt>
      <trkpt lat="49.33349" lon="0.02523">
        <ele>-364.20001220703</ele>
        <time>2022-08-29T14:54:38Z</time>
      </trkpt>
      <trkpt lat="49.33345" lon="0.02551">
        <ele>-364.39999389648</ele>
        <time>2022-08-29T14:54:49Z</time>
      </trkpt>
      <trkpt lat="49.33341" lon="0.02564">
        <ele>-364.39999389648</ele>
        <time>2022-08-29T14:55:00Z</time>
      </trkpt>
      <trkpt lat="49.33336" lon="0.02594">
        <ele>-364.39999389648</ele>
        <time>2022-08-29T14:55:14Z</time>
      </trkpt>
      <trkpt lat="49.33349" lon="0.02613">
        <ele>-364.20001220703</ele>
        <time>2022-08-29T14:55:25Z</time>
      </trkpt>
      <trkpt lat="49.33355" lon="0.02611">
        <ele>-363.79998779297</ele>
        <time>2022-08-29T14:55:34Z</time>
      </trkpt>
      <trkpt lat="49.33368" lon="0.02611">
        <ele>-363.60000610352</ele>
        <time>2022-08-29T14:55:42Z</time>
      </trkpt>
      <trkpt lat="49.33379" lon="0.02616">
        <ele>-363.79998779297</ele>
        <time>2022-08-29T14:55:53Z</time>
      </trkpt>
      <trkpt lat="49.33382" lon="0.02617">
        <ele>-363.79998779297</ele>
        <time>2022-08-29T14:55:56Z</time>
      </trkpt>
      <trkpt lat="49.3339" lon="0.02624">
        <ele>-363.79998779297</ele>
        <time>2022-08-29T14:56:02Z</time>
      </trkpt>
      <trkpt lat="49.33406" lon="0.02635">
        <ele>-364</ele>
        <time>2022-08-29T14:56:16Z</time>
      </trkpt>
      <trkpt lat="49.33421" lon="0.02645">
        <ele>-364</ele>
        <time>2022-08-29T14:56:27Z</time>
      </trkpt>
      <trkpt lat="49.33423" lon="0.02647">
        <ele>-363.79998779297</ele>
        <time>2022-08-29T14:56:30Z</time>
      </trkpt>
      <trkpt lat="49.33427" lon="0.02649">
        <ele>-363.79998779297</ele>
        <time>2022-08-29T14:56:34Z</time>
      </trkpt>
      <trkpt lat="49.33443" lon="0.02661">
        <ele>-364</ele>
        <time>2022-08-29T14:56:45Z</time>
      </trkpt>
      <trkpt lat="49.33448" lon="0.02664">
        <ele>-364.20001220703</ele>
        <time>2022-08-29T14:56:51Z</time>
      </trkpt>
      <trkpt lat="49.33458" lon="0.02677">
        <ele>-364.20001220703</ele>
        <time>2022-08-29T14:57:01Z</time>
      </trkpt>
      <trkpt lat="49.33457" lon="0.02689">
        <ele>-364.39999389648</ele>
        <time>2022-08-29T14:57:07Z</time>
      </trkpt>
      <trkpt lat="49.33455" lon="0.02694">
        <ele>-364.79998779297</ele>
        <time>2022-08-29T14:57:11Z</time>
      </trkpt>
      <trkpt lat="49.33451" lon="0.02707">
        <ele>-365</ele>
        <time>2022-08-29T14:57:21Z</time>
      </trkpt>
      <trkpt lat="49.3345" lon="0.02714">
        <ele>-365</ele>
        <time>2022-08-29T14:57:26Z</time>
      </trkpt>
      <trkpt lat="49.33446" lon="0.02728">
        <ele>-364.39999389648</ele>
        <time>2022-08-29T14:57:34Z</time>
      </trkpt>
      <trkpt lat="49.33441" lon="0.02748">
        <ele>-364</ele>
        <time>2022-08-29T14:57:40Z</time>
      </trkpt>
      <trkpt lat="49.33436" lon="0.02758">
        <ele>-364</ele>
        <time>2022-08-29T14:57:47Z</time>
      </trkpt>
      <trkpt lat="49.33432" lon="0.02768">
        <ele>-364</ele>
        <time>2022-08-29T14:57:52Z</time>
      </trkpt>
      <trkpt lat="49.33426" lon="0.02791">
        <ele>-364</ele>
        <time>2022-08-29T14:58:02Z</time>
      </trkpt>
      <trkpt lat="49.33426" lon="0.02793">
        <ele>-364</ele>
        <time>2022-08-29T14:58:05Z</time>
      </trkpt>
      <trkpt lat="49.33424" lon="0.02799">
        <ele>-364</ele>
        <time>2022-08-29T14:58:09Z</time>
      </trkpt>
      <trkpt lat="49.3342" lon="0.02823">
        <ele>-363.79998779297</ele>
        <time>2022-08-29T14:58:18Z</time>
      </trkpt>
      <trkpt lat="49.33414" lon="0.02838">
        <ele>-363.79998779297</ele>
        <time>2022-08-29T14:58:30Z</time>
      </trkpt>
      <trkpt lat="49.33413" lon="0.02842">
        <ele>-363.60000610352</ele>
        <time>2022-08-29T14:58:32Z</time>
      </trkpt>
      <trkpt lat="49.33407" lon="0.02863">
        <ele>-362.79998779297</ele>
        <time>2022-08-29T14:58:43Z</time>
      </trkpt>
      <trkpt lat="49.33406" lon="0.02867">
        <ele>-362.79998779297</ele>
        <time>2022-08-29T14:58:46Z</time>
      </trkpt>
      <trkpt lat="49.33406" lon="0.0287">
        <ele>-362.79998779297</ele>
        <time>2022-08-29T14:58:48Z</time>
      </trkpt>
      <trkpt lat="49.33401" lon="0.02901">
        <ele>-363.39999389648</ele>
        <time>2022-08-29T14:59:00Z</time>
      </trkpt>
      <trkpt lat="49.33395" lon="0.0293">
        <ele>-363.39999389648</ele>
        <time>2022-08-29T14:59:17Z</time>
      </trkpt>
      <trkpt lat="49.33395" lon="0.02945">
        <ele>-363.39999389648</ele>
        <time>2022-08-29T14:59:25Z</time>
      </trkpt>
      <trkpt lat="49.33395" lon="0.02957">
        <ele>-363.39999389648</ele>
        <time>2022-08-29T14:59:31Z</time>
      </trkpt>
      <trkpt lat="49.33397" lon="0.02977">
        <ele>-363.39999389648</ele>
        <time>2022-08-29T14:59:44Z</time>
      </trkpt>
      <trkpt lat="49.33403" lon="0.02981">
        <ele>-363.39999389648</ele>
        <time>2022-08-29T14:59:50Z</time>
      </trkpt>
      <trkpt lat="49.33408" lon="0.02988">
        <ele>-362.79998779297</ele>
        <time>2022-08-29T15:00:00Z</time>
      </trkpt>
      <trkpt lat="49.33417" lon="0.02993">
        <ele>-363.20001220703</ele>
        <time>2022-08-29T15:00:08Z</time>
      </trkpt>
      <trkpt lat="49.33426" lon="0.03">
        <ele>-363.39999389648</ele>
        <time>2022-08-29T15:00:20Z</time>
      </trkpt>
      <trkpt lat="49.33434" lon="0.03005">
        <ele>-363.39999389648</ele>
        <time>2022-08-29T15:00:25Z</time>
      </trkpt>
      <trkpt lat="49.33444" lon="0.03013">
        <ele>-363.39999389648</ele>
        <time>2022-08-29T15:00:34Z</time>
      </trkpt>
      <trkpt lat="49.33448" lon="0.03016">
        <ele>-363.39999389648</ele>
        <time>2022-08-29T15:00:37Z</time>
      </trkpt>
      <trkpt lat="49.33455" lon="0.03026">
        <ele>-363.39999389648</ele>
        <time>2022-08-29T15:00:42Z</time>
      </trkpt>
      <trkpt lat="49.33463" lon="0.03034">
        <ele>-363.60000610352</ele>
        <time>2022-08-29T15:00:52Z</time>
      </trkpt>
      <trkpt lat="49.33476" lon="0.03052">
        <ele>-363.60000610352</ele>
        <time>2022-08-29T15:01:04Z</time>
      </trkpt>
      <trkpt lat="49.33482" lon="0.0306">
        <ele>-363.60000610352</ele>
        <time>2022-08-29T15:01:08Z</time>
      </trkpt>
      <trkpt lat="49.33484" lon="0.03067">
        <ele>-363.39999389648</ele>
        <time>2022-08-29T15:01:10Z</time>
      </trkpt>
      <trkpt lat="49.33485" lon="0.0307">
        <ele>-363.39999389648</ele>
        <time>2022-08-29T15:01:11Z</time>
      </trkpt>
      <trkpt lat="49.33485" lon="0.03072">
        <ele>-363.39999389648</ele>
        <time>2022-08-29T15:01:12Z</time>
      </trkpt>
      <trkpt lat="49.33491" lon="0.03082">
        <ele>-363</ele>
        <time>2022-08-29T15:01:21Z</time>
      </trkpt>
      <trkpt lat="49.33492" lon="0.03083">
        <ele>-363</ele>
        <time>2022-08-29T15:01:22Z</time>
      </trkpt>
      <trkpt lat="49.33492" lon="0.03086">
        <ele>-363</ele>
        <time>2022-08-29T15:01:23Z</time>
      </trkpt>
      <trkpt lat="49.33493" lon="0.03088">
        <ele>-363</ele>
        <time>2022-08-29T15:01:24Z</time>
      </trkpt>
      <trkpt lat="49.33494" lon="0.03092">
        <ele>-363</ele>
        <time>2022-08-29T15:01:25Z</time>
      </trkpt>
      <trkpt lat="49.33498" lon="0.03102">
        <ele>-363.60000610352</ele>
        <time>2022-08-29T15:01:35Z</time>
      </trkpt>
      <trkpt lat="49.335" lon="0.03107">
        <ele>-363.79998779297</ele>
        <time>2022-08-29T15:01:37Z</time>
      </trkpt>
      <trkpt lat="49.33498" lon="0.03112">
        <ele>-363.79998779297</ele>
        <time>2022-08-29T15:01:40Z</time>
      </trkpt>
      <trkpt lat="49.33499" lon="0.03113">
        <ele>-363.79998779297</ele>
        <time>2022-08-29T15:01:41Z</time>
      </trkpt>
      <trkpt lat="49.33495" lon="0.03119">
        <ele>-363.79998779297</ele>
        <time>2022-08-29T15:01:46Z</time>
      </trkpt>
      <trkpt lat="49.33487" lon="0.03124">
        <ele>-363.79998779297</ele>
        <time>2022-08-29T15:01:50Z</time>
      </trkpt>
      <trkpt lat="49.33479" lon="0.03131">
        <ele>-363.79998779297</ele>
        <time>2022-08-29T15:01:57Z</time>
      </trkpt>
      <trkpt lat="49.33478" lon="0.03133">
        <ele>-363.79998779297</ele>
        <time>2022-08-29T15:01:58Z</time>
      </trkpt>
      <trkpt lat="49.33476" lon="0.03134">
        <ele>-363.79998779297</ele>
        <time>2022-08-29T15:01:59Z</time>
      </trkpt>
      <trkpt lat="49.33475" lon="0.03136">
        <ele>-363.79998779297</ele>
        <time>2022-08-29T15:02:00Z</time>
      </trkpt>
      <trkpt lat="49.33473" lon="0.03137">
        <ele>-363.79998779297</ele>
        <time>2022-08-29T15:02:01Z</time>
      </trkpt>
      <trkpt lat="49.33471" lon="0.03139">
        <ele>-363.79998779297</ele>
        <time>2022-08-29T15:02:02Z</time>
      </trkpt>
      <trkpt lat="49.33469" lon="0.03141">
        <ele>-363.79998779297</ele>
        <time>2022-08-29T15:02:03Z</time>
      </trkpt>
      <trkpt lat="49.33467" lon="0.03143">
        <ele>-364</ele>
        <time>2022-08-29T15:02:04Z</time>
      </trkpt>
      <trkpt lat="49.33462" lon="0.03149">
        <ele>-364</ele>
        <time>2022-08-29T15:02:11Z</time>
      </trkpt>
      <trkpt lat="49.33461" lon="0.03151">
        <ele>-364</ele>
        <time>2022-08-29T15:02:13Z</time>
      </trkpt>
      <trkpt lat="49.33459" lon="0.03153">
        <ele>-364</ele>
        <time>2022-08-29T15:02:14Z</time>
      </trkpt>
      <trkpt lat="49.33458" lon="0.03154">
        <ele>-364</ele>
        <time>2022-08-29T15:02:15Z</time>
      </trkpt>
      <trkpt lat="49.33457" lon="0.03155">
        <ele>-364.20001220703</ele>
        <time>2022-08-29T15:02:16Z</time>
      </trkpt>
      <trkpt lat="49.33456" lon="0.03156">
        <ele>-364.39999389648</ele>
        <time>2022-08-29T15:02:17Z</time>
      </trkpt>
      <trkpt lat="49.33444" lon="0.03173">
        <ele>-364.79998779297</ele>
        <time>2022-08-29T15:02:27Z</time>
      </trkpt>
      <trkpt lat="49.33441" lon="0.03176">
        <ele>-364.79998779297</ele>
        <time>2022-08-29T15:02:32Z</time>
      </trkpt>
      <trkpt lat="49.33439" lon="0.03177">
        <ele>-365</ele>
        <time>2022-08-29T15:02:33Z</time>
      </trkpt>
      <trkpt lat="49.33437" lon="0.03179">
        <ele>-365</ele>
        <time>2022-08-29T15:02:34Z</time>
      </trkpt>
      <trkpt lat="49.33435" lon="0.03181">
        <ele>-365</ele>
        <time>2022-08-29T15:02:35Z</time>
      </trkpt>
      <trkpt lat="49.33434" lon="0.03183">
        <ele>-365</ele>
        <time>2022-08-29T15:02:36Z</time>
      </trkpt>
      <trkpt lat="49.3343" lon="0.03192">
        <ele>-365</ele>
        <time>2022-08-29T15:02:42Z</time>
      </trkpt>
      <trkpt lat="49.33427" lon="0.03204">
        <ele>-364.79998779297</ele>
        <time>2022-08-29T15:02:53Z</time>
      </trkpt>
      <trkpt lat="49.33427" lon="0.03207">
        <ele>-364.79998779297</ele>
        <time>2022-08-29T15:02:54Z</time>
      </trkpt>
      <trkpt lat="49.33425" lon="0.0321">
        <ele>-364.79998779297</ele>
        <time>2022-08-29T15:02:56Z</time>
      </trkpt>
      <trkpt lat="49.3342" lon="0.03218">
        <ele>-364.79998779297</ele>
        <time>2022-08-29T15:03:00Z</time>
      </trkpt>
      <trkpt lat="49.33419" lon="0.03221">
        <ele>-364.79998779297</ele>
        <time>2022-08-29T15:03:01Z</time>
      </trkpt>
      <trkpt lat="49.33408" lon="0.03237">
        <ele>-364.79998779297</ele>
        <time>2022-08-29T15:03:15Z</time>
      </trkpt>
      <trkpt lat="49.33407" lon="0.03239">
        <ele>-364.79998779297</ele>
        <time>2022-08-29T15:03:16Z</time>
      </trkpt>
      <trkpt lat="49.33406" lon="0.03241">
        <ele>-364.79998779297</ele>
        <time>2022-08-29T15:03:17Z</time>
      </trkpt>
      <trkpt lat="49.33405" lon="0.03243">
        <ele>-364.79998779297</ele>
        <time>2022-08-29T15:03:18Z</time>
      </trkpt>
      <trkpt lat="49.33396" lon="0.03259">
        <ele>-364.39999389648</ele>
        <time>2022-08-29T15:03:30Z</time>
      </trkpt>
      <trkpt lat="49.33394" lon="0.03262">
        <ele>-364.39999389648</ele>
        <time>2022-08-29T15:03:31Z</time>
      </trkpt>
      <trkpt lat="49.33392" lon="0.03265">
        <ele>-364.20001220703</ele>
        <time>2022-08-29T15:03:32Z</time>
      </trkpt>
      <trkpt lat="49.33391" lon="0.03268">
        <ele>-364.20001220703</ele>
        <time>2022-08-29T15:03:33Z</time>
      </trkpt>
      <trkpt lat="49.33389" lon="0.0327">
        <ele>-364.20001220703</ele>
        <time>2022-08-29T15:03:34Z</time>
      </trkpt>
      <trkpt lat="49.33384" lon="0.0328">
        <ele>-364</ele>
        <time>2022-08-29T15:03:44Z</time>
      </trkpt>
      <trkpt lat="49.33383" lon="0.03281">
        <ele>-364</ele>
        <time>2022-08-29T15:03:45Z</time>
      </trkpt>
      <trkpt lat="49.33382" lon="0.03282">
        <ele>-364</ele>
        <time>2022-08-29T15:03:46Z</time>
      </trkpt>
      <trkpt lat="49.33371" lon="0.033">
        <ele>-363.39999389648</ele>
        <time>2022-08-29T15:03:55Z</time>
      </trkpt>
      <trkpt lat="49.3337" lon="0.03302">
        <ele>-363.39999389648</ele>
        <time>2022-08-29T15:03:56Z</time>
      </trkpt>
      <trkpt lat="49.33363" lon="0.03315">
        <ele>-363.20001220703</ele>
        <time>2022-08-29T15:04:07Z</time>
      </trkpt>
      <trkpt lat="49.33363" lon="0.03316">
        <ele>-363.20001220703</ele>
        <time>2022-08-29T15:04:08Z</time>
      </trkpt>
      <trkpt lat="49.33362" lon="0.03317">
        <ele>-363.20001220703</ele>
        <time>2022-08-29T15:04:09Z</time>
      </trkpt>
      <trkpt lat="49.33361" lon="0.03319">
        <ele>-363.20001220703</ele>
        <time>2022-08-29T15:04:10Z</time>
      </trkpt>
      <trkpt lat="49.33359" lon="0.03322">
        <ele>-363.20001220703</ele>
        <time>2022-08-29T15:04:11Z</time>
      </trkpt>
      <trkpt lat="49.33358" lon="0.03325">
        <ele>-363.20001220703</ele>
        <time>2022-08-29T15:04:12Z</time>
      </trkpt>
      <trkpt lat="49.3335" lon="0.0334">
        <ele>-363.20001220703</ele>
        <time>2022-08-29T15:04:22Z</time>
      </trkpt>
      <trkpt lat="49.33349" lon="0.03341">
        <ele>-363.20001220703</ele>
        <time>2022-08-29T15:04:23Z</time>
      </trkpt>
      <trkpt lat="49.33348" lon="0.03344">
        <ele>-363.60000610352</ele>
        <time>2022-08-29T15:04:25Z</time>
      </trkpt>
      <trkpt lat="49.3334" lon="0.03358">
        <ele>-364.20001220703</ele>
        <time>2022-08-29T15:04:34Z</time>
      </trkpt>
      <trkpt lat="49.33339" lon="0.03362">
        <ele>-364.20001220703</ele>
        <time>2022-08-29T15:04:38Z</time>
      </trkpt>
      <trkpt lat="49.33334" lon="0.03369">
        <ele>-364.39999389648</ele>
        <time>2022-08-29T15:04:43Z</time>
      </trkpt>
      <trkpt lat="49.33332" lon="0.03372">
        <ele>-364.39999389648</ele>
        <time>2022-08-29T15:04:44Z</time>
      </trkpt>
      <trkpt lat="49.33331" lon="0.03375">
        <ele>-364.39999389648</ele>
        <time>2022-08-29T15:04:45Z</time>
      </trkpt>
      <trkpt lat="49.3333" lon="0.03378">
        <ele>-364.20001220703</ele>
        <time>2022-08-29T15:04:46Z</time>
      </trkpt>
      <trkpt lat="49.33328" lon="0.0338">
        <ele>-364.20001220703</ele>
        <time>2022-08-29T15:04:47Z</time>
      </trkpt>
      <trkpt lat="49.33327" lon="0.03382">
        <ele>-364.20001220703</ele>
        <time>2022-08-29T15:04:48Z</time>
      </trkpt>
      <trkpt lat="49.33322" lon="0.0339">
        <ele>-364.39999389648</ele>
        <time>2022-08-29T15:04:57Z</time>
      </trkpt>
      <trkpt lat="49.33321" lon="0.03392">
        <ele>-364.39999389648</ele>
        <time>2022-08-29T15:04:58Z</time>
      </trkpt>
      <trkpt lat="49.33318" lon="0.03396">
        <ele>-364.39999389648</ele>
        <time>2022-08-29T15:05:01Z</time>
      </trkpt>
      <trkpt lat="49.33317" lon="0.03399">
        <ele>-364.39999389648</ele>
        <time>2022-08-29T15:05:02Z</time>
      </trkpt>
      <trkpt lat="49.33316" lon="0.03402">
        <ele>-364.39999389648</ele>
        <time>2022-08-29T15:05:03Z</time>
      </trkpt>
      <trkpt lat="49.33314" lon="0.03405">
        <ele>-364.39999389648</ele>
        <time>2022-08-29T15:05:04Z</time>
      </trkpt>
      <trkpt lat="49.33313" lon="0.03406">
        <ele>-364.39999389648</ele>
        <time>2022-08-29T15:05:05Z</time>
      </trkpt>
      <trkpt lat="49.33309" lon="0.03413">
        <ele>-364.60000610352</ele>
        <time>2022-08-29T15:05:12Z</time>
      </trkpt>
      <trkpt lat="49.33308" lon="0.03415">
        <ele>-364.60000610352</ele>
        <time>2022-08-29T15:05:13Z</time>
      </trkpt>
      <trkpt lat="49.33306" lon="0.03418">
        <ele>-364.60000610352</ele>
        <time>2022-08-29T15:05:16Z</time>
      </trkpt>
      <trkpt lat="49.33305" lon="0.0342">
        <ele>-364.60000610352</ele>
        <time>2022-08-29T15:05:17Z</time>
      </trkpt>
      <trkpt lat="49.33304" lon="0.03422">
        <ele>-364.60000610352</ele>
        <time>2022-08-29T15:05:18Z</time>
      </trkpt>
      <trkpt lat="49.33302" lon="0.03425">
        <ele>-364.60000610352</ele>
        <time>2022-08-29T15:05:19Z</time>
      </trkpt>
      <trkpt lat="49.33301" lon="0.03428">
        <ele>-364.60000610352</ele>
        <time>2022-08-29T15:05:20Z</time>
      </trkpt>
      <trkpt lat="49.33299" lon="0.0343">
        <ele>-364.60000610352</ele>
        <time>2022-08-29T15:05:21Z</time>
      </trkpt>
      <trkpt lat="49.33298" lon="0.03432">
        <ele>-364.60000610352</ele>
        <time>2022-08-29T15:05:22Z</time>
      </trkpt>
      <trkpt lat="49.33297" lon="0.03433">
        <ele>-364.60000610352</ele>
        <time>2022-08-29T15:05:23Z</time>
      </trkpt>
      <trkpt lat="49.33292" lon="0.03439">
        <ele>-364.60000610352</ele>
        <time>2022-08-29T15:05:30Z</time>
      </trkpt>
      <trkpt lat="49.33287" lon="0.03449">
        <ele>-364.60000610352</ele>
        <time>2022-08-29T15:05:35Z</time>
      </trkpt>
      <trkpt lat="49.33283" lon="0.0346">
        <ele>-364</ele>
        <time>2022-08-29T15:05:45Z</time>
      </trkpt>
      <trkpt lat="49.33283" lon="0.03462">
        <ele>-364</ele>
        <time>2022-08-29T15:05:46Z</time>
      </trkpt>
      <trkpt lat="49.33282" lon="0.03464">
        <ele>-364</ele>
        <time>2022-08-29T15:05:47Z</time>
      </trkpt>
      <trkpt lat="49.3327" lon="0.03488">
        <ele>-363.79998779297</ele>
        <time>2022-08-29T15:05:59Z</time>
      </trkpt>
      <trkpt lat="49.33269" lon="0.03493">
        <ele>-363.79998779297</ele>
        <time>2022-08-29T15:06:04Z</time>
      </trkpt>
      <trkpt lat="49.33268" lon="0.03494">
        <ele>-363.79998779297</ele>
        <time>2022-08-29T15:06:05Z</time>
      </trkpt>
      <trkpt lat="49.33267" lon="0.03495">
        <ele>-363.79998779297</ele>
        <time>2022-08-29T15:06:06Z</time>
      </trkpt>
      <trkpt lat="49.33263" lon="0.035">
        <ele>-363.79998779297</ele>
        <time>2022-08-29T15:06:10Z</time>
      </trkpt>
      <trkpt lat="49.33262" lon="0.03503">
        <ele>-363.79998779297</ele>
        <time>2022-08-29T15:06:11Z</time>
      </trkpt>
      <trkpt lat="49.33261" lon="0.03504">
        <ele>-363.79998779297</ele>
        <time>2022-08-29T15:06:12Z</time>
      </trkpt>
      <trkpt lat="49.33258" lon="0.03509">
        <ele>-363.79998779297</ele>
        <time>2022-08-29T15:06:17Z</time>
      </trkpt>
      <trkpt lat="49.33256" lon="0.03509">
        <ele>-363.79998779297</ele>
        <time>2022-08-29T15:06:18Z</time>
      </trkpt>
      <trkpt lat="49.33251" lon="0.03515">
        <ele>-363.79998779297</ele>
        <time>2022-08-29T15:06:22Z</time>
      </trkpt>
      <trkpt lat="49.33249" lon="0.03521">
        <ele>-363.79998779297</ele>
        <time>2022-08-29T15:06:29Z</time>
      </trkpt>
      <trkpt lat="49.33252" lon="0.03528">
        <ele>-363.60000610352</ele>
        <time>2022-08-29T15:06:39Z</time>
      </trkpt>
      <trkpt lat="49.3327" lon="0.03535">
        <ele>-363.20001220703</ele>
        <time>2022-08-29T15:06:57Z</time>
      </trkpt>
      <trkpt lat="49.33275" lon="0.03535">
        <ele>-363.20001220703</ele>
        <time>2022-08-29T15:07:03Z</time>
      </trkpt>
      <trkpt lat="49.33287" lon="0.03543">
        <ele>-363.20001220703</ele>
        <time>2022-08-29T15:07:13Z</time>
      </trkpt>
      <trkpt lat="49.33292" lon="0.03547">
        <ele>-363</ele>
        <time>2022-08-29T15:07:18Z</time>
      </trkpt>
      <trkpt lat="49.33297" lon="0.03553">
        <ele>-363</ele>
        <time>2022-08-29T15:07:24Z</time>
      </trkpt>
      <trkpt lat="49.33301" lon="0.03559">
        <ele>-363</ele>
        <time>2022-08-29T15:07:29Z</time>
      </trkpt>
      <trkpt lat="49.33304" lon="0.03562">
        <ele>-363</ele>
        <time>2022-08-29T15:07:31Z</time>
      </trkpt>
      <trkpt lat="49.33306" lon="0.03563">
        <ele>-363</ele>
        <time>2022-08-29T15:07:32Z</time>
      </trkpt>
      <trkpt lat="49.33308" lon="0.03565">
        <ele>-363</ele>
        <time>2022-08-29T15:07:33Z</time>
      </trkpt>
      <trkpt lat="49.3331" lon="0.03567">
        <ele>-363</ele>
        <time>2022-08-29T15:07:34Z</time>
      </trkpt>
      <trkpt lat="49.33312" lon="0.03569">
        <ele>-363</ele>
        <time>2022-08-29T15:07:35Z</time>
      </trkpt>
      <trkpt lat="49.33313" lon="0.03571">
        <ele>-363</ele>
        <time>2022-08-29T15:07:36Z</time>
      </trkpt>
      <trkpt lat="49.33314" lon="0.03572">
        <ele>-362.79998779297</ele>
        <time>2022-08-29T15:07:37Z</time>
      </trkpt>
      <trkpt lat="49.33317" lon="0.03575">
        <ele>-362.79998779297</ele>
        <time>2022-08-29T15:07:42Z</time>
      </trkpt>
      <trkpt lat="49.33325" lon="0.03579">
        <ele>-362.79998779297</ele>
        <time>2022-08-29T15:07:48Z</time>
      </trkpt>
      <trkpt lat="49.33326" lon="0.03579">
        <ele>-362.60000610352</ele>
        <time>2022-08-29T15:07:49Z</time>
      </trkpt>
      <trkpt lat="49.33328" lon="0.03579">
        <ele>-362.60000610352</ele>
        <time>2022-08-29T15:07:50Z</time>
      </trkpt>
      <trkpt lat="49.33329" lon="0.03579">
        <ele>-362.60000610352</ele>
        <time>2022-08-29T15:07:51Z</time>
      </trkpt>
      <trkpt lat="49.33331" lon="0.03578">
        <ele>-362.60000610352</ele>
        <time>2022-08-29T15:07:52Z</time>
      </trkpt>
      <trkpt lat="49.33333" lon="0.03578">
        <ele>-362.60000610352</ele>
        <time>2022-08-29T15:07:53Z</time>
      </trkpt>
      <trkpt lat="49.33335" lon="0.03578">
        <ele>-362.60000610352</ele>
        <time>2022-08-29T15:07:54Z</time>
      </trkpt>
      <trkpt lat="49.33341" lon="0.03576">
        <ele>-362.39999389648</ele>
        <time>2022-08-29T15:08:03Z</time>
      </trkpt>
      <trkpt lat="49.33343" lon="0.03575">
        <ele>-362.39999389648</ele>
        <time>2022-08-29T15:08:04Z</time>
      </trkpt>
      <trkpt lat="49.33345" lon="0.03574">
        <ele>-362.39999389648</ele>
        <time>2022-08-29T15:08:06Z</time>
      </trkpt>
      <trkpt lat="49.33346" lon="0.03573">
        <ele>-362.39999389648</ele>
        <time>2022-08-29T15:08:07Z</time>
      </trkpt>
      <trkpt lat="49.33347" lon="0.03573">
        <ele>-362.20001220703</ele>
        <time>2022-08-29T15:08:08Z</time>
      </trkpt>
      <trkpt lat="49.33348" lon="0.03572">
        <ele>-362.20001220703</ele>
        <time>2022-08-29T15:08:09Z</time>
      </trkpt>
      <trkpt lat="49.33349" lon="0.03571">
        <ele>-362.20001220703</ele>
        <time>2022-08-29T15:08:10Z</time>
      </trkpt>
      <trkpt lat="49.33351" lon="0.03568">
        <ele>-362.20001220703</ele>
        <time>2022-08-29T15:08:11Z</time>
      </trkpt>
      <trkpt lat="49.33353" lon="0.03565">
        <ele>-362.20001220703</ele>
        <time>2022-08-29T15:08:12Z</time>
      </trkpt>
      <trkpt lat="49.33362" lon="0.03549">
        <ele>-362</ele>
        <time>2022-08-29T15:08:22Z</time>
      </trkpt>
      <trkpt lat="49.33366" lon="0.03541">
        <ele>-361.79998779297</ele>
        <time>2022-08-29T15:08:31Z</time>
      </trkpt>
      <trkpt lat="49.33366" lon="0.03539">
        <ele>-361.79998779297</ele>
        <time>2022-08-29T15:08:32Z</time>
      </trkpt>
      <trkpt lat="49.33367" lon="0.03537">
        <ele>-361.79998779297</ele>
        <time>2022-08-29T15:08:33Z</time>
      </trkpt>
      <trkpt lat="49.33368" lon="0.03535">
        <ele>-361.79998779297</ele>
        <time>2022-08-29T15:08:34Z</time>
      </trkpt>
      <trkpt lat="49.3337" lon="0.03533">
        <ele>-361.79998779297</ele>
        <time>2022-08-29T15:08:36Z</time>
      </trkpt>
      <trkpt lat="49.33372" lon="0.03532">
        <ele>-362</ele>
        <time>2022-08-29T15:08:37Z</time>
      </trkpt>
      <trkpt lat="49.33373" lon="0.0353">
        <ele>-362</ele>
        <time>2022-08-29T15:08:38Z</time>
      </trkpt>
      <trkpt lat="49.33374" lon="0.03527">
        <ele>-362</ele>
        <time>2022-08-29T15:08:39Z</time>
      </trkpt>
      <trkpt lat="49.33374" lon="0.03523">
        <ele>-362</ele>
        <time>2022-08-29T15:08:40Z</time>
      </trkpt>
      <trkpt lat="49.33382" lon="0.03507">
        <ele>-362</ele>
        <time>2022-08-29T15:08:50Z</time>
      </trkpt>
      <trkpt lat="49.33381" lon="0.03512">
        <ele>-362</ele>
        <time>2022-08-29T15:08:53Z</time>
      </trkpt>
      <trkpt lat="49.33381" lon="0.03515">
        <ele>-362</ele>
        <time>2022-08-29T15:08:54Z</time>
      </trkpt>
      <trkpt lat="49.3338" lon="0.03518">
        <ele>-362</ele>
        <time>2022-08-29T15:08:55Z</time>
      </trkpt>
      <trkpt lat="49.33379" lon="0.03521">
        <ele>-362.20001220703</ele>
        <time>2022-08-29T15:08:56Z</time>
      </trkpt>
      <trkpt lat="49.33377" lon="0.03524">
        <ele>-362.20001220703</ele>
        <time>2022-08-29T15:08:57Z</time>
      </trkpt>
      <trkpt lat="49.33376" lon="0.03527">
        <ele>-362.39999389648</ele>
        <time>2022-08-29T15:08:58Z</time>
      </trkpt>
      <trkpt lat="49.33376" lon="0.0353">
        <ele>-362.39999389648</ele>
        <time>2022-08-29T15:08:59Z</time>
      </trkpt>
      <trkpt lat="49.33375" lon="0.03532">
        <ele>-362.39999389648</ele>
        <time>2022-08-29T15:09:00Z</time>
      </trkpt>
      <trkpt lat="49.33382" lon="0.03543">
        <ele>-362.39999389648</ele>
        <time>2022-08-29T15:09:11Z</time>
      </trkpt>
      <trkpt lat="49.33383" lon="0.03544">
        <ele>-362.39999389648</ele>
        <time>2022-08-29T15:09:12Z</time>
      </trkpt>
      <trkpt lat="49.33385" lon="0.03546">
        <ele>-362.39999389648</ele>
        <time>2022-08-29T15:09:13Z</time>
      </trkpt>
      <trkpt lat="49.33386" lon="0.03547">
        <ele>-362.20001220703</ele>
        <time>2022-08-29T15:09:14Z</time>
      </trkpt>
      <trkpt lat="49.33388" lon="0.03549">
        <ele>-362.20001220703</ele>
        <time>2022-08-29T15:09:15Z</time>
      </trkpt>
      <trkpt lat="49.33389" lon="0.03551">
        <ele>-362</ele>
        <time>2022-08-29T15:09:16Z</time>
      </trkpt>
      <trkpt lat="49.3339" lon="0.03553">
        <ele>-362</ele>
        <time>2022-08-29T15:09:17Z</time>
      </trkpt>
      <trkpt lat="49.33398" lon="0.03562">
        <ele>-360.20001220703</ele>
        <time>2022-08-29T15:09:29Z</time>
      </trkpt>
      <trkpt lat="49.334" lon="0.03563">
        <ele>-360</ele>
        <time>2022-08-29T15:09:30Z</time>
      </trkpt>
      <trkpt lat="49.33402" lon="0.03564">
        <ele>-359.79998779297</ele>
        <time>2022-08-29T15:09:31Z</time>
      </trkpt>
      <trkpt lat="49.33403" lon="0.03565">
        <ele>-359.60000610352</ele>
        <time>2022-08-29T15:09:32Z</time>
      </trkpt>
      <trkpt lat="49.33405" lon="0.03567">
        <ele>-359.39999389648</ele>
        <time>2022-08-29T15:09:33Z</time>
      </trkpt>
      <trkpt lat="49.33407" lon="0.03569">
        <ele>-359.39999389648</ele>
        <time>2022-08-29T15:09:34Z</time>
      </trkpt>
      <trkpt lat="49.33409" lon="0.0357">
        <ele>-359.20001220703</ele>
        <time>2022-08-29T15:09:35Z</time>
      </trkpt>
      <trkpt lat="49.3342" lon="0.0358">
        <ele>-357.39999389648</ele>
        <time>2022-08-29T15:09:49Z</time>
      </trkpt>
      <trkpt lat="49.3344" lon="0.03605">
        <ele>-355</ele>
        <time>2022-08-29T15:10:10Z</time>
      </trkpt>
      <trkpt lat="49.33455" lon="0.03622">
        <ele>-353.79998779297</ele>
        <time>2022-08-29T15:10:24Z</time>
      </trkpt>
      <trkpt lat="49.33459" lon="0.03626">
        <ele>-353.39999389648</ele>
        <time>2022-08-29T15:10:30Z</time>
      </trkpt>
      <trkpt lat="49.3346" lon="0.03627">
        <ele>-353.39999389648</ele>
        <time>2022-08-29T15:10:31Z</time>
      </trkpt>
      <trkpt lat="49.33463" lon="0.0363">
        <ele>-353</ele>
        <time>2022-08-29T15:10:34Z</time>
      </trkpt>
      <trkpt lat="49.33465" lon="0.03632">
        <ele>-353</ele>
        <time>2022-08-29T15:10:35Z</time>
      </trkpt>
      <trkpt lat="49.33466" lon="0.03633">
        <ele>-353</ele>
        <time>2022-08-29T15:10:36Z</time>
      </trkpt>
      <trkpt lat="49.33468" lon="0.03634">
        <ele>-352.79998779297</ele>
        <time>2022-08-29T15:10:37Z</time>
      </trkpt>
      <trkpt lat="49.3347" lon="0.03636">
        <ele>-352.79998779297</ele>
        <time>2022-08-29T15:10:38Z</time>
      </trkpt>
      <trkpt lat="49.33472" lon="0.03637">
        <ele>-352.79998779297</ele>
        <time>2022-08-29T15:10:39Z</time>
      </trkpt>
      <trkpt lat="49.33473" lon="0.03639">
        <ele>-352.60000610352</ele>
        <time>2022-08-29T15:10:40Z</time>
      </trkpt>
      <trkpt lat="49.33477" lon="0.03641">
        <ele>-352.39999389648</ele>
        <time>2022-08-29T15:10:44Z</time>
      </trkpt>
      <trkpt lat="49.33482" lon="0.03645">
        <ele>-352</ele>
        <time>2022-08-29T15:10:50Z</time>
      </trkpt>
      <trkpt lat="49.33483" lon="0.03647">
        <ele>-352</ele>
        <time>2022-08-29T15:10:51Z</time>
      </trkpt>
      <trkpt lat="49.33494" lon="0.03654">
        <ele>-351.20001220703</ele>
        <time>2022-08-29T15:11:02Z</time>
      </trkpt>
      <trkpt lat="49.33498" lon="0.03651">
        <ele>-351</ele>
        <time>2022-08-29T15:11:06Z</time>
      </trkpt>
      <trkpt lat="49.335" lon="0.0365">
        <ele>-351</ele>
        <time>2022-08-29T15:11:07Z</time>
      </trkpt>
      <trkpt lat="49.3351" lon="0.03642">
        <ele>-350.60000610352</ele>
        <time>2022-08-29T15:11:17Z</time>
      </trkpt>
      <trkpt lat="49.33511" lon="0.03642">
        <ele>-350.60000610352</ele>
        <time>2022-08-29T15:11:18Z</time>
      </trkpt>
      <trkpt lat="49.33513" lon="0.03642">
        <ele>-350.60000610352</ele>
        <time>2022-08-29T15:11:19Z</time>
      </trkpt>
      <trkpt lat="49.33514" lon="0.03641">
        <ele>-350.60000610352</ele>
        <time>2022-08-29T15:11:20Z</time>
      </trkpt>
      <trkpt lat="49.33516" lon="0.03639">
        <ele>-350.60000610352</ele>
        <time>2022-08-29T15:11:21Z</time>
      </trkpt>
      <trkpt lat="49.33517" lon="0.03637">
        <ele>-350.60000610352</ele>
        <time>2022-08-29T15:11:22Z</time>
      </trkpt>
      <trkpt lat="49.33519" lon="0.03635">
        <ele>-350.60000610352</ele>
        <time>2022-08-29T15:11:23Z</time>
      </trkpt>
      <trkpt lat="49.33521" lon="0.03633">
        <ele>-350.60000610352</ele>
        <time>2022-08-29T15:11:24Z</time>
      </trkpt>
      <trkpt lat="49.33522" lon="0.03632">
        <ele>-350.60000610352</ele>
        <time>2022-08-29T15:11:25Z</time>
      </trkpt>
      <trkpt lat="49.3353" lon="0.03636">
        <ele>-350.39999389648</ele>
        <time>2022-08-29T15:11:35Z</time>
      </trkpt>
      <trkpt lat="49.33531" lon="0.03637">
        <ele>-350.39999389648</ele>
        <time>2022-08-29T15:11:36Z</time>
      </trkpt>
      <trkpt lat="49.33532" lon="0.03638">
        <ele>-350.20001220703</ele>
        <time>2022-08-29T15:11:37Z</time>
      </trkpt>
      <trkpt lat="49.33534" lon="0.03638">
        <ele>-350.20001220703</ele>
        <time>2022-08-29T15:11:38Z</time>
      </trkpt>
      <trkpt lat="49.33536" lon="0.03639">
        <ele>-350.20001220703</ele>
        <time>2022-08-29T15:11:39Z</time>
      </trkpt>
      <trkpt lat="49.33538" lon="0.03639">
        <ele>-350.20001220703</ele>
        <time>2022-08-29T15:11:40Z</time>
      </trkpt>
      <trkpt lat="49.33545" lon="0.03639">
        <ele>-349</ele>
        <time>2022-08-29T15:11:49Z</time>
      </trkpt>
      <trkpt lat="49.33557" lon="0.03635">
        <ele>-347.79998779297</ele>
        <time>2022-08-29T15:12:03Z</time>
      </trkpt>
      <trkpt lat="49.33558" lon="0.03633">
        <ele>-347.60000610352</ele>
        <time>2022-08-29T15:12:04Z</time>
      </trkpt>
      <trkpt lat="49.3356" lon="0.0363">
        <ele>-347.39999389648</ele>
        <time>2022-08-29T15:12:05Z</time>
      </trkpt>
      <trkpt lat="49.33561" lon="0.03627">
        <ele>-347.20001220703</ele>
        <time>2022-08-29T15:12:06Z</time>
      </trkpt>
      <trkpt lat="49.33563" lon="0.03624">
        <ele>-347</ele>
        <time>2022-08-29T15:12:07Z</time>
      </trkpt>
      <trkpt lat="49.33565" lon="0.03622">
        <ele>-346.79998779297</ele>
        <time>2022-08-29T15:12:08Z</time>
      </trkpt>
      <trkpt lat="49.33566" lon="0.03621">
        <ele>-346.79998779297</ele>
        <time>2022-08-29T15:12:09Z</time>
      </trkpt>
      <trkpt lat="49.33568" lon="0.03621">
        <ele>-346.79998779297</ele>
        <time>2022-08-29T15:12:10Z</time>
      </trkpt>
      <trkpt lat="49.33574" lon="0.03616">
        <ele>-345.60000610352</ele>
        <time>2022-08-29T15:12:21Z</time>
      </trkpt>
      <trkpt lat="49.33575" lon="0.03615">
        <ele>-345.39999389648</ele>
        <time>2022-08-29T15:12:22Z</time>
      </trkpt>
      <trkpt lat="49.33577" lon="0.03613">
        <ele>-345</ele>
        <time>2022-08-29T15:12:24Z</time>
      </trkpt>
      <trkpt lat="49.3359" lon="0.03603">
        <ele>-344.20001220703</ele>
        <time>2022-08-29T15:12:34Z</time>
      </trkpt>
      <trkpt lat="49.33591" lon="0.03602">
        <ele>-344</ele>
        <time>2022-08-29T15:12:35Z</time>
      </trkpt>
      <trkpt lat="49.33592" lon="0.03602">
        <ele>-344</ele>
        <time>2022-08-29T15:12:36Z</time>
      </trkpt>
      <trkpt lat="49.33593" lon="0.03602">
        <ele>-344</ele>
        <time>2022-08-29T15:12:37Z</time>
      </trkpt>
      <trkpt lat="49.33595" lon="0.03601">
        <ele>-343.79998779297</ele>
        <time>2022-08-29T15:12:38Z</time>
      </trkpt>
      <trkpt lat="49.33597" lon="0.03599">
        <ele>-343.79998779297</ele>
        <time>2022-08-29T15:12:39Z</time>
      </trkpt>
      <trkpt lat="49.33599" lon="0.03597">
        <ele>-343.79998779297</ele>
        <time>2022-08-29T15:12:40Z</time>
      </trkpt>
      <trkpt lat="49.33613" lon="0.03587">
        <ele>-342.60000610352</ele>
        <time>2022-08-29T15:12:51Z</time>
      </trkpt>
      <trkpt lat="49.33616" lon="0.03585">
        <ele>-342.20001220703</ele>
        <time>2022-08-29T15:12:55Z</time>
      </trkpt>
      <trkpt lat="49.33618" lon="0.03584">
        <ele>-342</ele>
        <time>2022-08-29T15:12:57Z</time>
      </trkpt>
      <trkpt lat="49.33619" lon="0.03583">
        <ele>-342</ele>
        <time>2022-08-29T15:12:58Z</time>
      </trkpt>
      <trkpt lat="49.33621" lon="0.03581">
        <ele>-341.79998779297</ele>
        <time>2022-08-29T15:12:59Z</time>
      </trkpt>
      <trkpt lat="49.33622" lon="0.03579">
        <ele>-341.79998779297</ele>
        <time>2022-08-29T15:13:00Z</time>
      </trkpt>
      <trkpt lat="49.33624" lon="0.03577">
        <ele>-341.79998779297</ele>
        <time>2022-08-29T15:13:01Z</time>
      </trkpt>
      <trkpt lat="49.33626" lon="0.03575">
        <ele>-341.60000610352</ele>
        <time>2022-08-29T15:13:02Z</time>
      </trkpt>
      <trkpt lat="49.33627" lon="0.03574">
        <ele>-341.60000610352</ele>
        <time>2022-08-29T15:13:03Z</time>
      </trkpt>
      <trkpt lat="49.33629" lon="0.03573">
        <ele>-341.60000610352</ele>
        <time>2022-08-29T15:13:04Z</time>
      </trkpt>
      <trkpt lat="49.33637" lon="0.03569">
        <ele>-340.79998779297</ele>
        <time>2022-08-29T15:13:15Z</time>
      </trkpt>
      <trkpt lat="49.33642" lon="0.03566">
        <ele>-340.39999389648</ele>
        <time>2022-08-29T15:13:20Z</time>
      </trkpt>
      <trkpt lat="49.33643" lon="0.03566">
        <ele>-340.39999389648</ele>
        <time>2022-08-29T15:13:21Z</time>
      </trkpt>
      <trkpt lat="49.33644" lon="0.03565">
        <ele>-340.39999389648</ele>
        <time>2022-08-29T15:13:22Z</time>
      </trkpt>
      <trkpt lat="49.33646" lon="0.03563">
        <ele>-340.39999389648</ele>
        <time>2022-08-29T15:13:23Z</time>
      </trkpt>
      <trkpt lat="49.33648" lon="0.0356">
        <ele>-340.20001220703</ele>
        <time>2022-08-29T15:13:24Z</time>
      </trkpt>
      <trkpt lat="49.3366" lon="0.03549">
        <ele>-339.39999389648</ele>
        <time>2022-08-29T15:13:35Z</time>
      </trkpt>
      <trkpt lat="49.33661" lon="0.03546">
        <ele>-339.39999389648</ele>
        <time>2022-08-29T15:13:37Z</time>
      </trkpt>
      <trkpt lat="49.33664" lon="0.03543">
        <ele>-339.20001220703</ele>
        <time>2022-08-29T15:13:40Z</time>
      </trkpt>
      <trkpt lat="49.33665" lon="0.03542">
        <ele>-339</ele>
        <time>2022-08-29T15:13:41Z</time>
      </trkpt>
      <trkpt lat="49.33684" lon="0.03525">
        <ele>-337.60000610352</ele>
        <time>2022-08-29T15:13:59Z</time>
      </trkpt>
      <trkpt lat="49.33689" lon="0.03518">
        <ele>-337.60000610352</ele>
        <time>2022-08-29T15:14:02Z</time>
      </trkpt>
      <trkpt lat="49.3369" lon="0.03515">
        <ele>-337.60000610352</ele>
        <time>2022-08-29T15:14:03Z</time>
      </trkpt>
      <trkpt lat="49.33692" lon="0.03513">
        <ele>-337.60000610352</ele>
        <time>2022-08-29T15:14:04Z</time>
      </trkpt>
      <trkpt lat="49.33693" lon="0.03511">
        <ele>-337.60000610352</ele>
        <time>2022-08-29T15:14:05Z</time>
      </trkpt>
      <trkpt lat="49.33695" lon="0.0351">
        <ele>-337.60000610352</ele>
        <time>2022-08-29T15:14:06Z</time>
      </trkpt>
      <trkpt lat="49.33697" lon="0.03508">
        <ele>-337.60000610352</ele>
        <time>2022-08-29T15:14:07Z</time>
      </trkpt>
      <trkpt lat="49.33705" lon="0.03501">
        <ele>-337.39999389648</ele>
        <time>2022-08-29T15:14:18Z</time>
      </trkpt>
      <trkpt lat="49.33713" lon="0.03493">
        <ele>-337.39999389648</ele>
        <time>2022-08-29T15:14:25Z</time>
      </trkpt>
      <trkpt lat="49.33714" lon="0.03491">
        <ele>-337.39999389648</ele>
        <time>2022-08-29T15:14:26Z</time>
      </trkpt>
      <trkpt lat="49.33716" lon="0.03489">
        <ele>-337.39999389648</ele>
        <time>2022-08-29T15:14:27Z</time>
      </trkpt>
      <trkpt lat="49.33717" lon="0.03488">
        <ele>-337.20001220703</ele>
        <time>2022-08-29T15:14:28Z</time>
      </trkpt>
      <trkpt lat="49.33718" lon="0.03487">
        <ele>-337.20001220703</ele>
        <time>2022-08-29T15:14:29Z</time>
      </trkpt>
      <trkpt lat="49.33719" lon="0.03486">
        <ele>-337.20001220703</ele>
        <time>2022-08-29T15:14:30Z</time>
      </trkpt>
      <trkpt lat="49.33726" lon="0.03476">
        <ele>-337.20001220703</ele>
        <time>2022-08-29T15:14:42Z</time>
      </trkpt>
      <trkpt lat="49.33727" lon="0.03475">
        <ele>-337.20001220703</ele>
        <time>2022-08-29T15:14:43Z</time>
      </trkpt>
      <trkpt lat="49.33729" lon="0.03473">
        <ele>-337.39999389648</ele>
        <time>2022-08-29T15:14:45Z</time>
      </trkpt>
      <trkpt lat="49.33744" lon="0.03457">
        <ele>-337.20001220703</ele>
        <time>2022-08-29T15:14:56Z</time>
      </trkpt>
      <trkpt lat="49.33761" lon="0.03441">
        <ele>-337</ele>
        <time>2022-08-29T15:15:12Z</time>
      </trkpt>
      <trkpt lat="49.33774" lon="0.0343">
        <ele>-336.60000610352</ele>
        <time>2022-08-29T15:15:20Z</time>
      </trkpt>
      <trkpt lat="49.33775" lon="0.0343">
        <ele>-336.60000610352</ele>
        <time>2022-08-29T15:15:21Z</time>
      </trkpt>
      <trkpt lat="49.33784" lon="0.03416">
        <ele>-336</ele>
        <time>2022-08-29T15:15:39Z</time>
      </trkpt>
      <trkpt lat="49.33785" lon="0.03415">
        <ele>-335.79998779297</ele>
        <time>2022-08-29T15:15:40Z</time>
      </trkpt>
      <trkpt lat="49.33806" lon="0.03392">
        <ele>-335</ele>
        <time>2022-08-29T15:15:53Z</time>
      </trkpt>
      <trkpt lat="49.33814" lon="0.03386">
        <ele>-334.60000610352</ele>
        <time>2022-08-29T15:15:58Z</time>
      </trkpt>
      <trkpt lat="49.33817" lon="0.03391">
        <ele>-334.39999389648</ele>
        <time>2022-08-29T15:16:04Z</time>
      </trkpt>
      <trkpt lat="49.33816" lon="0.03401">
        <ele>-334.20001220703</ele>
        <time>2022-08-29T15:16:07Z</time>
      </trkpt>
      <trkpt lat="49.33813" lon="0.03418">
        <ele>-333</ele>
        <time>2022-08-29T15:16:17Z</time>
      </trkpt>
      <trkpt lat="49.33813" lon="0.03422">
        <ele>-333</ele>
        <time>2022-08-29T15:16:18Z</time>
      </trkpt>
      <trkpt lat="49.33812" lon="0.03425">
        <ele>-332.79998779297</ele>
        <time>2022-08-29T15:16:19Z</time>
      </trkpt>
      <trkpt lat="49.33811" lon="0.03429">
        <ele>-332.60000610352</ele>
        <time>2022-08-29T15:16:20Z</time>
      </trkpt>
      <trkpt lat="49.3381" lon="0.03432">
        <ele>-332.39999389648</ele>
        <time>2022-08-29T15:16:21Z</time>
      </trkpt>
      <trkpt lat="49.33809" lon="0.03434">
        <ele>-332.39999389648</ele>
        <time>2022-08-29T15:16:22Z</time>
      </trkpt>
      <trkpt lat="49.33807" lon="0.03441">
        <ele>-332</ele>
        <time>2022-08-29T15:16:29Z</time>
      </trkpt>
      <trkpt lat="49.33807" lon="0.03443">
        <ele>-331.79998779297</ele>
        <time>2022-08-29T15:16:30Z</time>
      </trkpt>
      <trkpt lat="49.33803" lon="0.03453">
        <ele>-331.60000610352</ele>
        <time>2022-08-29T15:16:35Z</time>
      </trkpt>
      <trkpt lat="49.33802" lon="0.03456">
        <ele>-331.60000610352</ele>
        <time>2022-08-29T15:16:36Z</time>
      </trkpt>
      <trkpt lat="49.33801" lon="0.0346">
        <ele>-331.39999389648</ele>
        <time>2022-08-29T15:16:37Z</time>
      </trkpt>
      <trkpt lat="49.338" lon="0.03463">
        <ele>-331.20001220703</ele>
        <time>2022-08-29T15:16:38Z</time>
      </trkpt>
      <trkpt lat="49.338" lon="0.03466">
        <ele>-330.79998779297</ele>
        <time>2022-08-29T15:16:39Z</time>
      </trkpt>
      <trkpt lat="49.33797" lon="0.03477">
        <ele>-329.79998779297</ele>
        <time>2022-08-29T15:16:49Z</time>
      </trkpt>
      <trkpt lat="49.33796" lon="0.03482">
        <ele>-329.60000610352</ele>
        <time>2022-08-29T15:16:52Z</time>
      </trkpt>
      <trkpt lat="49.33783" lon="0.03511">
        <ele>-328.60000610352</ele>
        <time>2022-08-29T15:17:12Z</time>
      </trkpt>
      <trkpt lat="49.33782" lon="0.03513">
        <ele>-328.60000610352</ele>
        <time>2022-08-29T15:17:13Z</time>
      </trkpt>
      <trkpt lat="49.33772" lon="0.03529">
        <ele>-328.20001220703</ele>
        <time>2022-08-29T15:17:24Z</time>
      </trkpt>
      <trkpt lat="49.33771" lon="0.03533">
        <ele>-328.20001220703</ele>
        <time>2022-08-29T15:17:26Z</time>
      </trkpt>
      <trkpt lat="49.33769" lon="0.03536">
        <ele>-328</ele>
        <time>2022-08-29T15:17:27Z</time>
      </trkpt>
      <trkpt lat="49.33768" lon="0.03539">
        <ele>-328</ele>
        <time>2022-08-29T15:17:28Z</time>
      </trkpt>
      <trkpt lat="49.33767" lon="0.03542">
        <ele>-328</ele>
        <time>2022-08-29T15:17:29Z</time>
      </trkpt>
      <trkpt lat="49.33765" lon="0.03544">
        <ele>-328</ele>
        <time>2022-08-29T15:17:30Z</time>
      </trkpt>
      <trkpt lat="49.33764" lon="0.03546">
        <ele>-327.79998779297</ele>
        <time>2022-08-29T15:17:31Z</time>
      </trkpt>
      <trkpt lat="49.33763" lon="0.03548">
        <ele>-327.79998779297</ele>
        <time>2022-08-29T15:17:32Z</time>
      </trkpt>
      <trkpt lat="49.3376" lon="0.03558">
        <ele>-327.39999389648</ele>
        <time>2022-08-29T15:17:41Z</time>
      </trkpt>
      <trkpt lat="49.33759" lon="0.0356">
        <ele>-327.39999389648</ele>
        <time>2022-08-29T15:17:42Z</time>
      </trkpt>
      <trkpt lat="49.33758" lon="0.03562">
        <ele>-327.20001220703</ele>
        <time>2022-08-29T15:17:43Z</time>
      </trkpt>
      <trkpt lat="49.33758" lon="0.03564">
        <ele>-327.20001220703</ele>
        <time>2022-08-29T15:17:44Z</time>
      </trkpt>
      <trkpt lat="49.33757" lon="0.03566">
        <ele>-327.20001220703</ele>
        <time>2022-08-29T15:17:45Z</time>
      </trkpt>
      <trkpt lat="49.33749" lon="0.03594">
        <ele>-325.79998779297</ele>
        <time>2022-08-29T15:18:00Z</time>
      </trkpt>
      <trkpt lat="49.33749" lon="0.03605">
        <ele>-325.39999389648</ele>
        <time>2022-08-29T15:18:07Z</time>
      </trkpt>
      <trkpt lat="49.33749" lon="0.03607">
        <ele>-325.39999389648</ele>
        <time>2022-08-29T15:18:08Z</time>
      </trkpt>
      <trkpt lat="49.33749" lon="0.03612">
        <ele>-325.20001220703</ele>
        <time>2022-08-29T15:18:11Z</time>
      </trkpt>
      <trkpt lat="49.33749" lon="0.03614">
        <ele>-325</ele>
        <time>2022-08-29T15:18:12Z</time>
      </trkpt>
      <trkpt lat="49.33749" lon="0.03617">
        <ele>-325</ele>
        <time>2022-08-29T15:18:13Z</time>
      </trkpt>
      <trkpt lat="49.33749" lon="0.03619">
        <ele>-325</ele>
        <time>2022-08-29T15:18:14Z</time>
      </trkpt>
      <trkpt lat="49.3375" lon="0.03624">
        <ele>-324.79998779297</ele>
        <time>2022-08-29T15:18:18Z</time>
      </trkpt>
      <trkpt lat="49.33749" lon="0.03625">
        <ele>-324.60000610352</ele>
        <time>2022-08-29T15:18:19Z</time>
      </trkpt>
      <trkpt lat="49.33749" lon="0.03627">
        <ele>-324.60000610352</ele>
        <time>2022-08-29T15:18:20Z</time>
      </trkpt>
      <trkpt lat="49.33749" lon="0.03631">
        <ele>-324.60000610352</ele>
        <time>2022-08-29T15:18:22Z</time>
      </trkpt>
      <trkpt lat="49.3375" lon="0.03633">
        <ele>-324.39999389648</ele>
        <time>2022-08-29T15:18:23Z</time>
      </trkpt>
      <trkpt lat="49.33746" lon="0.0364">
        <ele>-323.20001220703</ele>
        <time>2022-08-29T15:18:39Z</time>
      </trkpt>
      <trkpt lat="49.33746" lon="0.03643">
        <ele>-322.79998779297</ele>
        <time>2022-08-29T15:18:41Z</time>
      </trkpt>
      <trkpt lat="49.33746" lon="0.03645">
        <ele>-322.79998779297</ele>
        <time>2022-08-29T15:18:42Z</time>
      </trkpt>
      <trkpt lat="49.33746" lon="0.03648">
        <ele>-322.60000610352</ele>
        <time>2022-08-29T15:18:43Z</time>
      </trkpt>
      <trkpt lat="49.33746" lon="0.03651">
        <ele>-322.60000610352</ele>
        <time>2022-08-29T15:18:44Z</time>
      </trkpt>
      <trkpt lat="49.33746" lon="0.03654">
        <ele>-322.60000610352</ele>
        <time>2022-08-29T15:18:45Z</time>
      </trkpt>
      <trkpt lat="49.33747" lon="0.03662">
        <ele>-322.39999389648</ele>
        <time>2022-08-29T15:18:52Z</time>
      </trkpt>
      <trkpt lat="49.33747" lon="0.03665">
        <ele>-322.39999389648</ele>
        <time>2022-08-29T15:18:53Z</time>
      </trkpt>
      <trkpt lat="49.33746" lon="0.03667">
        <ele>-322.39999389648</ele>
        <time>2022-08-29T15:18:54Z</time>
      </trkpt>
      <trkpt lat="49.33746" lon="0.03669">
        <ele>-322.20001220703</ele>
        <time>2022-08-29T15:18:55Z</time>
      </trkpt>
      <trkpt lat="49.33747" lon="0.0369">
        <ele>-319.79998779297</ele>
        <time>2022-08-29T15:19:08Z</time>
      </trkpt>
      <trkpt lat="49.33749" lon="0.03713">
        <ele>-317.79998779297</ele>
        <time>2022-08-29T15:19:22Z</time>
      </trkpt>
      <trkpt lat="49.33748" lon="0.03715">
        <ele>-317.60000610352</ele>
        <time>2022-08-29T15:19:23Z</time>
      </trkpt>
      <trkpt lat="49.33749" lon="0.03717">
        <ele>-317.39999389648</ele>
        <time>2022-08-29T15:19:24Z</time>
      </trkpt>
      <trkpt lat="49.33749" lon="0.03719">
        <ele>-317.20001220703</ele>
        <time>2022-08-29T15:19:25Z</time>
      </trkpt>
      <trkpt lat="49.33748" lon="0.0372">
        <ele>-317</ele>
        <time>2022-08-29T15:19:26Z</time>
      </trkpt>
      <trkpt lat="49.33747" lon="0.03722">
        <ele>-316.79998779297</ele>
        <time>2022-08-29T15:19:27Z</time>
      </trkpt>
      <trkpt lat="49.33747" lon="0.03725">
        <ele>-316.60000610352</ele>
        <time>2022-08-29T15:19:28Z</time>
      </trkpt>
      <trkpt lat="49.33746" lon="0.03728">
        <ele>-316.60000610352</ele>
        <time>2022-08-29T15:19:29Z</time>
      </trkpt>
      <trkpt lat="49.33746" lon="0.03731">
        <ele>-316.39999389648</ele>
        <time>2022-08-29T15:19:30Z</time>
      </trkpt>
      <trkpt lat="49.33746" lon="0.03737">
        <ele>-315.79998779297</ele>
        <time>2022-08-29T15:19:33Z</time>
      </trkpt>
      <trkpt lat="49.33744" lon="0.03744">
        <ele>-314.79998779297</ele>
        <time>2022-08-29T15:19:40Z</time>
      </trkpt>
      <trkpt lat="49.33744" lon="0.03745">
        <ele>-314.60000610352</ele>
        <time>2022-08-29T15:19:41Z</time>
      </trkpt>
      <trkpt lat="49.33743" lon="0.03747">
        <ele>-314.39999389648</ele>
        <time>2022-08-29T15:19:42Z</time>
      </trkpt>
      <trkpt lat="49.33736" lon="0.0377">
        <ele>-311.39999389648</ele>
        <time>2022-08-29T15:19:58Z</time>
      </trkpt>
      <trkpt lat="49.33735" lon="0.03786">
        <ele>-308.79998779297</ele>
        <time>2022-08-29T15:20:17Z</time>
      </trkpt>
      <trkpt lat="49.33733" lon="0.03798">
        <ele>-308</ele>
        <time>2022-08-29T15:20:37Z</time>
      </trkpt>
      <trkpt lat="49.33728" lon="0.03802">
        <ele>-307.60000610352</ele>
        <time>2022-08-29T15:20:48Z</time>
      </trkpt>
      <trkpt lat="49.33727" lon="0.03803">
        <ele>-307.60000610352</ele>
        <time>2022-08-29T15:20:49Z</time>
      </trkpt>
      <trkpt lat="49.33726" lon="0.03804">
        <ele>-307.60000610352</ele>
        <time>2022-08-29T15:20:50Z</time>
      </trkpt>
      <trkpt lat="49.33725" lon="0.03805">
        <ele>-307.60000610352</ele>
        <time>2022-08-29T15:20:51Z</time>
      </trkpt>
      <trkpt lat="49.33725" lon="0.03807">
        <ele>-307.60000610352</ele>
        <time>2022-08-29T15:20:52Z</time>
      </trkpt>
      <trkpt lat="49.33723" lon="0.0382">
        <ele>-306.60000610352</ele>
        <time>2022-08-29T15:21:01Z</time>
      </trkpt>
      <trkpt lat="49.33723" lon="0.03822">
        <ele>-306.39999389648</ele>
        <time>2022-08-29T15:21:02Z</time>
      </trkpt>
      <trkpt lat="49.33723" lon="0.03825">
        <ele>-306.39999389648</ele>
        <time>2022-08-29T15:21:03Z</time>
      </trkpt>
      <trkpt lat="49.33718" lon="0.03846">
        <ele>-305.39999389648</ele>
        <time>2022-08-29T15:21:15Z</time>
      </trkpt>
      <trkpt lat="49.3371" lon="0.03865">
        <ele>-305.39999389648</ele>
        <time>2022-08-29T15:21:26Z</time>
      </trkpt>
      <trkpt lat="49.3371" lon="0.03866">
        <ele>-305.39999389648</ele>
        <time>2022-08-29T15:21:27Z</time>
      </trkpt>
      <trkpt lat="49.33706" lon="0.0388">
        <ele>-305.20001220703</ele>
        <time>2022-08-29T15:21:34Z</time>
      </trkpt>
      <trkpt lat="49.33706" lon="0.03882">
        <ele>-305.20001220703</ele>
        <time>2022-08-29T15:21:35Z</time>
      </trkpt>
      <trkpt lat="49.33705" lon="0.03884">
        <ele>-305</ele>
        <time>2022-08-29T15:21:36Z</time>
      </trkpt>
      <trkpt lat="49.33705" lon="0.03886">
        <ele>-305</ele>
        <time>2022-08-29T15:21:37Z</time>
      </trkpt>
      <trkpt lat="49.33705" lon="0.03888">
        <ele>-304.79998779297</ele>
        <time>2022-08-29T15:21:38Z</time>
      </trkpt>
      <trkpt lat="49.337" lon="0.0392">
        <ele>-303.60000610352</ele>
        <time>2022-08-29T15:21:52Z</time>
      </trkpt>
      <trkpt lat="49.33699" lon="0.03929">
        <ele>-303.39999389648</ele>
        <time>2022-08-29T15:22:01Z</time>
      </trkpt>
      <trkpt lat="49.33699" lon="0.0393">
        <ele>-303.20001220703</ele>
        <time>2022-08-29T15:22:02Z</time>
      </trkpt>
      <trkpt lat="49.33698" lon="0.03932">
        <ele>-303.20001220703</ele>
        <time>2022-08-29T15:22:03Z</time>
      </trkpt>
      <trkpt lat="49.33697" lon="0.03935">
        <ele>-303</ele>
        <time>2022-08-29T15:22:04Z</time>
      </trkpt>
      <trkpt lat="49.33696" lon="0.03938">
        <ele>-303</ele>
        <time>2022-08-29T15:22:05Z</time>
      </trkpt>
      <trkpt lat="49.33696" lon="0.0394">
        <ele>-302.79998779297</ele>
        <time>2022-08-29T15:22:06Z</time>
      </trkpt>
      <trkpt lat="49.33696" lon="0.03943">
        <ele>-302.79998779297</ele>
        <time>2022-08-29T15:22:07Z</time>
      </trkpt>
      <trkpt lat="49.33696" lon="0.03945">
        <ele>-302.79998779297</ele>
        <time>2022-08-29T15:22:08Z</time>
      </trkpt>
      <trkpt lat="49.33701" lon="0.03965">
        <ele>-301.79998779297</ele>
        <time>2022-08-29T15:22:22Z</time>
      </trkpt>
      <trkpt lat="49.337" lon="0.03968">
        <ele>-301.79998779297</ele>
        <time>2022-08-29T15:22:23Z</time>
      </trkpt>
      <trkpt lat="49.337" lon="0.03969">
        <ele>-301.60000610352</ele>
        <time>2022-08-29T15:22:24Z</time>
      </trkpt>
      <trkpt lat="49.337" lon="0.03971">
        <ele>-301.60000610352</ele>
        <time>2022-08-29T15:22:25Z</time>
      </trkpt>
      <trkpt lat="49.33699" lon="0.03973">
        <ele>-301.39999389648</ele>
        <time>2022-08-29T15:22:26Z</time>
      </trkpt>
      <trkpt lat="49.33699" lon="0.03976">
        <ele>-301.39999389648</ele>
        <time>2022-08-29T15:22:27Z</time>
      </trkpt>
      <trkpt lat="49.33699" lon="0.0398">
        <ele>-301.20001220703</ele>
        <time>2022-08-29T15:22:28Z</time>
      </trkpt>
      <trkpt lat="49.33699" lon="0.03983">
        <ele>-301.20001220703</ele>
        <time>2022-08-29T15:22:29Z</time>
      </trkpt>
      <trkpt lat="49.33699" lon="0.03986">
        <ele>-301.20001220703</ele>
        <time>2022-08-29T15:22:30Z</time>
      </trkpt>
      <trkpt lat="49.33699" lon="0.03989">
        <ele>-301.20001220703</ele>
        <time>2022-08-29T15:22:31Z</time>
      </trkpt>
      <trkpt lat="49.33699" lon="0.03991">
        <ele>-301</ele>
        <time>2022-08-29T15:22:32Z</time>
      </trkpt>
      <trkpt lat="49.33695" lon="0.04002">
        <ele>-300.20001220703</ele>
        <time>2022-08-29T15:22:41Z</time>
      </trkpt>
      <trkpt lat="49.33695" lon="0.04004">
        <ele>-300.20001220703</ele>
        <time>2022-08-29T15:22:42Z</time>
      </trkpt>
      <trkpt lat="49.33695" lon="0.04006">
        <ele>-300.20001220703</ele>
        <time>2022-08-29T15:22:43Z</time>
      </trkpt>
      <trkpt lat="49.33695" lon="0.04008">
        <ele>-300</ele>
        <time>2022-08-29T15:22:44Z</time>
      </trkpt>
      <trkpt lat="49.33693" lon="0.04031">
        <ele>-298.39999389648</ele>
        <time>2022-08-29T15:22:59Z</time>
      </trkpt>
      <trkpt lat="49.33696" lon="0.04067">
        <ele>-295.20001220703</ele>
        <time>2022-08-29T15:23:21Z</time>
      </trkpt>
      <trkpt lat="49.33699" lon="0.041">
        <ele>-292</ele>
        <time>2022-08-29T15:23:46Z</time>
      </trkpt>
      <trkpt lat="49.33701" lon="0.04126">
        <ele>-290.20001220703</ele>
        <time>2022-08-29T15:24:02Z</time>
      </trkpt>
      <trkpt lat="49.33701" lon="0.04143">
        <ele>-287.39999389648</ele>
        <time>2022-08-29T15:24:25Z</time>
      </trkpt>
      <trkpt lat="49.33703" lon="0.04168">
        <ele>-285.60000610352</ele>
        <time>2022-08-29T15:25:07Z</time>
      </trkpt>
      <trkpt lat="49.33704" lon="0.04191">
        <ele>-284.39999389648</ele>
        <time>2022-08-29T15:25:24Z</time>
      </trkpt>
      <trkpt lat="49.33705" lon="0.04225">
        <ele>-281.20001220703</ele>
        <time>2022-08-29T15:25:46Z</time>
      </trkpt>
      <trkpt lat="49.33708" lon="0.0426">
        <ele>-278.39999389648</ele>
        <time>2022-08-29T15:26:08Z</time>
      </trkpt>
      <trkpt lat="49.33699" lon="0.04267">
        <ele>-277.20001220703</ele>
        <time>2022-08-29T15:26:18Z</time>
      </trkpt>
      <trkpt lat="49.33696" lon="0.04265">
        <ele>-276.39999389648</ele>
        <time>2022-08-29T15:26:36Z</time>
      </trkpt>
      <trkpt lat="49.33705" lon="0.04256">
        <ele>-276.20001220703</ele>
        <time>2022-08-29T15:27:02Z</time>
      </trkpt>
      <trkpt lat="49.33706" lon="0.04258">
        <ele>-276.79998779297</ele>
        <time>2022-08-29T15:27:34Z</time>
      </trkpt>
      <trkpt lat="49.33706" lon="0.04261">
        <ele>-277</ele>
        <time>2022-08-29T15:28:17Z</time>
      </trkpt>
      <trkpt lat="49.337" lon="0.04268">
        <ele>-277</ele>
        <time>2022-08-29T15:28:32Z</time>
      </trkpt>
      <trkpt lat="49.33702" lon="0.04272">
        <ele>-276.79998779297</ele>
        <time>2022-08-29T15:28:52Z</time>
      </trkpt>
      <trkpt lat="49.33704" lon="0.04285">
        <ele>-276.39999389648</ele>
        <time>2022-08-29T15:29:06Z</time>
      </trkpt>
      <trkpt lat="49.33704" lon="0.04303">
        <ele>-275.20001220703</ele>
        <time>2022-08-29T15:29:19Z</time>
      </trkpt>
      <trkpt lat="49.3371" lon="0.04344">
        <ele>-271.79998779297</ele>
        <time>2022-08-29T15:29:43Z</time>
      </trkpt>
      <trkpt lat="49.33712" lon="0.04384">
        <ele>-269.60000610352</ele>
        <time>2022-08-29T15:30:05Z</time>
      </trkpt>
      <trkpt lat="49.33718" lon="0.04426">
        <ele>-268.79998779297</ele>
        <time>2022-08-29T15:30:28Z</time>
      </trkpt>
      <trkpt lat="49.33722" lon="0.0443">
        <ele>-268.20001220703</ele>
        <time>2022-08-29T15:30:33Z</time>
      </trkpt>
      <trkpt lat="49.33727" lon="0.04427">
        <ele>-267.60000610352</ele>
        <time>2022-08-29T15:30:39Z</time>
      </trkpt>
      <trkpt lat="49.33735" lon="0.0441">
        <ele>-267</ele>
        <time>2022-08-29T15:30:54Z</time>
      </trkpt>
      <trkpt lat="49.33741" lon="0.04404">
        <ele>-266.60000610352</ele>
        <time>2022-08-29T15:31:00Z</time>
      </trkpt>
      <trkpt lat="49.33745" lon="0.044">
        <ele>-266</ele>
        <time>2022-08-29T15:31:04Z</time>
      </trkpt>
      <trkpt lat="49.3375" lon="0.04395">
        <ele>-265.20001220703</ele>
        <time>2022-08-29T15:31:07Z</time>
      </trkpt>
      <trkpt lat="49.33752" lon="0.04387">
        <ele>-264.79998779297</ele>
        <time>2022-08-29T15:31:14Z</time>
      </trkpt>
      <trkpt lat="49.33753" lon="0.04385">
        <ele>-264.79998779297</ele>
        <time>2022-08-29T15:31:15Z</time>
      </trkpt>
      <trkpt lat="49.33753" lon="0.04381">
        <ele>-264.79998779297</ele>
        <time>2022-08-29T15:31:16Z</time>
      </trkpt>
      <trkpt lat="49.33753" lon="0.04378">
        <ele>-264.79998779297</ele>
        <time>2022-08-29T15:31:17Z</time>
      </trkpt>
      <trkpt lat="49.33756" lon="0.04367">
        <ele>-265</ele>
        <time>2022-08-29T15:31:28Z</time>
      </trkpt>
      <trkpt lat="49.33756" lon="0.04363">
        <ele>-265.20001220703</ele>
        <time>2022-08-29T15:31:30Z</time>
      </trkpt>
      <trkpt lat="49.33757" lon="0.04356">
        <ele>-265</ele>
        <time>2022-08-29T15:31:32Z</time>
      </trkpt>
      <trkpt lat="49.33757" lon="0.04347">
        <ele>-264.79998779297</ele>
        <time>2022-08-29T15:31:39Z</time>
      </trkpt>
      <trkpt lat="49.33757" lon="0.04345">
        <ele>-264.79998779297</ele>
        <time>2022-08-29T15:31:40Z</time>
      </trkpt>
      <trkpt lat="49.33757" lon="0.04342">
        <ele>-264.79998779297</ele>
        <time>2022-08-29T15:31:41Z</time>
      </trkpt>
      <trkpt lat="49.33761" lon="0.04326">
        <ele>-263.60000610352</ele>
        <time>2022-08-29T15:31:52Z</time>
      </trkpt>
      <trkpt lat="49.33764" lon="0.0432">
        <ele>-263.39999389648</ele>
        <time>2022-08-29T15:31:54Z</time>
      </trkpt>
      <trkpt lat="49.33772" lon="0.04303">
        <ele>-263.39999389648</ele>
        <time>2022-08-29T15:32:05Z</time>
      </trkpt>
      <trkpt lat="49.33775" lon="0.043">
        <ele>-263.39999389648</ele>
        <time>2022-08-29T15:32:09Z</time>
      </trkpt>
      <trkpt lat="49.33776" lon="0.04299">
        <ele>-263.39999389648</ele>
        <time>2022-08-29T15:32:10Z</time>
      </trkpt>
      <trkpt lat="49.33778" lon="0.04298">
        <ele>-263.39999389648</ele>
        <time>2022-08-29T15:32:12Z</time>
      </trkpt>
      <trkpt lat="49.33786" lon="0.04292">
        <ele>-263.20001220703</ele>
        <time>2022-08-29T15:32:19Z</time>
      </trkpt>
      <trkpt lat="49.33787" lon="0.04291">
        <ele>-263.20001220703</ele>
        <time>2022-08-29T15:32:20Z</time>
      </trkpt>
      <trkpt lat="49.33789" lon="0.0429">
        <ele>-263.20001220703</ele>
        <time>2022-08-29T15:32:21Z</time>
      </trkpt>
      <trkpt lat="49.33793" lon="0.04288">
        <ele>-263.20001220703</ele>
        <time>2022-08-29T15:32:26Z</time>
      </trkpt>
      <trkpt lat="49.33789" lon="0.0429">
        <ele>-263.20001220703</ele>
        <time>2022-08-29T15:32:28Z</time>
      </trkpt>
      <trkpt lat="49.33779" lon="0.04296">
        <ele>-263</ele>
        <time>2022-08-29T15:32:40Z</time>
      </trkpt>
      <trkpt lat="49.33779" lon="0.04294">
        <ele>-263</ele>
        <time>2022-08-29T15:32:41Z</time>
      </trkpt>
      <trkpt lat="49.33778" lon="0.04285">
        <ele>-262.79998779297</ele>
        <time>2022-08-29T15:32:46Z</time>
      </trkpt>
      <trkpt lat="49.33779" lon="0.04283">
        <ele>-262.79998779297</ele>
        <time>2022-08-29T15:32:47Z</time>
      </trkpt>
      <trkpt lat="49.33779" lon="0.04281">
        <ele>-262.60000610352</ele>
        <time>2022-08-29T15:32:48Z</time>
      </trkpt>
      <trkpt lat="49.33779" lon="0.04266">
        <ele>-262.60000610352</ele>
        <time>2022-08-29T15:32:58Z</time>
      </trkpt>
      <trkpt lat="49.33772" lon="0.04226">
        <ele>-262.20001220703</ele>
        <time>2022-08-29T15:33:24Z</time>
      </trkpt>
      <trkpt lat="49.33774" lon="0.04192">
        <ele>-261.20001220703</ele>
        <time>2022-08-29T15:33:42Z</time>
      </trkpt>
      <trkpt lat="49.33775" lon="0.04186">
        <ele>-261.20001220703</ele>
        <time>2022-08-29T15:33:44Z</time>
      </trkpt>
      <trkpt lat="49.33777" lon="0.04178">
        <ele>-261.20001220703</ele>
        <time>2022-08-29T15:33:49Z</time>
      </trkpt>
      <trkpt lat="49.33781" lon="0.04172">
        <ele>-261.20001220703</ele>
        <time>2022-08-29T15:33:53Z</time>
      </trkpt>
      <trkpt lat="49.33801" lon="0.04151">
        <ele>-260.60000610352</ele>
        <time>2022-08-29T15:34:14Z</time>
      </trkpt>
      <trkpt lat="49.33805" lon="0.0415">
        <ele>-260.39999389648</ele>
        <time>2022-08-29T15:34:16Z</time>
      </trkpt>
      <trkpt lat="49.33806" lon="0.0414">
        <ele>-260.39999389648</ele>
        <time>2022-08-29T15:34:27Z</time>
      </trkpt>
      <trkpt lat="49.33808" lon="0.04123">
        <ele>-260.39999389648</ele>
        <time>2022-08-29T15:34:38Z</time>
      </trkpt>
      <trkpt lat="49.3381" lon="0.04119">
        <ele>-260.39999389648</ele>
        <time>2022-08-29T15:34:41Z</time>
      </trkpt>
      <trkpt lat="49.33811" lon="0.04115">
        <ele>-260.39999389648</ele>
        <time>2022-08-29T15:34:43Z</time>
      </trkpt>
      <trkpt lat="49.33813" lon="0.04108">
        <ele>-260.79998779297</ele>
        <time>2022-08-29T15:34:48Z</time>
      </trkpt>
      <trkpt lat="49.33808" lon="0.04096">
        <ele>-260.39999389648</ele>
        <time>2022-08-29T15:34:57Z</time>
      </trkpt>
      <trkpt lat="49.33807" lon="0.04085">
        <ele>-259.79998779297</ele>
        <time>2022-08-29T15:35:06Z</time>
      </trkpt>
      <trkpt lat="49.33802" lon="0.04064">
        <ele>-260.39999389648</ele>
        <time>2022-08-29T15:35:17Z</time>
      </trkpt>
      <trkpt lat="49.33799" lon="0.0405">
        <ele>-260.39999389648</ele>
        <time>2022-08-29T15:35:26Z</time>
      </trkpt>
      <trkpt lat="49.33799" lon="0.04036">
        <ele>-260.60000610352</ele>
        <time>2022-08-29T15:35:35Z</time>
      </trkpt>
      <trkpt lat="49.33797" lon="0.04025">
        <ele>-260.79998779297</ele>
        <time>2022-08-29T15:35:39Z</time>
      </trkpt>
      <trkpt lat="49.33801" lon="0.04002">
        <ele>-261.20001220703</ele>
        <time>2022-08-29T15:35:51Z</time>
      </trkpt>
      <trkpt lat="49.33804" lon="0.04">
        <ele>-261.39999389648</ele>
        <time>2022-08-29T15:35:54Z</time>
      </trkpt>
      <trkpt lat="49.33802" lon="0.03983">
        <ele>-261.79998779297</ele>
        <time>2022-08-29T15:36:05Z</time>
      </trkpt>
      <trkpt lat="49.33807" lon="0.03966">
        <ele>-262.39999389648</ele>
        <time>2022-08-29T15:36:18Z</time>
      </trkpt>
      <trkpt lat="49.33817" lon="0.0395">
        <ele>-262.39999389648</ele>
        <time>2022-08-29T15:36:36Z</time>
      </trkpt>
      <trkpt lat="49.33822" lon="0.03943">
        <ele>-262.20001220703</ele>
        <time>2022-08-29T15:36:43Z</time>
      </trkpt>
      <trkpt lat="49.33832" lon="0.03917">
        <ele>-262.20001220703</ele>
        <time>2022-08-29T15:36:59Z</time>
      </trkpt>
      <trkpt lat="49.33834" lon="0.03903">
        <ele>-262</ele>
        <time>2022-08-29T15:37:11Z</time>
      </trkpt>
      <trkpt lat="49.33835" lon="0.03895">
        <ele>-261.20001220703</ele>
        <time>2022-08-29T15:37:39Z</time>
      </trkpt>
      <trkpt lat="49.33841" lon="0.03888">
        <ele>-261.79998779297</ele>
        <time>2022-08-29T15:38:05Z</time>
      </trkpt>
      <trkpt lat="49.33847" lon="0.03884">
        <ele>-261.79998779297</ele>
        <time>2022-08-29T15:38:16Z</time>
      </trkpt>
      <trkpt lat="49.33848" lon="0.03878">
        <ele>-261.60000610352</ele>
        <time>2022-08-29T15:38:28Z</time>
      </trkpt>
      <trkpt lat="49.33857" lon="0.03863">
        <ele>-261.79998779297</ele>
        <time>2022-08-29T15:38:38Z</time>
      </trkpt>
      <trkpt lat="49.33858" lon="0.0386">
        <ele>-262.20001220703</ele>
        <time>2022-08-29T15:38:48Z</time>
      </trkpt>
      <trkpt lat="49.33862" lon="0.03856">
        <ele>-262</ele>
        <time>2022-08-29T15:39:18Z</time>
      </trkpt>
      <trkpt lat="49.33865" lon="0.03852">
        <ele>-262.39999389648</ele>
        <time>2022-08-29T15:39:32Z</time>
      </trkpt>
      <trkpt lat="49.33869" lon="0.03854">
        <ele>-262.39999389648</ele>
        <time>2022-08-29T15:39:37Z</time>
      </trkpt>
      <trkpt lat="49.33877" lon="0.03858">
        <ele>-262.60000610352</ele>
        <time>2022-08-29T15:39:46Z</time>
      </trkpt>
      <trkpt lat="49.33879" lon="0.03848">
        <ele>-262.20001220703</ele>
        <time>2022-08-29T15:39:56Z</time>
      </trkpt>
      <trkpt lat="49.33882" lon="0.03844">
        <ele>-262.39999389648</ele>
        <time>2022-08-29T15:39:59Z</time>
      </trkpt>
      <trkpt lat="49.33893" lon="0.03833">
        <ele>-263.20001220703</ele>
        <time>2022-08-29T15:40:09Z</time>
      </trkpt>
      <trkpt lat="49.33897" lon="0.03832">
        <ele>-263.39999389648</ele>
        <time>2022-08-29T15:40:13Z</time>
      </trkpt>
      <trkpt lat="49.33904" lon="0.03821">
        <ele>-263.39999389648</ele>
        <time>2022-08-29T15:40:24Z</time>
      </trkpt>
      <trkpt lat="49.33925" lon="0.03812">
        <ele>-264</ele>
        <time>2022-08-29T15:40:43Z</time>
      </trkpt>
      <trkpt lat="49.33947" lon="0.03817">
        <ele>-263.79998779297</ele>
        <time>2022-08-29T15:41:00Z</time>
      </trkpt>
      <trkpt lat="49.33962" lon="0.03828">
        <ele>-263.60000610352</ele>
        <time>2022-08-29T15:41:15Z</time>
      </trkpt>
      <trkpt lat="49.33963" lon="0.0383">
        <ele>-263.60000610352</ele>
        <time>2022-08-29T15:41:16Z</time>
      </trkpt>
      <trkpt lat="49.33978" lon="0.03843">
        <ele>-263.79998779297</ele>
        <time>2022-08-29T15:41:32Z</time>
      </trkpt>
      <trkpt lat="49.33995" lon="0.03853">
        <ele>-263.20001220703</ele>
        <time>2022-08-29T15:41:52Z</time>
      </trkpt>
      <trkpt lat="49.34002" lon="0.03862">
        <ele>-263.39999389648</ele>
        <time>2022-08-29T15:41:58Z</time>
      </trkpt>
      <trkpt lat="49.34012" lon="0.0386">
        <ele>-263.79998779297</ele>
        <time>2022-08-29T15:42:05Z</time>
      </trkpt>
      <trkpt lat="49.34027" lon="0.03847">
        <ele>-264.60000610352</ele>
        <time>2022-08-29T15:42:23Z</time>
      </trkpt>
      <trkpt lat="49.34028" lon="0.0385">
        <ele>-265</ele>
        <time>2022-08-29T15:42:48Z</time>
      </trkpt>
      <trkpt lat="49.34027" lon="0.03854">
        <ele>-265</ele>
        <time>2022-08-29T15:42:53Z</time>
      </trkpt>
      <trkpt lat="49.34025" lon="0.03861">
        <ele>-265</ele>
        <time>2022-08-29T15:43:08Z</time>
      </trkpt>
      <trkpt lat="49.34025" lon="0.0387">
        <ele>-264.79998779297</ele>
        <time>2022-08-29T15:43:37Z</time>
      </trkpt>
      <trkpt lat="49.34021" lon="0.03876">
        <ele>-264.79998779297</ele>
        <time>2022-08-29T15:43:41Z</time>
      </trkpt>
      <trkpt lat="49.34024" lon="0.03894">
        <ele>-263.79998779297</ele>
        <time>2022-08-29T15:43:55Z</time>
      </trkpt>
      <trkpt lat="49.34028" lon="0.03908">
        <ele>-263.60000610352</ele>
        <time>2022-08-29T15:44:04Z</time>
      </trkpt>
      <trkpt lat="49.34034" lon="0.0392">
        <ele>-263.60000610352</ele>
        <time>2022-08-29T15:44:12Z</time>
      </trkpt>
      <trkpt lat="49.34046" lon="0.03943">
        <ele>-263.79998779297</ele>
        <time>2022-08-29T15:44:29Z</time>
      </trkpt>
      <trkpt lat="49.34049" lon="0.03954">
        <ele>-263.79998779297</ele>
        <time>2022-08-29T15:44:35Z</time>
      </trkpt>
      <trkpt lat="49.3405" lon="0.03956">
        <ele>-264</ele>
        <time>2022-08-29T15:44:37Z</time>
      </trkpt>
      <trkpt lat="49.34056" lon="0.03975">
        <ele>-264.60000610352</ele>
        <time>2022-08-29T15:44:49Z</time>
      </trkpt>
      <trkpt lat="49.34066" lon="0.03972">
        <ele>-265</ele>
        <time>2022-08-29T15:44:58Z</time>
      </trkpt>
      <trkpt lat="49.3407" lon="0.0397">
        <ele>-265.20001220703</ele>
        <time>2022-08-29T15:45:01Z</time>
      </trkpt>
      <trkpt lat="49.34076" lon="0.03963">
        <ele>-265.20001220703</ele>
        <time>2022-08-29T15:45:13Z</time>
      </trkpt>
      <trkpt lat="49.34076" lon="0.0397">
        <ele>-265.20001220703</ele>
        <time>2022-08-29T15:45:27Z</time>
      </trkpt>
      <trkpt lat="49.34076" lon="0.03978">
        <ele>-265.20001220703</ele>
        <time>2022-08-29T15:45:32Z</time>
      </trkpt>
      <trkpt lat="49.34075" lon="0.0399">
        <ele>-265.20001220703</ele>
        <time>2022-08-29T15:45:40Z</time>
      </trkpt>
      <trkpt lat="49.34075" lon="0.03997">
        <ele>-265</ele>
        <time>2022-08-29T15:45:43Z</time>
      </trkpt>
      <trkpt lat="49.34079" lon="0.04004">
        <ele>-265</ele>
        <time>2022-08-29T15:45:53Z</time>
      </trkpt>
      <trkpt lat="49.34075" lon="0.04013">
        <ele>-265.60000610352</ele>
        <time>2022-08-29T15:46:04Z</time>
      </trkpt>
      <trkpt lat="49.34072" lon="0.04021">
        <ele>-265.60000610352</ele>
        <time>2022-08-29T15:46:10Z</time>
      </trkpt>
      <trkpt lat="49.34072" lon="0.04023">
        <ele>-265.60000610352</ele>
        <time>2022-08-29T15:46:11Z</time>
      </trkpt>
      <trkpt lat="49.34071" lon="0.04024">
        <ele>-265.60000610352</ele>
        <time>2022-08-29T15:46:12Z</time>
      </trkpt>
      <trkpt lat="49.34075" lon="0.04022">
        <ele>-265.60000610352</ele>
        <time>2022-08-29T15:46:24Z</time>
      </trkpt>
      <trkpt lat="49.34082" lon="0.04032">
        <ele>-265.79998779297</ele>
        <time>2022-08-29T15:46:36Z</time>
      </trkpt>
      <trkpt lat="49.34089" lon="0.0404">
        <ele>-265.79998779297</ele>
        <time>2022-08-29T15:46:45Z</time>
      </trkpt>
      <trkpt lat="49.341" lon="0.04057">
        <ele>-266.20001220703</ele>
        <time>2022-08-29T15:46:57Z</time>
      </trkpt>
      <trkpt lat="49.34105" lon="0.0407">
        <ele>-266.60000610352</ele>
        <time>2022-08-29T15:47:07Z</time>
      </trkpt>
      <trkpt lat="49.34105" lon="0.04073">
        <ele>-266.79998779297</ele>
        <time>2022-08-29T15:47:09Z</time>
      </trkpt>
      <trkpt lat="49.34111" lon="0.0409">
        <ele>-266.79998779297</ele>
        <time>2022-08-29T15:47:21Z</time>
      </trkpt>
      <trkpt lat="49.34125" lon="0.0412">
        <ele>-266.79998779297</ele>
        <time>2022-08-29T15:47:45Z</time>
      </trkpt>
      <trkpt lat="49.34138" lon="0.04147">
        <ele>-267.39999389648</ele>
        <time>2022-08-29T15:48:05Z</time>
      </trkpt>
      <trkpt lat="49.34143" lon="0.04186">
        <ele>-267.79998779297</ele>
        <time>2022-08-29T15:48:29Z</time>
      </trkpt>
      <trkpt lat="49.34146" lon="0.04232">
        <ele>-267.39999389648</ele>
        <time>2022-08-29T15:48:54Z</time>
      </trkpt>
      <trkpt lat="49.34157" lon="0.04263">
        <ele>-268.20001220703</ele>
        <time>2022-08-29T15:49:15Z</time>
      </trkpt>
      <trkpt lat="49.34174" lon="0.04292">
        <ele>-270</ele>
        <time>2022-08-29T15:49:38Z</time>
      </trkpt>
      <trkpt lat="49.34183" lon="0.04304">
        <ele>-271.39999389648</ele>
        <time>2022-08-29T15:49:49Z</time>
      </trkpt>
      <trkpt lat="49.34202" lon="0.04313">
        <ele>-274.60000610352</ele>
        <time>2022-08-29T15:50:08Z</time>
      </trkpt>
      <trkpt lat="49.34218" lon="0.04333">
        <ele>-277.60000610352</ele>
        <time>2022-08-29T15:50:28Z</time>
      </trkpt>
      <trkpt lat="49.34213" lon="0.04358">
        <ele>-278.60000610352</ele>
        <time>2022-08-29T15:50:49Z</time>
      </trkpt>
      <trkpt lat="49.34197" lon="0.04367">
        <ele>-277.60000610352</ele>
        <time>2022-08-29T15:51:08Z</time>
      </trkpt>
      <trkpt lat="49.34174" lon="0.04375">
        <ele>-276.60000610352</ele>
        <time>2022-08-29T15:51:28Z</time>
      </trkpt>
      <trkpt lat="49.34162" lon="0.04401">
        <ele>-275</ele>
        <time>2022-08-29T15:51:47Z</time>
      </trkpt>
      <trkpt lat="49.34145" lon="0.0442">
        <ele>-276.20001220703</ele>
        <time>2022-08-29T15:52:11Z</time>
      </trkpt>
      <trkpt lat="49.34126" lon="0.0445">
        <ele>-277</ele>
        <time>2022-08-29T15:52:36Z</time>
      </trkpt>
      <trkpt lat="49.34117" lon="0.04481">
        <ele>-280.20001220703</ele>
        <time>2022-08-29T15:53:00Z</time>
      </trkpt>
      <trkpt lat="49.34116" lon="0.04485">
        <ele>-280.20001220703</ele>
        <time>2022-08-29T15:53:02Z</time>
      </trkpt>
      <trkpt lat="49.341" lon="0.0452">
        <ele>-282.39999389648</ele>
        <time>2022-08-29T15:53:27Z</time>
      </trkpt>
      <trkpt lat="49.34074" lon="0.04537">
        <ele>-281.60000610352</ele>
        <time>2022-08-29T15:53:49Z</time>
      </trkpt>
      <trkpt lat="49.34055" lon="0.04565">
        <ele>-278.79998779297</ele>
        <time>2022-08-29T15:54:15Z</time>
      </trkpt>
      <trkpt lat="49.34034" lon="0.04585">
        <ele>-279.39999389648</ele>
        <time>2022-08-29T15:54:38Z</time>
      </trkpt>
      <trkpt lat="49.33999" lon="0.0459">
        <ele>-277.60000610352</ele>
        <time>2022-08-29T15:55:04Z</time>
      </trkpt>
      <trkpt lat="49.33972" lon="0.04602">
        <ele>-277</ele>
        <time>2022-08-29T15:55:29Z</time>
      </trkpt>
      <trkpt lat="49.3395" lon="0.04619">
        <ele>-276.39999389648</ele>
        <time>2022-08-29T15:55:53Z</time>
      </trkpt>
      <trkpt lat="49.33938" lon="0.04643">
        <ele>-275.79998779297</ele>
        <time>2022-08-29T15:56:16Z</time>
      </trkpt>
      <trkpt lat="49.33939" lon="0.04648">
        <ele>-275.79998779297</ele>
        <time>2022-08-29T15:56:22Z</time>
      </trkpt>
      <trkpt lat="49.33942" lon="0.0465">
        <ele>-277.39999389648</ele>
        <time>2022-08-29T15:56:46Z</time>
      </trkpt>
      <trkpt lat="49.33963" lon="0.04638">
        <ele>-279.79998779297</ele>
        <time>2022-08-29T15:57:11Z</time>
      </trkpt>
      <trkpt lat="49.33972" lon="0.04633">
        <ele>-280.20001220703</ele>
        <time>2022-08-29T15:57:18Z</time>
      </trkpt>
      <trkpt lat="49.34002" lon="0.04626">
        <ele>-282</ele>
        <time>2022-08-29T15:57:43Z</time>
      </trkpt>
      <trkpt lat="49.34029" lon="0.04626">
        <ele>-285</ele>
        <time>2022-08-29T15:58:07Z</time>
      </trkpt>
      <trkpt lat="49.34058" lon="0.04633">
        <ele>-287.60000610352</ele>
        <time>2022-08-29T15:58:31Z</time>
      </trkpt>
      <trkpt lat="49.34059" lon="0.04633">
        <ele>-287.60000610352</ele>
        <time>2022-08-29T15:58:34Z</time>
      </trkpt>
      <trkpt lat="49.34077" lon="0.0463">
        <ele>-288</ele>
        <time>2022-08-29T15:58:54Z</time>
      </trkpt>
      <trkpt lat="49.3409" lon="0.04625">
        <ele>-290</ele>
        <time>2022-08-29T15:59:07Z</time>
      </trkpt>
      <trkpt lat="49.34103" lon="0.04622">
        <ele>-292.60000610352</ele>
        <time>2022-08-29T15:59:22Z</time>
      </trkpt>
      <trkpt lat="49.34123" lon="0.04632">
        <ele>-295.79998779297</ele>
        <time>2022-08-29T15:59:42Z</time>
      </trkpt>
      <trkpt lat="49.34137" lon="0.04637">
        <ele>-297.20001220703</ele>
        <time>2022-08-29T15:59:56Z</time>
      </trkpt>
      <trkpt lat="49.34152" lon="0.04648">
        <ele>-299</ele>
        <time>2022-08-29T16:00:11Z</time>
      </trkpt>
      <trkpt lat="49.34174" lon="0.04656">
        <ele>-300.39999389648</ele>
        <time>2022-08-29T16:00:35Z</time>
      </trkpt>
      <trkpt lat="49.34176" lon="0.04658">
        <ele>-300.39999389648</ele>
        <time>2022-08-29T16:00:37Z</time>
      </trkpt>
      <trkpt lat="49.34196" lon="0.04667">
        <ele>-300.79998779297</ele>
        <time>2022-08-29T16:01:02Z</time>
      </trkpt>
      <trkpt lat="49.34225" lon="0.04678">
        <ele>-301.39999389648</ele>
        <time>2022-08-29T16:01:30Z</time>
      </trkpt>
      <trkpt lat="49.34256" lon="0.04692">
        <ele>-301.60000610352</ele>
        <time>2022-08-29T16:01:57Z</time>
      </trkpt>
      <trkpt lat="49.34266" lon="0.04693">
        <ele>-302.20001220703</ele>
        <time>2022-08-29T16:02:05Z</time>
      </trkpt>
      <trkpt lat="49.34304" lon="0.0468">
        <ele>-302.79998779297</ele>
        <time>2022-08-29T16:02:32Z</time>
      </trkpt>
      <trkpt lat="49.34334" lon="0.04664">
        <ele>-305.20001220703</ele>
        <time>2022-08-29T16:02:57Z</time>
      </trkpt>
      <trkpt lat="49.34355" lon="0.04639">
        <ele>-307.60000610352</ele>
        <time>2022-08-29T16:03:21Z</time>
      </trkpt>
      <trkpt lat="49.34361" lon="0.04621">
        <ele>-308.39999389648</ele>
        <time>2022-08-29T16:03:32Z</time>
      </trkpt>
      <trkpt lat="49.34373" lon="0.04577">
        <ele>-309</ele>
        <time>2022-08-29T16:03:56Z</time>
      </trkpt>
      <trkpt lat="49.34373" lon="0.04568">
        <ele>-310.20001220703</ele>
        <time>2022-08-29T16:04:07Z</time>
      </trkpt>
      <trkpt lat="49.34374" lon="0.04562">
        <ele>-310.39999389648</ele>
        <time>2022-08-29T16:04:10Z</time>
      </trkpt>
      <trkpt lat="49.34383" lon="0.04524">
        <ele>-312.20001220703</ele>
        <time>2022-08-29T16:04:33Z</time>
      </trkpt>
      <trkpt lat="49.34396" lon="0.04494">
        <ele>-315.39999389648</ele>
        <time>2022-08-29T16:04:54Z</time>
      </trkpt>
      <trkpt lat="49.34416" lon="0.04472">
        <ele>-318.39999389648</ele>
        <time>2022-08-29T16:05:10Z</time>
      </trkpt>
      <trkpt lat="49.34431" lon="0.04463">
        <ele>-321.60000610352</ele>
        <time>2022-08-29T16:05:23Z</time>
      </trkpt>
      <trkpt lat="49.3445" lon="0.04457">
        <ele>-324.39999389648</ele>
        <time>2022-08-29T16:05:40Z</time>
      </trkpt>
      <trkpt lat="49.3446" lon="0.04454">
        <ele>-325.60000610352</ele>
        <time>2022-08-29T16:05:48Z</time>
      </trkpt>
      <trkpt lat="49.34475" lon="0.04448">
        <ele>-328</ele>
        <time>2022-08-29T16:05:59Z</time>
      </trkpt>
      <trkpt lat="49.34479" lon="0.04446">
        <ele>-329.60000610352</ele>
        <time>2022-08-29T16:06:06Z</time>
      </trkpt>
      <trkpt lat="49.34481" lon="0.04445">
        <ele>-329.79998779297</ele>
        <time>2022-08-29T16:06:07Z</time>
      </trkpt>
      <trkpt lat="49.34482" lon="0.04445">
        <ele>-330</ele>
        <time>2022-08-29T16:06:08Z</time>
      </trkpt>
      <trkpt lat="49.34484" lon="0.04445">
        <ele>-330.39999389648</ele>
        <time>2022-08-29T16:06:09Z</time>
      </trkpt>
      <trkpt lat="49.34487" lon="0.04442">
        <ele>-331.20001220703</ele>
        <time>2022-08-29T16:06:13Z</time>
      </trkpt>
      <trkpt lat="49.34488" lon="0.04442">
        <ele>-331.39999389648</ele>
        <time>2022-08-29T16:06:14Z</time>
      </trkpt>
      <trkpt lat="49.34489" lon="0.0444">
        <ele>-331.60000610352</ele>
        <time>2022-08-29T16:06:15Z</time>
      </trkpt>
      <trkpt lat="49.34491" lon="0.04438">
        <ele>-331.79998779297</ele>
        <time>2022-08-29T16:06:16Z</time>
      </trkpt>
      <trkpt lat="49.34492" lon="0.04436">
        <ele>-332</ele>
        <time>2022-08-29T16:06:17Z</time>
      </trkpt>
      <trkpt lat="49.34494" lon="0.04434">
        <ele>-332.20001220703</ele>
        <time>2022-08-29T16:06:18Z</time>
      </trkpt>
      <trkpt lat="49.34496" lon="0.04432">
        <ele>-332.39999389648</ele>
        <time>2022-08-29T16:06:19Z</time>
      </trkpt>
      <trkpt lat="49.34498" lon="0.04431">
        <ele>-332.60000610352</ele>
        <time>2022-08-29T16:06:20Z</time>
      </trkpt>
      <trkpt lat="49.34508" lon="0.04424">
        <ele>-333.39999389648</ele>
        <time>2022-08-29T16:06:26Z</time>
      </trkpt>
      <trkpt lat="49.34511" lon="0.04422">
        <ele>-334.20001220703</ele>
        <time>2022-08-29T16:06:29Z</time>
      </trkpt>
      <trkpt lat="49.34514" lon="0.0442">
        <ele>-335.39999389648</ele>
        <time>2022-08-29T16:06:37Z</time>
      </trkpt>
      <trkpt lat="49.3452" lon="0.04415">
        <ele>-336.60000610352</ele>
        <time>2022-08-29T16:06:45Z</time>
      </trkpt>
      <trkpt lat="49.34545" lon="0.04398">
        <ele>-339.39999389648</ele>
        <time>2022-08-29T16:07:05Z</time>
      </trkpt>
      <trkpt lat="49.34561" lon="0.04382">
        <ele>-341.20001220703</ele>
        <time>2022-08-29T16:07:21Z</time>
      </trkpt>
      <trkpt lat="49.34571" lon="0.04371">
        <ele>-342</ele>
        <time>2022-08-29T16:07:31Z</time>
      </trkpt>
      <trkpt lat="49.34577" lon="0.04374">
        <ele>-342.20001220703</ele>
        <time>2022-08-29T16:07:35Z</time>
      </trkpt>
      <trkpt lat="49.34578" lon="0.04374">
        <ele>-342.20001220703</ele>
        <time>2022-08-29T16:07:36Z</time>
      </trkpt>
      <trkpt lat="49.34579" lon="0.04373">
        <ele>-342.20001220703</ele>
        <time>2022-08-29T16:07:37Z</time>
      </trkpt>
      <trkpt lat="49.34585" lon="0.0437">
        <ele>-342.39999389648</ele>
        <time>2022-08-29T16:07:40Z</time>
      </trkpt>
      <trkpt lat="49.34587" lon="0.04371">
        <ele>-342.39999389648</ele>
        <time>2022-08-29T16:07:41Z</time>
      </trkpt>
      <trkpt lat="49.34589" lon="0.04373">
        <ele>-342.39999389648</ele>
        <time>2022-08-29T16:07:42Z</time>
      </trkpt>
      <trkpt lat="49.3459" lon="0.04374">
        <ele>-342.60000610352</ele>
        <time>2022-08-29T16:07:43Z</time>
      </trkpt>
      <trkpt lat="49.34595" lon="0.04379">
        <ele>-343</ele>
        <time>2022-08-29T16:07:50Z</time>
      </trkpt>
      <trkpt lat="49.34597" lon="0.04379">
        <ele>-343</ele>
        <time>2022-08-29T16:07:51Z</time>
      </trkpt>
      <trkpt lat="49.34598" lon="0.04379">
        <ele>-343</ele>
        <time>2022-08-29T16:07:52Z</time>
      </trkpt>
      <trkpt lat="49.34599" lon="0.0438">
        <ele>-343</ele>
        <time>2022-08-29T16:07:53Z</time>
      </trkpt>
      <trkpt lat="49.346" lon="0.04382">
        <ele>-343</ele>
        <time>2022-08-29T16:07:54Z</time>
      </trkpt>
      <trkpt lat="49.34602" lon="0.04383">
        <ele>-343.20001220703</ele>
        <time>2022-08-29T16:07:55Z</time>
      </trkpt>
      <trkpt lat="49.34604" lon="0.04386">
        <ele>-343.60000610352</ele>
        <time>2022-08-29T16:07:57Z</time>
      </trkpt>
      <trkpt lat="49.34605" lon="0.04387">
        <ele>-343.79998779297</ele>
        <time>2022-08-29T16:07:58Z</time>
      </trkpt>
      <trkpt lat="49.34606" lon="0.04389">
        <ele>-343.79998779297</ele>
        <time>2022-08-29T16:07:59Z</time>
      </trkpt>
      <trkpt lat="49.34607" lon="0.0439">
        <ele>-344</ele>
        <time>2022-08-29T16:08:00Z</time>
      </trkpt>
      <trkpt lat="49.34609" lon="0.04392">
        <ele>-344</ele>
        <time>2022-08-29T16:08:01Z</time>
      </trkpt>
      <trkpt lat="49.34618" lon="0.04398">
        <ele>-344.60000610352</ele>
        <time>2022-08-29T16:08:07Z</time>
      </trkpt>
      <trkpt lat="49.34628" lon="0.0442">
        <ele>-345.79998779297</ele>
        <time>2022-08-29T16:08:22Z</time>
      </trkpt>
      <trkpt lat="49.34638" lon="0.04432">
        <ele>-346.79998779297</ele>
        <time>2022-08-29T16:08:31Z</time>
      </trkpt>
      <trkpt lat="49.3465" lon="0.04454">
        <ele>-348.39999389648</ele>
        <time>2022-08-29T16:08:47Z</time>
      </trkpt>
      <trkpt lat="49.34663" lon="0.04478">
        <ele>-349.20001220703</ele>
        <time>2022-08-29T16:09:02Z</time>
      </trkpt>
      <trkpt lat="49.34673" lon="0.04497">
        <ele>-351</ele>
        <time>2022-08-29T16:09:15Z</time>
      </trkpt>
      <trkpt lat="49.34674" lon="0.04499">
        <ele>-351</ele>
        <time>2022-08-29T16:09:16Z</time>
      </trkpt>
      <trkpt lat="49.34676" lon="0.04501">
        <ele>-351.20001220703</ele>
        <time>2022-08-29T16:09:17Z</time>
      </trkpt>
      <trkpt lat="49.34677" lon="0.04504">
        <ele>-351.20001220703</ele>
        <time>2022-08-29T16:09:18Z</time>
      </trkpt>
      <trkpt lat="49.34678" lon="0.04506">
        <ele>-351.39999389648</ele>
        <time>2022-08-29T16:09:19Z</time>
      </trkpt>
      <trkpt lat="49.34678" lon="0.04509">
        <ele>-351.60000610352</ele>
        <time>2022-08-29T16:09:20Z</time>
      </trkpt>
      <trkpt lat="49.34683" lon="0.04523">
        <ele>-352.39999389648</ele>
        <time>2022-08-29T16:09:31Z</time>
      </trkpt>
      <trkpt lat="49.3469" lon="0.04541">
        <ele>-353.20001220703</ele>
        <time>2022-08-29T16:09:40Z</time>
      </trkpt>
      <trkpt lat="49.34691" lon="0.04542">
        <ele>-353.20001220703</ele>
        <time>2022-08-29T16:09:41Z</time>
      </trkpt>
      <trkpt lat="49.34693" lon="0.04541">
        <ele>-353.39999389648</ele>
        <time>2022-08-29T16:09:42Z</time>
      </trkpt>
      <trkpt lat="49.34695" lon="0.0454">
        <ele>-353.39999389648</ele>
        <time>2022-08-29T16:09:43Z</time>
      </trkpt>
      <trkpt lat="49.34697" lon="0.0454">
        <ele>-353.39999389648</ele>
        <time>2022-08-29T16:09:44Z</time>
      </trkpt>
      <trkpt lat="49.34699" lon="0.04541">
        <ele>-353.60000610352</ele>
        <time>2022-08-29T16:09:45Z</time>
      </trkpt>
      <trkpt lat="49.34701" lon="0.04542">
        <ele>-353.60000610352</ele>
        <time>2022-08-29T16:09:46Z</time>
      </trkpt>
      <trkpt lat="49.34701" lon="0.04544">
        <ele>-353.79998779297</ele>
        <time>2022-08-29T16:09:47Z</time>
      </trkpt>
      <trkpt lat="49.34701" lon="0.04546">
        <ele>-353.79998779297</ele>
        <time>2022-08-29T16:09:48Z</time>
      </trkpt>
      <trkpt lat="49.34702" lon="0.04547">
        <ele>-353.79998779297</ele>
        <time>2022-08-29T16:09:49Z</time>
      </trkpt>
      <trkpt lat="49.34703" lon="0.04566">
        <ele>-354.39999389648</ele>
        <time>2022-08-29T16:10:02Z</time>
      </trkpt>
      <trkpt lat="49.34703" lon="0.04568">
        <ele>-354.39999389648</ele>
        <time>2022-08-29T16:10:03Z</time>
      </trkpt>
      <trkpt lat="49.3471" lon="0.04585">
        <ele>-355.79998779297</ele>
        <time>2022-08-29T16:10:19Z</time>
      </trkpt>
      <trkpt lat="49.34726" lon="0.04573">
        <ele>-358.79998779297</ele>
        <time>2022-08-29T16:10:36Z</time>
      </trkpt>
      <trkpt lat="49.34728" lon="0.04572">
        <ele>-359</ele>
        <time>2022-08-29T16:10:37Z</time>
      </trkpt>
      <trkpt lat="49.34758" lon="0.04551">
        <ele>-361.79998779297</ele>
        <time>2022-08-29T16:11:03Z</time>
      </trkpt>
      <trkpt lat="49.3478" lon="0.0454">
        <ele>-361.60000610352</ele>
        <time>2022-08-29T16:11:19Z</time>
      </trkpt>
      <trkpt lat="49.34797" lon="0.04536">
        <ele>-361.79998779297</ele>
        <time>2022-08-29T16:11:33Z</time>
      </trkpt>
      <trkpt lat="49.348" lon="0.0454">
        <ele>-362</ele>
        <time>2022-08-29T16:11:43Z</time>
      </trkpt>
      <trkpt lat="49.34808" lon="0.04554">
        <ele>-361.79998779297</ele>
        <time>2022-08-29T16:11:55Z</time>
      </trkpt>
      <trkpt lat="49.3481" lon="0.04556">
        <ele>-361.60000610352</ele>
        <time>2022-08-29T16:11:57Z</time>
      </trkpt>
      <trkpt lat="49.34815" lon="0.04564">
        <ele>-361.60000610352</ele>
        <time>2022-08-29T16:12:02Z</time>
      </trkpt>
      <trkpt lat="49.34829" lon="0.04591">
        <ele>-361.60000610352</ele>
        <time>2022-08-29T16:12:17Z</time>
      </trkpt>
      <trkpt lat="49.3484" lon="0.04614">
        <ele>-361.39999389648</ele>
        <time>2022-08-29T16:12:28Z</time>
      </trkpt>
      <trkpt lat="49.34848" lon="0.04629">
        <ele>-361.39999389648</ele>
        <time>2022-08-29T16:12:37Z</time>
      </trkpt>
      <trkpt lat="49.34852" lon="0.04633">
        <ele>-361.39999389648</ele>
        <time>2022-08-29T16:12:41Z</time>
      </trkpt>
      <trkpt lat="49.34861" lon="0.04646">
        <ele>-361.20001220703</ele>
        <time>2022-08-29T16:12:56Z</time>
      </trkpt>
      <trkpt lat="49.34864" lon="0.0465">
        <ele>-361.20001220703</ele>
        <time>2022-08-29T16:13:00Z</time>
      </trkpt>
      <trkpt lat="49.3487" lon="0.0466">
        <ele>-361</ele>
        <time>2022-08-29T16:13:06Z</time>
      </trkpt>
      <trkpt lat="49.34882" lon="0.04685">
        <ele>-361.39999389648</ele>
        <time>2022-08-29T16:13:18Z</time>
      </trkpt>
      <trkpt lat="49.34891" lon="0.04699">
        <ele>-361.79998779297</ele>
        <time>2022-08-29T16:13:35Z</time>
      </trkpt>
      <trkpt lat="49.34897" lon="0.04707">
        <ele>-363.20001220703</ele>
        <time>2022-08-29T16:13:44Z</time>
      </trkpt>
      <trkpt lat="49.34904" lon="0.04717">
        <ele>-363.39999389648</ele>
        <time>2022-08-29T16:13:53Z</time>
      </trkpt>
      <trkpt lat="49.34909" lon="0.04728">
        <ele>-363.20001220703</ele>
        <time>2022-08-29T16:14:02Z</time>
      </trkpt>
      <trkpt lat="49.34914" lon="0.04741">
        <ele>-363</ele>
        <time>2022-08-29T16:14:14Z</time>
      </trkpt>
      <trkpt lat="49.34921" lon="0.04754">
        <ele>-363</ele>
        <time>2022-08-29T16:14:30Z</time>
      </trkpt>
      <trkpt lat="49.34923" lon="0.04755">
        <ele>-363</ele>
        <time>2022-08-29T16:14:31Z</time>
      </trkpt>
      <trkpt lat="49.34928" lon="0.0476">
        <ele>-362.60000610352</ele>
        <time>2022-08-29T16:14:35Z</time>
      </trkpt>
      <trkpt lat="49.34939" lon="0.04776">
        <ele>-362.20001220703</ele>
        <time>2022-08-29T16:14:48Z</time>
      </trkpt>
      <trkpt lat="49.3494" lon="0.04777">
        <ele>-362.39999389648</ele>
        <time>2022-08-29T16:14:49Z</time>
      </trkpt>
      <trkpt lat="49.34948" lon="0.04794">
        <ele>-362.39999389648</ele>
        <time>2022-08-29T16:14:59Z</time>
      </trkpt>
      <trkpt lat="49.3496" lon="0.04818">
        <ele>-362.79998779297</ele>
        <time>2022-08-29T16:15:12Z</time>
      </trkpt>
      <trkpt lat="49.34964" lon="0.04822">
        <ele>-362.79998779297</ele>
        <time>2022-08-29T16:15:18Z</time>
      </trkpt>
      <trkpt lat="49.34968" lon="0.04828">
        <ele>-363</ele>
        <time>2022-08-29T16:15:22Z</time>
      </trkpt>
      <trkpt lat="49.3497" lon="0.04832">
        <ele>-363</ele>
        <time>2022-08-29T16:15:24Z</time>
      </trkpt>
      <trkpt lat="49.34975" lon="0.0484">
        <ele>-363.20001220703</ele>
        <time>2022-08-29T16:15:29Z</time>
      </trkpt>
      <trkpt lat="49.34983" lon="0.0485">
        <ele>-363.20001220703</ele>
        <time>2022-08-29T16:15:40Z</time>
      </trkpt>
      <trkpt lat="49.34986" lon="0.04857">
        <ele>-363.20001220703</ele>
        <time>2022-08-29T16:15:45Z</time>
      </trkpt>
      <trkpt lat="49.34994" lon="0.04876">
        <ele>-363.39999389648</ele>
        <time>2022-08-29T16:15:56Z</time>
      </trkpt>
      <trkpt lat="49.34993" lon="0.04877">
        <ele>-363.39999389648</ele>
        <time>2022-08-29T16:15:57Z</time>
      </trkpt>
      <trkpt lat="49.34989" lon="0.04893">
        <ele>-364.20001220703</ele>
        <time>2022-08-29T16:16:08Z</time>
      </trkpt>
      <trkpt lat="49.3498" lon="0.04899">
        <ele>-364.20001220703</ele>
        <time>2022-08-29T16:16:17Z</time>
      </trkpt>
      <trkpt lat="49.34972" lon="0.04901">
        <ele>-363.60000610352</ele>
        <time>2022-08-29T16:16:23Z</time>
      </trkpt>
      <trkpt lat="49.34966" lon="0.04912">
        <ele>-363.20001220703</ele>
        <time>2022-08-29T16:16:32Z</time>
      </trkpt>
      <trkpt lat="49.34967" lon="0.04915">
        <ele>-363.20001220703</ele>
        <time>2022-08-29T16:16:34Z</time>
      </trkpt>
      <trkpt lat="49.34969" lon="0.04924">
        <ele>-362.20001220703</ele>
        <time>2022-08-29T16:16:41Z</time>
      </trkpt>
      <trkpt lat="49.34978" lon="0.04935">
        <ele>-362.20001220703</ele>
        <time>2022-08-29T16:16:50Z</time>
      </trkpt>
      <trkpt lat="49.3498" lon="0.0494">
        <ele>-362.20001220703</ele>
        <time>2022-08-29T16:16:53Z</time>
      </trkpt>
      <trkpt lat="49.34986" lon="0.04951">
        <ele>-362</ele>
        <time>2022-08-29T16:16:58Z</time>
      </trkpt>
      <trkpt lat="49.34995" lon="0.04964">
        <ele>-362</ele>
        <time>2022-08-29T16:17:11Z</time>
      </trkpt>
      <trkpt lat="49.34996" lon="0.04968">
        <ele>-362.20001220703</ele>
        <time>2022-08-29T16:17:13Z</time>
      </trkpt>
      <trkpt lat="49.34997" lon="0.04971">
        <ele>-362.20001220703</ele>
        <time>2022-08-29T16:17:14Z</time>
      </trkpt>
      <trkpt lat="49.35002" lon="0.04985">
        <ele>-362.20001220703</ele>
        <time>2022-08-29T16:17:24Z</time>
      </trkpt>
      <trkpt lat="49.35002" lon="0.04987">
        <ele>-362.20001220703</ele>
        <time>2022-08-29T16:17:25Z</time>
      </trkpt>
      <trkpt lat="49.34999" lon="0.04983">
        <ele>-362</ele>
        <time>2022-08-29T16:17:37Z</time>
      </trkpt>
      <trkpt lat="49.34987" lon="0.04984">
        <ele>-362</ele>
        <time>2022-08-29T16:17:46Z</time>
      </trkpt>
      <trkpt lat="49.34982" lon="0.04986">
        <ele>-362.20001220703</ele>
        <time>2022-08-29T16:17:52Z</time>
      </trkpt>
      <trkpt lat="49.34969" lon="0.04992">
        <ele>-361.20001220703</ele>
        <time>2022-08-29T16:18:05Z</time>
      </trkpt>
      <trkpt lat="49.34958" lon="0.04999">
        <ele>-361</ele>
        <time>2022-08-29T16:18:17Z</time>
      </trkpt>
      <trkpt lat="49.34953" lon="0.05004">
        <ele>-360.79998779297</ele>
        <time>2022-08-29T16:18:21Z</time>
      </trkpt>
      <trkpt lat="49.34934" lon="0.05005">
        <ele>-361</ele>
        <time>2022-08-29T16:18:36Z</time>
      </trkpt>
      <trkpt lat="49.3493" lon="0.05005">
        <ele>-361</ele>
        <time>2022-08-29T16:18:39Z</time>
      </trkpt>
      <trkpt lat="49.34908" lon="0.05004">
        <ele>-361.20001220703</ele>
        <time>2022-08-29T16:18:57Z</time>
      </trkpt>
      <trkpt lat="49.34887" lon="0.05004">
        <ele>-361.39999389648</ele>
        <time>2022-08-29T16:19:17Z</time>
      </trkpt>
    </trkseg>
  </trk>
</gpx>